<?xml version="1.0" encoding="UTF-8" standalone="no" ?>
<gpx xmlns="http://www.topografix.com/GPX/1/1" xmlns:xsi="http://www.w3.org/2001/XMLSchema-instance" xsi:schemaLocation="http://www.topografix.com/GPX/1/1 http://www.topografix.com/GPX/1/1/gpx.xsd" version="1.1" creator="VisuGPX - https://www.visugpx.com">
  <metadata>
    <name>2022-05-01 Prades - Grabels - Eco parc de Bel-air 46 Km D 490m</name>
    <desc><![CDATA[Circuit au départ de Prades en direction de  Grabels - Bel-Air en explorant le Plan de l'Olivier et la Lande de la Soucarède. Passage peu roulant au niveau du Bois de Montlobre.]]></desc>
  </metadata>
  <trk>
    <name><![CDATA[2022-05-01 18:20:06]]></name>
    <trkseg>
      <trkpt lat="43.6957" lon="3.87297">
        <ele>94.35</ele>
        <time>2022-05-01T11:42:17Z</time>
      </trkpt>
      <trkpt lat="43.69569" lon="3.87298">
        <ele>93.39</ele>
        <time>2022-05-01T11:42:40Z</time>
      </trkpt>
      <trkpt lat="43.6957" lon="3.87299">
        <ele>92.42</ele>
        <time>2022-05-01T11:42:54Z</time>
      </trkpt>
      <trkpt lat="43.69569" lon="3.87295">
        <ele>92.42</ele>
        <time>2022-05-01T11:43:17Z</time>
      </trkpt>
      <trkpt lat="43.69566" lon="3.87295">
        <ele>91.94</ele>
        <time>2022-05-01T11:43:47Z</time>
      </trkpt>
      <trkpt lat="43.69567" lon="3.87296">
        <ele>91.46</ele>
        <time>2022-05-01T11:44:27Z</time>
      </trkpt>
      <trkpt lat="43.69567" lon="3.87296">
        <ele>90.98</ele>
        <time>2022-05-01T11:45:02Z</time>
      </trkpt>
      <trkpt lat="43.69569" lon="3.87298">
        <ele>90.98</ele>
        <time>2022-05-01T11:45:35Z</time>
      </trkpt>
      <trkpt lat="43.69568" lon="3.87298">
        <ele>92.42</ele>
        <time>2022-05-01T11:45:57Z</time>
      </trkpt>
      <trkpt lat="43.69568" lon="3.87303">
        <ele>93.87</ele>
        <time>2022-05-01T11:46:18Z</time>
      </trkpt>
      <trkpt lat="43.69567" lon="3.87299">
        <ele>98.19</ele>
        <time>2022-05-01T11:46:33Z</time>
      </trkpt>
      <trkpt lat="43.69568" lon="3.87298">
        <ele>99.63</ele>
        <time>2022-05-01T11:46:46Z</time>
      </trkpt>
      <trkpt lat="43.69568" lon="3.873">
        <ele>101.56</ele>
        <time>2022-05-01T11:47:04Z</time>
      </trkpt>
      <trkpt lat="43.69565" lon="3.87302">
        <ele>97.71</ele>
        <time>2022-05-01T11:47:24Z</time>
      </trkpt>
      <trkpt lat="43.69567" lon="3.87302">
        <ele>99.15</ele>
        <time>2022-05-01T11:47:43Z</time>
      </trkpt>
      <trkpt lat="43.69568" lon="3.87303">
        <ele>97.71</ele>
        <time>2022-05-01T11:48:12Z</time>
      </trkpt>
      <trkpt lat="43.69568" lon="3.87303">
        <ele>95.79</ele>
        <time>2022-05-01T11:48:41Z</time>
      </trkpt>
      <trkpt lat="43.69568" lon="3.87302">
        <ele>95.31</ele>
        <time>2022-05-01T11:49:03Z</time>
      </trkpt>
      <trkpt lat="43.6957" lon="3.87304">
        <ele>98.19</ele>
        <time>2022-05-01T11:49:20Z</time>
      </trkpt>
      <trkpt lat="43.6957" lon="3.87304">
        <ele>98.19</ele>
        <time>2022-05-01T11:49:37Z</time>
      </trkpt>
      <trkpt lat="43.69573" lon="3.87307">
        <ele>98.67</ele>
        <time>2022-05-01T11:49:42Z</time>
      </trkpt>
      <trkpt lat="43.69569" lon="3.87315">
        <ele>99.15</ele>
        <time>2022-05-01T11:49:47Z</time>
      </trkpt>
      <trkpt lat="43.69567" lon="3.87317">
        <ele>99.15</ele>
        <time>2022-05-01T11:49:48Z</time>
      </trkpt>
      <trkpt lat="43.69566" lon="3.8732">
        <ele>99.15</ele>
        <time>2022-05-01T11:49:49Z</time>
      </trkpt>
      <trkpt lat="43.69546" lon="3.87347">
        <ele>97.71</ele>
        <time>2022-05-01T11:50:01Z</time>
      </trkpt>
      <trkpt lat="43.69506" lon="3.87381">
        <ele>95.31</ele>
        <time>2022-05-01T11:50:13Z</time>
      </trkpt>
      <trkpt lat="43.69503" lon="3.87385">
        <ele>94.83</ele>
        <time>2022-05-01T11:50:14Z</time>
      </trkpt>
      <trkpt lat="43.69496" lon="3.87395">
        <ele>94.35</ele>
        <time>2022-05-01T11:50:16Z</time>
      </trkpt>
      <trkpt lat="43.69466" lon="3.87433">
        <ele>90.98</ele>
        <time>2022-05-01T11:50:24Z</time>
      </trkpt>
      <trkpt lat="43.69463" lon="3.87432">
        <ele>90.98</ele>
        <time>2022-05-01T11:50:25Z</time>
      </trkpt>
      <trkpt lat="43.6946" lon="3.8743">
        <ele>90.5</ele>
        <time>2022-05-01T11:50:26Z</time>
      </trkpt>
      <trkpt lat="43.69458" lon="3.87427">
        <ele>90.02</ele>
        <time>2022-05-01T11:50:27Z</time>
      </trkpt>
      <trkpt lat="43.69455" lon="3.87423">
        <ele>90.02</ele>
        <time>2022-05-01T11:50:28Z</time>
      </trkpt>
      <trkpt lat="43.69406" lon="3.87346">
        <ele>86.18</ele>
        <time>2022-05-01T11:50:41Z</time>
      </trkpt>
      <trkpt lat="43.69373" lon="3.87302">
        <ele>84.73</ele>
        <time>2022-05-01T11:50:48Z</time>
      </trkpt>
      <trkpt lat="43.69371" lon="3.87297">
        <ele>84.73</ele>
        <time>2022-05-01T11:50:49Z</time>
      </trkpt>
      <trkpt lat="43.69369" lon="3.87292">
        <ele>84.25</ele>
        <time>2022-05-01T11:50:50Z</time>
      </trkpt>
      <trkpt lat="43.69366" lon="3.87287">
        <ele>84.25</ele>
        <time>2022-05-01T11:50:51Z</time>
      </trkpt>
      <trkpt lat="43.69362" lon="3.87284">
        <ele>84.25</ele>
        <time>2022-05-01T11:50:52Z</time>
      </trkpt>
      <trkpt lat="43.69358" lon="3.87285">
        <ele>84.25</ele>
        <time>2022-05-01T11:50:53Z</time>
      </trkpt>
      <trkpt lat="43.69356" lon="3.8729">
        <ele>83.77</ele>
        <time>2022-05-01T11:50:54Z</time>
      </trkpt>
      <trkpt lat="43.69354" lon="3.87296">
        <ele>83.77</ele>
        <time>2022-05-01T11:50:55Z</time>
      </trkpt>
      <trkpt lat="43.69353" lon="3.87301">
        <ele>83.77</ele>
        <time>2022-05-01T11:50:56Z</time>
      </trkpt>
      <trkpt lat="43.6935" lon="3.87307">
        <ele>83.77</ele>
        <time>2022-05-01T11:50:57Z</time>
      </trkpt>
      <trkpt lat="43.69325" lon="3.87352">
        <ele>82.81</ele>
        <time>2022-05-01T11:51:06Z</time>
      </trkpt>
      <trkpt lat="43.69322" lon="3.87358">
        <ele>82.81</ele>
        <time>2022-05-01T11:51:07Z</time>
      </trkpt>
      <trkpt lat="43.69272" lon="3.87443">
        <ele>83.29</ele>
        <time>2022-05-01T11:51:25Z</time>
      </trkpt>
      <trkpt lat="43.69247" lon="3.87472">
        <ele>83.29</ele>
        <time>2022-05-01T11:51:34Z</time>
      </trkpt>
      <trkpt lat="43.69245" lon="3.87471">
        <ele>83.29</ele>
        <time>2022-05-01T11:51:35Z</time>
      </trkpt>
      <trkpt lat="43.69244" lon="3.87471">
        <ele>83.29</ele>
        <time>2022-05-01T11:51:36Z</time>
      </trkpt>
      <trkpt lat="43.69243" lon="3.87472">
        <ele>83.29</ele>
        <time>2022-05-01T11:51:37Z</time>
      </trkpt>
      <trkpt lat="43.69243" lon="3.87474">
        <ele>83.29</ele>
        <time>2022-05-01T11:51:38Z</time>
      </trkpt>
      <trkpt lat="43.69245" lon="3.87475">
        <ele>83.29</ele>
        <time>2022-05-01T11:51:39Z</time>
      </trkpt>
      <trkpt lat="43.69247" lon="3.87475">
        <ele>83.29</ele>
        <time>2022-05-01T11:51:40Z</time>
      </trkpt>
      <trkpt lat="43.69257" lon="3.87475">
        <ele>84.25</ele>
        <time>2022-05-01T11:51:45Z</time>
      </trkpt>
      <trkpt lat="43.69259" lon="3.87473">
        <ele>84.25</ele>
        <time>2022-05-01T11:51:46Z</time>
      </trkpt>
      <trkpt lat="43.69301" lon="3.874">
        <ele>84.73</ele>
        <time>2022-05-01T11:52:03Z</time>
      </trkpt>
      <trkpt lat="43.69354" lon="3.87307">
        <ele>83.29</ele>
        <time>2022-05-01T11:52:21Z</time>
      </trkpt>
      <trkpt lat="43.6936" lon="3.87301">
        <ele>83.29</ele>
        <time>2022-05-01T11:52:23Z</time>
      </trkpt>
      <trkpt lat="43.69363" lon="3.873">
        <ele>83.29</ele>
        <time>2022-05-01T11:52:24Z</time>
      </trkpt>
      <trkpt lat="43.69367" lon="3.87301">
        <ele>83.29</ele>
        <time>2022-05-01T11:52:25Z</time>
      </trkpt>
      <trkpt lat="43.6937" lon="3.87304">
        <ele>83.29</ele>
        <time>2022-05-01T11:52:26Z</time>
      </trkpt>
      <trkpt lat="43.69373" lon="3.87307">
        <ele>83.77</ele>
        <time>2022-05-01T11:52:27Z</time>
      </trkpt>
      <trkpt lat="43.69376" lon="3.87311">
        <ele>83.77</ele>
        <time>2022-05-01T11:52:28Z</time>
      </trkpt>
      <trkpt lat="43.69424" lon="3.87377">
        <ele>87.62</ele>
        <time>2022-05-01T11:52:46Z</time>
      </trkpt>
      <trkpt lat="43.6946" lon="3.87437">
        <ele>91.94</ele>
        <time>2022-05-01T11:53:03Z</time>
      </trkpt>
      <trkpt lat="43.69463" lon="3.87438">
        <ele>92.42</ele>
        <time>2022-05-01T11:53:04Z</time>
      </trkpt>
      <trkpt lat="43.69466" lon="3.87437">
        <ele>92.9</ele>
        <time>2022-05-01T11:53:05Z</time>
      </trkpt>
      <trkpt lat="43.69468" lon="3.87435">
        <ele>92.9</ele>
        <time>2022-05-01T11:53:06Z</time>
      </trkpt>
      <trkpt lat="43.6947" lon="3.87433">
        <ele>92.9</ele>
        <time>2022-05-01T11:53:07Z</time>
      </trkpt>
      <trkpt lat="43.69473" lon="3.8743">
        <ele>92.9</ele>
        <time>2022-05-01T11:53:08Z</time>
      </trkpt>
      <trkpt lat="43.69475" lon="3.87427">
        <ele>93.39</ele>
        <time>2022-05-01T11:53:09Z</time>
      </trkpt>
      <trkpt lat="43.69508" lon="3.87382">
        <ele>96.27</ele>
        <time>2022-05-01T11:53:25Z</time>
      </trkpt>
      <trkpt lat="43.69544" lon="3.87352">
        <ele>99.63</ele>
        <time>2022-05-01T11:53:40Z</time>
      </trkpt>
      <trkpt lat="43.69568" lon="3.87314">
        <ele>99.63</ele>
        <time>2022-05-01T11:53:56Z</time>
      </trkpt>
      <trkpt lat="43.69568" lon="3.87311">
        <ele>98.67</ele>
        <time>2022-05-01T11:54:09Z</time>
      </trkpt>
      <trkpt lat="43.69565" lon="3.87307">
        <ele>97.71</ele>
        <time>2022-05-01T11:54:14Z</time>
      </trkpt>
      <trkpt lat="43.69563" lon="3.87304">
        <ele>96.75</ele>
        <time>2022-05-01T11:54:26Z</time>
      </trkpt>
      <trkpt lat="43.69566" lon="3.87306">
        <ele>97.71</ele>
        <time>2022-05-01T11:54:51Z</time>
      </trkpt>
      <trkpt lat="43.69569" lon="3.87302">
        <ele>100.6</ele>
        <time>2022-05-01T11:55:21Z</time>
      </trkpt>
      <trkpt lat="43.69566" lon="3.87306">
        <ele>100.11</ele>
        <time>2022-05-01T11:55:47Z</time>
      </trkpt>
      <trkpt lat="43.69568" lon="3.87308">
        <ele>101.56</ele>
        <time>2022-05-01T11:55:57Z</time>
      </trkpt>
      <trkpt lat="43.69568" lon="3.87312">
        <ele>100.11</ele>
        <time>2022-05-01T11:56:12Z</time>
      </trkpt>
      <trkpt lat="43.69567" lon="3.87315">
        <ele>100.11</ele>
        <time>2022-05-01T11:56:16Z</time>
      </trkpt>
      <trkpt lat="43.69564" lon="3.87322">
        <ele>99.63</ele>
        <time>2022-05-01T11:56:29Z</time>
      </trkpt>
      <trkpt lat="43.69538" lon="3.87351">
        <ele>98.67</ele>
        <time>2022-05-01T11:56:41Z</time>
      </trkpt>
      <trkpt lat="43.69526" lon="3.8736">
        <ele>97.23</ele>
        <time>2022-05-01T11:56:44Z</time>
      </trkpt>
      <trkpt lat="43.69518" lon="3.87366">
        <ele>96.75</ele>
        <time>2022-05-01T11:56:46Z</time>
      </trkpt>
      <trkpt lat="43.69496" lon="3.87389">
        <ele>94.83</ele>
        <time>2022-05-01T11:56:51Z</time>
      </trkpt>
      <trkpt lat="43.69481" lon="3.87411">
        <ele>93.87</ele>
        <time>2022-05-01T11:56:55Z</time>
      </trkpt>
      <trkpt lat="43.69479" lon="3.87417">
        <ele>93.39</ele>
        <time>2022-05-01T11:56:56Z</time>
      </trkpt>
      <trkpt lat="43.69476" lon="3.87423">
        <ele>93.39</ele>
        <time>2022-05-01T11:56:57Z</time>
      </trkpt>
      <trkpt lat="43.69473" lon="3.87429">
        <ele>92.9</ele>
        <time>2022-05-01T11:56:58Z</time>
      </trkpt>
      <trkpt lat="43.69468" lon="3.87432">
        <ele>92.9</ele>
        <time>2022-05-01T11:56:59Z</time>
      </trkpt>
      <trkpt lat="43.69463" lon="3.87431">
        <ele>92.42</ele>
        <time>2022-05-01T11:57:00Z</time>
      </trkpt>
      <trkpt lat="43.69458" lon="3.87426">
        <ele>91.94</ele>
        <time>2022-05-01T11:57:01Z</time>
      </trkpt>
      <trkpt lat="43.69454" lon="3.87421">
        <ele>91.46</ele>
        <time>2022-05-01T11:57:02Z</time>
      </trkpt>
      <trkpt lat="43.6945" lon="3.87415">
        <ele>91.46</ele>
        <time>2022-05-01T11:57:03Z</time>
      </trkpt>
      <trkpt lat="43.69375" lon="3.87306">
        <ele>86.18</ele>
        <time>2022-05-01T11:57:19Z</time>
      </trkpt>
      <trkpt lat="43.69371" lon="3.87299">
        <ele>85.69</ele>
        <time>2022-05-01T11:57:20Z</time>
      </trkpt>
      <trkpt lat="43.69369" lon="3.87293">
        <ele>85.69</ele>
        <time>2022-05-01T11:57:21Z</time>
      </trkpt>
      <trkpt lat="43.69367" lon="3.87287">
        <ele>85.21</ele>
        <time>2022-05-01T11:57:22Z</time>
      </trkpt>
      <trkpt lat="43.69363" lon="3.87284">
        <ele>85.21</ele>
        <time>2022-05-01T11:57:23Z</time>
      </trkpt>
      <trkpt lat="43.69358" lon="3.87285">
        <ele>84.73</ele>
        <time>2022-05-01T11:57:24Z</time>
      </trkpt>
      <trkpt lat="43.69355" lon="3.8729">
        <ele>84.73</ele>
        <time>2022-05-01T11:57:25Z</time>
      </trkpt>
      <trkpt lat="43.69353" lon="3.87297">
        <ele>84.73</ele>
        <time>2022-05-01T11:57:26Z</time>
      </trkpt>
      <trkpt lat="43.69352" lon="3.87303">
        <ele>84.73</ele>
        <time>2022-05-01T11:57:27Z</time>
      </trkpt>
      <trkpt lat="43.6935" lon="3.87309">
        <ele>84.73</ele>
        <time>2022-05-01T11:57:28Z</time>
      </trkpt>
      <trkpt lat="43.69347" lon="3.87315">
        <ele>84.73</ele>
        <time>2022-05-01T11:57:29Z</time>
      </trkpt>
      <trkpt lat="43.69344" lon="3.87321">
        <ele>84.73</ele>
        <time>2022-05-01T11:57:30Z</time>
      </trkpt>
      <trkpt lat="43.69294" lon="3.87408">
        <ele>85.69</ele>
        <time>2022-05-01T11:57:45Z</time>
      </trkpt>
      <trkpt lat="43.69258" lon="3.87472">
        <ele>87.62</ele>
        <time>2022-05-01T11:57:57Z</time>
      </trkpt>
      <trkpt lat="43.69254" lon="3.87475">
        <ele>87.62</ele>
        <time>2022-05-01T11:57:58Z</time>
      </trkpt>
      <trkpt lat="43.6925" lon="3.87475">
        <ele>87.62</ele>
        <time>2022-05-01T11:57:59Z</time>
      </trkpt>
      <trkpt lat="43.69245" lon="3.87473">
        <ele>87.14</ele>
        <time>2022-05-01T11:58:00Z</time>
      </trkpt>
      <trkpt lat="43.69241" lon="3.87471">
        <ele>87.14</ele>
        <time>2022-05-01T11:58:01Z</time>
      </trkpt>
      <trkpt lat="43.69214" lon="3.87454">
        <ele>85.21</ele>
        <time>2022-05-01T11:58:06Z</time>
      </trkpt>
      <trkpt lat="43.69202" lon="3.87446">
        <ele>84.73</ele>
        <time>2022-05-01T11:58:08Z</time>
      </trkpt>
      <trkpt lat="43.6913" lon="3.87403">
        <ele>80.89</ele>
        <time>2022-05-01T11:58:19Z</time>
      </trkpt>
      <trkpt lat="43.69124" lon="3.87401">
        <ele>80.89</ele>
        <time>2022-05-01T11:58:20Z</time>
      </trkpt>
      <trkpt lat="43.69111" lon="3.87398">
        <ele>80.89</ele>
        <time>2022-05-01T11:58:22Z</time>
      </trkpt>
      <trkpt lat="43.69106" lon="3.87395">
        <ele>80.89</ele>
        <time>2022-05-01T11:58:23Z</time>
      </trkpt>
      <trkpt lat="43.69085" lon="3.87386">
        <ele>80.89</ele>
        <time>2022-05-01T11:58:27Z</time>
      </trkpt>
      <trkpt lat="43.69081" lon="3.87383">
        <ele>80.89</ele>
        <time>2022-05-01T11:58:28Z</time>
      </trkpt>
      <trkpt lat="43.69076" lon="3.8738">
        <ele>80.89</ele>
        <time>2022-05-01T11:58:29Z</time>
      </trkpt>
      <trkpt lat="43.6901" lon="3.87334">
        <ele>79.45</ele>
        <time>2022-05-01T11:58:44Z</time>
      </trkpt>
      <trkpt lat="43.68988" lon="3.87315">
        <ele>78.97</ele>
        <time>2022-05-01T11:58:49Z</time>
      </trkpt>
      <trkpt lat="43.68926" lon="3.8727">
        <ele>76.56</ele>
        <time>2022-05-01T11:59:02Z</time>
      </trkpt>
      <trkpt lat="43.68849" lon="3.87213">
        <ele>77.04</ele>
        <time>2022-05-01T11:59:18Z</time>
      </trkpt>
      <trkpt lat="43.68845" lon="3.87209">
        <ele>77.04</ele>
        <time>2022-05-01T11:59:19Z</time>
      </trkpt>
      <trkpt lat="43.6884" lon="3.87205">
        <ele>77.04</ele>
        <time>2022-05-01T11:59:20Z</time>
      </trkpt>
      <trkpt lat="43.6882" lon="3.87191">
        <ele>76.56</ele>
        <time>2022-05-01T11:59:24Z</time>
      </trkpt>
      <trkpt lat="43.68816" lon="3.87187">
        <ele>76.56</ele>
        <time>2022-05-01T11:59:25Z</time>
      </trkpt>
      <trkpt lat="43.68753" lon="3.87149">
        <ele>76.08</ele>
        <time>2022-05-01T11:59:38Z</time>
      </trkpt>
      <trkpt lat="43.6872" lon="3.87126">
        <ele>75.6</ele>
        <time>2022-05-01T11:59:45Z</time>
      </trkpt>
      <trkpt lat="43.68716" lon="3.87121">
        <ele>75.6</ele>
        <time>2022-05-01T11:59:46Z</time>
      </trkpt>
      <trkpt lat="43.68714" lon="3.87113">
        <ele>75.12</ele>
        <time>2022-05-01T11:59:47Z</time>
      </trkpt>
      <trkpt lat="43.68714" lon="3.87105">
        <ele>75.12</ele>
        <time>2022-05-01T11:59:48Z</time>
      </trkpt>
      <trkpt lat="43.68715" lon="3.87096">
        <ele>74.64</ele>
        <time>2022-05-01T11:59:49Z</time>
      </trkpt>
      <trkpt lat="43.68717" lon="3.87087">
        <ele>74.16</ele>
        <time>2022-05-01T11:59:50Z</time>
      </trkpt>
      <trkpt lat="43.6872" lon="3.87079">
        <ele>74.16</ele>
        <time>2022-05-01T11:59:51Z</time>
      </trkpt>
      <trkpt lat="43.68766" lon="3.86923">
        <ele>70.31</ele>
        <time>2022-05-01T12:00:09Z</time>
      </trkpt>
      <trkpt lat="43.6877" lon="3.86915">
        <ele>70.31</ele>
        <time>2022-05-01T12:00:10Z</time>
      </trkpt>
      <trkpt lat="43.68773" lon="3.86906">
        <ele>70.31</ele>
        <time>2022-05-01T12:00:11Z</time>
      </trkpt>
      <trkpt lat="43.68789" lon="3.8685">
        <ele>71.27</ele>
        <time>2022-05-01T12:00:19Z</time>
      </trkpt>
      <trkpt lat="43.68789" lon="3.86844">
        <ele>71.27</ele>
        <time>2022-05-01T12:00:20Z</time>
      </trkpt>
      <trkpt lat="43.68787" lon="3.86838">
        <ele>71.27</ele>
        <time>2022-05-01T12:00:21Z</time>
      </trkpt>
      <trkpt lat="43.68784" lon="3.86832">
        <ele>70.79</ele>
        <time>2022-05-01T12:00:22Z</time>
      </trkpt>
      <trkpt lat="43.6878" lon="3.86827">
        <ele>70.79</ele>
        <time>2022-05-01T12:00:23Z</time>
      </trkpt>
      <trkpt lat="43.68757" lon="3.86803">
        <ele>70.31</ele>
        <time>2022-05-01T12:00:28Z</time>
      </trkpt>
      <trkpt lat="43.68752" lon="3.868">
        <ele>69.83</ele>
        <time>2022-05-01T12:00:29Z</time>
      </trkpt>
      <trkpt lat="43.68722" lon="3.86784">
        <ele>69.35</ele>
        <time>2022-05-01T12:00:34Z</time>
      </trkpt>
      <trkpt lat="43.68717" lon="3.8678">
        <ele>69.35</ele>
        <time>2022-05-01T12:00:35Z</time>
      </trkpt>
      <trkpt lat="43.68712" lon="3.86775">
        <ele>69.35</ele>
        <time>2022-05-01T12:00:36Z</time>
      </trkpt>
      <trkpt lat="43.68707" lon="3.86768">
        <ele>69.35</ele>
        <time>2022-05-01T12:00:37Z</time>
      </trkpt>
      <trkpt lat="43.68703" lon="3.86762">
        <ele>69.35</ele>
        <time>2022-05-01T12:00:38Z</time>
      </trkpt>
      <trkpt lat="43.68699" lon="3.86755">
        <ele>68.87</ele>
        <time>2022-05-01T12:00:39Z</time>
      </trkpt>
      <trkpt lat="43.68696" lon="3.86747">
        <ele>68.87</ele>
        <time>2022-05-01T12:00:40Z</time>
      </trkpt>
      <trkpt lat="43.68694" lon="3.8674">
        <ele>68.87</ele>
        <time>2022-05-01T12:00:41Z</time>
      </trkpt>
      <trkpt lat="43.68677" lon="3.86698">
        <ele>68.87</ele>
        <time>2022-05-01T12:00:47Z</time>
      </trkpt>
      <trkpt lat="43.68655" lon="3.86596">
        <ele>68.39</ele>
        <time>2022-05-01T12:01:01Z</time>
      </trkpt>
      <trkpt lat="43.68654" lon="3.86588">
        <ele>68.39</ele>
        <time>2022-05-01T12:01:02Z</time>
      </trkpt>
      <trkpt lat="43.68654" lon="3.86581">
        <ele>68.39</ele>
        <time>2022-05-01T12:01:03Z</time>
      </trkpt>
      <trkpt lat="43.68654" lon="3.86573">
        <ele>67.91</ele>
        <time>2022-05-01T12:01:04Z</time>
      </trkpt>
      <trkpt lat="43.68655" lon="3.86566">
        <ele>67.91</ele>
        <time>2022-05-01T12:01:05Z</time>
      </trkpt>
      <trkpt lat="43.68656" lon="3.86559">
        <ele>67.91</ele>
        <time>2022-05-01T12:01:06Z</time>
      </trkpt>
      <trkpt lat="43.68658" lon="3.86553">
        <ele>68.39</ele>
        <time>2022-05-01T12:01:07Z</time>
      </trkpt>
      <trkpt lat="43.6866" lon="3.86546">
        <ele>68.39</ele>
        <time>2022-05-01T12:01:08Z</time>
      </trkpt>
      <trkpt lat="43.68662" lon="3.86541">
        <ele>68.39</ele>
        <time>2022-05-01T12:01:09Z</time>
      </trkpt>
      <trkpt lat="43.68664" lon="3.86535">
        <ele>68.87</ele>
        <time>2022-05-01T12:01:10Z</time>
      </trkpt>
      <trkpt lat="43.68675" lon="3.86513">
        <ele>68.87</ele>
        <time>2022-05-01T12:01:14Z</time>
      </trkpt>
      <trkpt lat="43.68677" lon="3.86506">
        <ele>68.87</ele>
        <time>2022-05-01T12:01:15Z</time>
      </trkpt>
      <trkpt lat="43.6868" lon="3.86493">
        <ele>68.87</ele>
        <time>2022-05-01T12:01:17Z</time>
      </trkpt>
      <trkpt lat="43.6868" lon="3.86486">
        <ele>68.87</ele>
        <time>2022-05-01T12:01:18Z</time>
      </trkpt>
      <trkpt lat="43.68681" lon="3.86465">
        <ele>68.39</ele>
        <time>2022-05-01T12:01:21Z</time>
      </trkpt>
      <trkpt lat="43.68676" lon="3.86435">
        <ele>67.43</ele>
        <time>2022-05-01T12:01:25Z</time>
      </trkpt>
      <trkpt lat="43.68667" lon="3.86393">
        <ele>65.99</ele>
        <time>2022-05-01T12:01:31Z</time>
      </trkpt>
      <trkpt lat="43.68668" lon="3.86387">
        <ele>65.99</ele>
        <time>2022-05-01T12:01:32Z</time>
      </trkpt>
      <trkpt lat="43.68671" lon="3.86383">
        <ele>65.99</ele>
        <time>2022-05-01T12:01:33Z</time>
      </trkpt>
      <trkpt lat="43.68674" lon="3.8638">
        <ele>65.99</ele>
        <time>2022-05-01T12:01:34Z</time>
      </trkpt>
      <trkpt lat="43.68678" lon="3.86378">
        <ele>65.99</ele>
        <time>2022-05-01T12:01:35Z</time>
      </trkpt>
      <trkpt lat="43.68682" lon="3.86376">
        <ele>65.99</ele>
        <time>2022-05-01T12:01:36Z</time>
      </trkpt>
      <trkpt lat="43.68684" lon="3.86373">
        <ele>65.51</ele>
        <time>2022-05-01T12:01:37Z</time>
      </trkpt>
      <trkpt lat="43.68685" lon="3.8637">
        <ele>65.51</ele>
        <time>2022-05-01T12:01:38Z</time>
      </trkpt>
      <trkpt lat="43.68686" lon="3.86367">
        <ele>65.51</ele>
        <time>2022-05-01T12:01:39Z</time>
      </trkpt>
      <trkpt lat="43.68688" lon="3.86365">
        <ele>65.51</ele>
        <time>2022-05-01T12:01:40Z</time>
      </trkpt>
      <trkpt lat="43.68694" lon="3.86355">
        <ele>65.51</ele>
        <time>2022-05-01T12:01:43Z</time>
      </trkpt>
      <trkpt lat="43.68697" lon="3.86354">
        <ele>65.51</ele>
        <time>2022-05-01T12:01:44Z</time>
      </trkpt>
      <trkpt lat="43.68701" lon="3.86353">
        <ele>65.99</ele>
        <time>2022-05-01T12:01:45Z</time>
      </trkpt>
      <trkpt lat="43.68704" lon="3.86352">
        <ele>65.99</ele>
        <time>2022-05-01T12:01:46Z</time>
      </trkpt>
      <trkpt lat="43.68708" lon="3.8635">
        <ele>65.99</ele>
        <time>2022-05-01T12:01:47Z</time>
      </trkpt>
      <trkpt lat="43.68712" lon="3.86349">
        <ele>65.99</ele>
        <time>2022-05-01T12:01:48Z</time>
      </trkpt>
      <trkpt lat="43.68727" lon="3.86343">
        <ele>65.99</ele>
        <time>2022-05-01T12:01:52Z</time>
      </trkpt>
      <trkpt lat="43.68759" lon="3.86332">
        <ele>66.47</ele>
        <time>2022-05-01T12:02:00Z</time>
      </trkpt>
      <trkpt lat="43.68824" lon="3.86305">
        <ele>66.47</ele>
        <time>2022-05-01T12:02:16Z</time>
      </trkpt>
      <trkpt lat="43.68895" lon="3.86281">
        <ele>69.35</ele>
        <time>2022-05-01T12:02:32Z</time>
      </trkpt>
      <trkpt lat="43.68977" lon="3.86265">
        <ele>69.83</ele>
        <time>2022-05-01T12:02:51Z</time>
      </trkpt>
      <trkpt lat="43.69057" lon="3.86266">
        <ele>70.79</ele>
        <time>2022-05-01T12:03:09Z</time>
      </trkpt>
      <trkpt lat="43.69096" lon="3.86266">
        <ele>70.79</ele>
        <time>2022-05-01T12:03:19Z</time>
      </trkpt>
      <trkpt lat="43.69097" lon="3.86263">
        <ele>70.79</ele>
        <time>2022-05-01T12:03:20Z</time>
      </trkpt>
      <trkpt lat="43.69091" lon="3.86234">
        <ele>70.31</ele>
        <time>2022-05-01T12:03:27Z</time>
      </trkpt>
      <trkpt lat="43.69089" lon="3.86228">
        <ele>69.83</ele>
        <time>2022-05-01T12:03:28Z</time>
      </trkpt>
      <trkpt lat="43.69086" lon="3.86223">
        <ele>69.35</ele>
        <time>2022-05-01T12:03:29Z</time>
      </trkpt>
      <trkpt lat="43.69081" lon="3.8622">
        <ele>69.35</ele>
        <time>2022-05-01T12:03:30Z</time>
      </trkpt>
      <trkpt lat="43.69077" lon="3.86218">
        <ele>68.87</ele>
        <time>2022-05-01T12:03:31Z</time>
      </trkpt>
      <trkpt lat="43.69072" lon="3.86217">
        <ele>68.87</ele>
        <time>2022-05-01T12:03:32Z</time>
      </trkpt>
      <trkpt lat="43.69068" lon="3.86214">
        <ele>68.87</ele>
        <time>2022-05-01T12:03:33Z</time>
      </trkpt>
      <trkpt lat="43.69065" lon="3.86208">
        <ele>68.87</ele>
        <time>2022-05-01T12:03:34Z</time>
      </trkpt>
      <trkpt lat="43.69065" lon="3.86201">
        <ele>68.87</ele>
        <time>2022-05-01T12:03:35Z</time>
      </trkpt>
      <trkpt lat="43.69066" lon="3.86194">
        <ele>68.87</ele>
        <time>2022-05-01T12:03:36Z</time>
      </trkpt>
      <trkpt lat="43.6907" lon="3.86149">
        <ele>68.39</ele>
        <time>2022-05-01T12:03:42Z</time>
      </trkpt>
      <trkpt lat="43.69074" lon="3.8611">
        <ele>67.43</ele>
        <time>2022-05-01T12:03:47Z</time>
      </trkpt>
      <trkpt lat="43.69076" lon="3.86103">
        <ele>66.95</ele>
        <time>2022-05-01T12:03:48Z</time>
      </trkpt>
      <trkpt lat="43.69077" lon="3.86096">
        <ele>66.95</ele>
        <time>2022-05-01T12:03:49Z</time>
      </trkpt>
      <trkpt lat="43.69079" lon="3.86083">
        <ele>66.47</ele>
        <time>2022-05-01T12:03:51Z</time>
      </trkpt>
      <trkpt lat="43.6908" lon="3.86077">
        <ele>66.47</ele>
        <time>2022-05-01T12:03:52Z</time>
      </trkpt>
      <trkpt lat="43.69083" lon="3.86072">
        <ele>65.99</ele>
        <time>2022-05-01T12:03:53Z</time>
      </trkpt>
      <trkpt lat="43.69085" lon="3.86067">
        <ele>65.99</ele>
        <time>2022-05-01T12:03:54Z</time>
      </trkpt>
      <trkpt lat="43.69089" lon="3.86063">
        <ele>65.99</ele>
        <time>2022-05-01T12:03:55Z</time>
      </trkpt>
      <trkpt lat="43.69131" lon="3.86">
        <ele>66.47</ele>
        <time>2022-05-01T12:04:10Z</time>
      </trkpt>
      <trkpt lat="43.69151" lon="3.85954">
        <ele>66.47</ele>
        <time>2022-05-01T12:04:21Z</time>
      </trkpt>
      <trkpt lat="43.69175" lon="3.85923">
        <ele>65.51</ele>
        <time>2022-05-01T12:04:30Z</time>
      </trkpt>
      <trkpt lat="43.69212" lon="3.85888">
        <ele>66.47</ele>
        <time>2022-05-01T12:04:43Z</time>
      </trkpt>
      <trkpt lat="43.69266" lon="3.85876">
        <ele>65.51</ele>
        <time>2022-05-01T12:04:58Z</time>
      </trkpt>
      <trkpt lat="43.69274" lon="3.85876">
        <ele>65.51</ele>
        <time>2022-05-01T12:05:00Z</time>
      </trkpt>
      <trkpt lat="43.69327" lon="3.85862">
        <ele>65.03</ele>
        <time>2022-05-01T12:05:14Z</time>
      </trkpt>
      <trkpt lat="43.69387" lon="3.85826">
        <ele>64.55</ele>
        <time>2022-05-01T12:05:29Z</time>
      </trkpt>
      <trkpt lat="43.69415" lon="3.85808">
        <ele>65.51</ele>
        <time>2022-05-01T12:05:36Z</time>
      </trkpt>
      <trkpt lat="43.69419" lon="3.85806">
        <ele>65.51</ele>
        <time>2022-05-01T12:05:37Z</time>
      </trkpt>
      <trkpt lat="43.69423" lon="3.85803">
        <ele>65.51</ele>
        <time>2022-05-01T12:05:38Z</time>
      </trkpt>
      <trkpt lat="43.69425" lon="3.85799">
        <ele>65.51</ele>
        <time>2022-05-01T12:05:39Z</time>
      </trkpt>
      <trkpt lat="43.69427" lon="3.85793">
        <ele>65.03</ele>
        <time>2022-05-01T12:05:40Z</time>
      </trkpt>
      <trkpt lat="43.69426" lon="3.85788">
        <ele>65.03</ele>
        <time>2022-05-01T12:05:41Z</time>
      </trkpt>
      <trkpt lat="43.69425" lon="3.85782">
        <ele>65.03</ele>
        <time>2022-05-01T12:05:42Z</time>
      </trkpt>
      <trkpt lat="43.69423" lon="3.85777">
        <ele>65.03</ele>
        <time>2022-05-01T12:05:43Z</time>
      </trkpt>
      <trkpt lat="43.69421" lon="3.85772">
        <ele>65.03</ele>
        <time>2022-05-01T12:05:44Z</time>
      </trkpt>
      <trkpt lat="43.69415" lon="3.85755">
        <ele>64.55</ele>
        <time>2022-05-01T12:05:47Z</time>
      </trkpt>
      <trkpt lat="43.69401" lon="3.85743">
        <ele>64.07</ele>
        <time>2022-05-01T12:05:51Z</time>
      </trkpt>
      <trkpt lat="43.69378" lon="3.85742">
        <ele>62.62</ele>
        <time>2022-05-01T12:05:56Z</time>
      </trkpt>
      <trkpt lat="43.69368" lon="3.85749">
        <ele>62.14</ele>
        <time>2022-05-01T12:05:59Z</time>
      </trkpt>
      <trkpt lat="43.69357" lon="3.85738">
        <ele>62.62</ele>
        <time>2022-05-01T12:06:04Z</time>
      </trkpt>
      <trkpt lat="43.69349" lon="3.85693">
        <ele>61.18</ele>
        <time>2022-05-01T12:06:13Z</time>
      </trkpt>
      <trkpt lat="43.69359" lon="3.85682">
        <ele>61.18</ele>
        <time>2022-05-01T12:06:17Z</time>
      </trkpt>
      <trkpt lat="43.69418" lon="3.85652">
        <ele>64.07</ele>
        <time>2022-05-01T12:06:34Z</time>
      </trkpt>
      <trkpt lat="43.69503" lon="3.85636">
        <ele>65.03</ele>
        <time>2022-05-01T12:06:55Z</time>
      </trkpt>
      <trkpt lat="43.69519" lon="3.85631">
        <ele>65.51</ele>
        <time>2022-05-01T12:06:59Z</time>
      </trkpt>
      <trkpt lat="43.69555" lon="3.85623">
        <ele>65.03</ele>
        <time>2022-05-01T12:07:08Z</time>
      </trkpt>
      <trkpt lat="43.69617" lon="3.85615">
        <ele>65.03</ele>
        <time>2022-05-01T12:07:23Z</time>
      </trkpt>
      <trkpt lat="43.6963" lon="3.85613">
        <ele>65.03</ele>
        <time>2022-05-01T12:07:26Z</time>
      </trkpt>
      <trkpt lat="43.69634" lon="3.85613">
        <ele>65.03</ele>
        <time>2022-05-01T12:07:27Z</time>
      </trkpt>
      <trkpt lat="43.69638" lon="3.85614">
        <ele>65.03</ele>
        <time>2022-05-01T12:07:28Z</time>
      </trkpt>
      <trkpt lat="43.69643" lon="3.85613">
        <ele>65.03</ele>
        <time>2022-05-01T12:07:29Z</time>
      </trkpt>
      <trkpt lat="43.69646" lon="3.85611">
        <ele>65.03</ele>
        <time>2022-05-01T12:07:30Z</time>
      </trkpt>
      <trkpt lat="43.69649" lon="3.85609">
        <ele>65.51</ele>
        <time>2022-05-01T12:07:31Z</time>
      </trkpt>
      <trkpt lat="43.6965" lon="3.85605">
        <ele>65.51</ele>
        <time>2022-05-01T12:07:32Z</time>
      </trkpt>
      <trkpt lat="43.69651" lon="3.85602">
        <ele>65.51</ele>
        <time>2022-05-01T12:07:33Z</time>
      </trkpt>
      <trkpt lat="43.69651" lon="3.85599">
        <ele>65.51</ele>
        <time>2022-05-01T12:07:34Z</time>
      </trkpt>
      <trkpt lat="43.69651" lon="3.85595">
        <ele>65.51</ele>
        <time>2022-05-01T12:07:35Z</time>
      </trkpt>
      <trkpt lat="43.6965" lon="3.85591">
        <ele>65.51</ele>
        <time>2022-05-01T12:07:36Z</time>
      </trkpt>
      <trkpt lat="43.69649" lon="3.85587">
        <ele>65.51</ele>
        <time>2022-05-01T12:07:37Z</time>
      </trkpt>
      <trkpt lat="43.69649" lon="3.85582">
        <ele>65.51</ele>
        <time>2022-05-01T12:07:38Z</time>
      </trkpt>
      <trkpt lat="43.69649" lon="3.85578">
        <ele>65.51</ele>
        <time>2022-05-01T12:07:39Z</time>
      </trkpt>
      <trkpt lat="43.6965" lon="3.85565">
        <ele>65.51</ele>
        <time>2022-05-01T12:07:42Z</time>
      </trkpt>
      <trkpt lat="43.69653" lon="3.85562">
        <ele>65.51</ele>
        <time>2022-05-01T12:07:43Z</time>
      </trkpt>
      <trkpt lat="43.69698" lon="3.85555">
        <ele>65.51</ele>
        <time>2022-05-01T12:07:56Z</time>
      </trkpt>
      <trkpt lat="43.6975" lon="3.85583">
        <ele>65.51</ele>
        <time>2022-05-01T12:08:11Z</time>
      </trkpt>
      <trkpt lat="43.6979" lon="3.85604">
        <ele>65.99</ele>
        <time>2022-05-01T12:08:22Z</time>
      </trkpt>
      <trkpt lat="43.69844" lon="3.85631">
        <ele>65.51</ele>
        <time>2022-05-01T12:08:38Z</time>
      </trkpt>
      <trkpt lat="43.69857" lon="3.8566">
        <ele>65.03</ele>
        <time>2022-05-01T12:08:48Z</time>
      </trkpt>
      <trkpt lat="43.69863" lon="3.85705">
        <ele>65.51</ele>
        <time>2022-05-01T12:08:58Z</time>
      </trkpt>
      <trkpt lat="43.69901" lon="3.85723">
        <ele>65.03</ele>
        <time>2022-05-01T12:09:10Z</time>
      </trkpt>
      <trkpt lat="43.69922" lon="3.85734">
        <ele>65.99</ele>
        <time>2022-05-01T12:09:17Z</time>
      </trkpt>
      <trkpt lat="43.69923" lon="3.85738">
        <ele>65.99</ele>
        <time>2022-05-01T12:09:18Z</time>
      </trkpt>
      <trkpt lat="43.69922" lon="3.85742">
        <ele>65.99</ele>
        <time>2022-05-01T12:09:19Z</time>
      </trkpt>
      <trkpt lat="43.69922" lon="3.85746">
        <ele>65.99</ele>
        <time>2022-05-01T12:09:20Z</time>
      </trkpt>
      <trkpt lat="43.69921" lon="3.8575">
        <ele>66.47</ele>
        <time>2022-05-01T12:09:21Z</time>
      </trkpt>
      <trkpt lat="43.6992" lon="3.85755">
        <ele>66.47</ele>
        <time>2022-05-01T12:09:22Z</time>
      </trkpt>
      <trkpt lat="43.6992" lon="3.85759">
        <ele>66.47</ele>
        <time>2022-05-01T12:09:23Z</time>
      </trkpt>
      <trkpt lat="43.69911" lon="3.85834">
        <ele>65.99</ele>
        <time>2022-05-01T12:09:38Z</time>
      </trkpt>
      <trkpt lat="43.69908" lon="3.85891">
        <ele>65.03</ele>
        <time>2022-05-01T12:09:49Z</time>
      </trkpt>
      <trkpt lat="43.6991" lon="3.85895">
        <ele>65.03</ele>
        <time>2022-05-01T12:09:50Z</time>
      </trkpt>
      <trkpt lat="43.69915" lon="3.85897">
        <ele>65.51</ele>
        <time>2022-05-01T12:09:52Z</time>
      </trkpt>
      <trkpt lat="43.69951" lon="3.85909">
        <ele>65.99</ele>
        <time>2022-05-01T12:10:04Z</time>
      </trkpt>
      <trkpt lat="43.6997" lon="3.85901">
        <ele>65.99</ele>
        <time>2022-05-01T12:10:10Z</time>
      </trkpt>
      <trkpt lat="43.70028" lon="3.85921">
        <ele>66.95</ele>
        <time>2022-05-01T12:10:27Z</time>
      </trkpt>
      <trkpt lat="43.70077" lon="3.85932">
        <ele>66.47</ele>
        <time>2022-05-01T12:10:40Z</time>
      </trkpt>
      <trkpt lat="43.70106" lon="3.8591">
        <ele>66.95</ele>
        <time>2022-05-01T12:10:50Z</time>
      </trkpt>
      <trkpt lat="43.70108" lon="3.85905">
        <ele>66.95</ele>
        <time>2022-05-01T12:10:51Z</time>
      </trkpt>
      <trkpt lat="43.70109" lon="3.85902">
        <ele>66.95</ele>
        <time>2022-05-01T12:10:52Z</time>
      </trkpt>
      <trkpt lat="43.70124" lon="3.85838">
        <ele>65.51</ele>
        <time>2022-05-01T12:11:06Z</time>
      </trkpt>
      <trkpt lat="43.70134" lon="3.85778">
        <ele>66.95</ele>
        <time>2022-05-01T12:11:19Z</time>
      </trkpt>
      <trkpt lat="43.70149" lon="3.8573">
        <ele>66.95</ele>
        <time>2022-05-01T12:11:30Z</time>
      </trkpt>
      <trkpt lat="43.70157" lon="3.85673">
        <ele>66.47</ele>
        <time>2022-05-01T12:11:41Z</time>
      </trkpt>
      <trkpt lat="43.70156" lon="3.85656">
        <ele>66.47</ele>
        <time>2022-05-01T12:11:44Z</time>
      </trkpt>
      <trkpt lat="43.70157" lon="3.8565">
        <ele>66.47</ele>
        <time>2022-05-01T12:11:45Z</time>
      </trkpt>
      <trkpt lat="43.70158" lon="3.85645">
        <ele>66.95</ele>
        <time>2022-05-01T12:11:46Z</time>
      </trkpt>
      <trkpt lat="43.70159" lon="3.85639">
        <ele>66.95</ele>
        <time>2022-05-01T12:11:47Z</time>
      </trkpt>
      <trkpt lat="43.70161" lon="3.85634">
        <ele>67.43</ele>
        <time>2022-05-01T12:11:48Z</time>
      </trkpt>
      <trkpt lat="43.70164" lon="3.85607">
        <ele>69.35</ele>
        <time>2022-05-01T12:11:53Z</time>
      </trkpt>
      <trkpt lat="43.70165" lon="3.85601">
        <ele>69.35</ele>
        <time>2022-05-01T12:11:54Z</time>
      </trkpt>
      <trkpt lat="43.70166" lon="3.8559">
        <ele>69.83</ele>
        <time>2022-05-01T12:11:56Z</time>
      </trkpt>
      <trkpt lat="43.70172" lon="3.85559">
        <ele>69.83</ele>
        <time>2022-05-01T12:12:01Z</time>
      </trkpt>
      <trkpt lat="43.7018" lon="3.85509">
        <ele>70.31</ele>
        <time>2022-05-01T12:12:09Z</time>
      </trkpt>
      <trkpt lat="43.70185" lon="3.85428">
        <ele>71.27</ele>
        <time>2022-05-01T12:12:23Z</time>
      </trkpt>
      <trkpt lat="43.70163" lon="3.85386">
        <ele>71.76</ele>
        <time>2022-05-01T12:12:34Z</time>
      </trkpt>
      <trkpt lat="43.70163" lon="3.85382">
        <ele>71.27</ele>
        <time>2022-05-01T12:12:35Z</time>
      </trkpt>
      <trkpt lat="43.70164" lon="3.8538">
        <ele>71.76</ele>
        <time>2022-05-01T12:12:36Z</time>
      </trkpt>
      <trkpt lat="43.70166" lon="3.85378">
        <ele>71.76</ele>
        <time>2022-05-01T12:12:37Z</time>
      </trkpt>
      <trkpt lat="43.70168" lon="3.85375">
        <ele>71.76</ele>
        <time>2022-05-01T12:12:38Z</time>
      </trkpt>
      <trkpt lat="43.7017" lon="3.85371">
        <ele>71.76</ele>
        <time>2022-05-01T12:12:39Z</time>
      </trkpt>
      <trkpt lat="43.70172" lon="3.8537">
        <ele>71.76</ele>
        <time>2022-05-01T12:12:40Z</time>
      </trkpt>
      <trkpt lat="43.70175" lon="3.85369">
        <ele>72.24</ele>
        <time>2022-05-01T12:12:41Z</time>
      </trkpt>
      <trkpt lat="43.70179" lon="3.85368">
        <ele>72.24</ele>
        <time>2022-05-01T12:12:42Z</time>
      </trkpt>
      <trkpt lat="43.70222" lon="3.8535">
        <ele>72.72</ele>
        <time>2022-05-01T12:12:55Z</time>
      </trkpt>
      <trkpt lat="43.70255" lon="3.85303">
        <ele>76.08</ele>
        <time>2022-05-01T12:13:09Z</time>
      </trkpt>
      <trkpt lat="43.70282" lon="3.85244">
        <ele>78</ele>
        <time>2022-05-01T12:13:24Z</time>
      </trkpt>
      <trkpt lat="43.70306" lon="3.8516">
        <ele>79.93</ele>
        <time>2022-05-01T12:13:42Z</time>
      </trkpt>
      <trkpt lat="43.70319" lon="3.85077">
        <ele>81.85</ele>
        <time>2022-05-01T12:13:59Z</time>
      </trkpt>
      <trkpt lat="43.70332" lon="3.85014">
        <ele>82.81</ele>
        <time>2022-05-01T12:14:13Z</time>
      </trkpt>
      <trkpt lat="43.70347" lon="3.84929">
        <ele>85.69</ele>
        <time>2022-05-01T12:14:32Z</time>
      </trkpt>
      <trkpt lat="43.7036" lon="3.84864">
        <ele>88.1</ele>
        <time>2022-05-01T12:14:48Z</time>
      </trkpt>
      <trkpt lat="43.70373" lon="3.84789">
        <ele>89.54</ele>
        <time>2022-05-01T12:15:06Z</time>
      </trkpt>
      <trkpt lat="43.70389" lon="3.84732">
        <ele>92.9</ele>
        <time>2022-05-01T12:15:21Z</time>
      </trkpt>
      <trkpt lat="43.70405" lon="3.84673">
        <ele>95.31</ele>
        <time>2022-05-01T12:15:36Z</time>
      </trkpt>
      <trkpt lat="43.7043" lon="3.84579">
        <ele>95.79</ele>
        <time>2022-05-01T12:15:56Z</time>
      </trkpt>
      <trkpt lat="43.70448" lon="3.84486">
        <ele>95.79</ele>
        <time>2022-05-01T12:16:13Z</time>
      </trkpt>
      <trkpt lat="43.70458" lon="3.84405">
        <ele>97.23</ele>
        <time>2022-05-01T12:16:30Z</time>
      </trkpt>
      <trkpt lat="43.70463" lon="3.84352">
        <ele>98.19</ele>
        <time>2022-05-01T12:16:41Z</time>
      </trkpt>
      <trkpt lat="43.70472" lon="3.84307">
        <ele>96.27</ele>
        <time>2022-05-01T12:16:47Z</time>
      </trkpt>
      <trkpt lat="43.70489" lon="3.84256">
        <ele>95.31</ele>
        <time>2022-05-01T12:16:54Z</time>
      </trkpt>
      <trkpt lat="43.70489" lon="3.84171">
        <ele>96.27</ele>
        <time>2022-05-01T12:17:07Z</time>
      </trkpt>
      <trkpt lat="43.70458" lon="3.84078">
        <ele>97.71</ele>
        <time>2022-05-01T12:17:22Z</time>
      </trkpt>
      <trkpt lat="43.70441" lon="3.83975">
        <ele>98.67</ele>
        <time>2022-05-01T12:17:38Z</time>
      </trkpt>
      <trkpt lat="43.70441" lon="3.83892">
        <ele>99.63</ele>
        <time>2022-05-01T12:17:51Z</time>
      </trkpt>
      <trkpt lat="43.70435" lon="3.83855">
        <ele>100.6</ele>
        <time>2022-05-01T12:17:57Z</time>
      </trkpt>
      <trkpt lat="43.70421" lon="3.83798">
        <ele>102.04</ele>
        <time>2022-05-01T12:18:07Z</time>
      </trkpt>
      <trkpt lat="43.7042" lon="3.83791">
        <ele>102.04</ele>
        <time>2022-05-01T12:18:08Z</time>
      </trkpt>
      <trkpt lat="43.70419" lon="3.83773">
        <ele>102.52</ele>
        <time>2022-05-01T12:18:11Z</time>
      </trkpt>
      <trkpt lat="43.70428" lon="3.83679">
        <ele>103.96</ele>
        <time>2022-05-01T12:18:28Z</time>
      </trkpt>
      <trkpt lat="43.70432" lon="3.83598">
        <ele>105.4</ele>
        <time>2022-05-01T12:18:44Z</time>
      </trkpt>
      <trkpt lat="43.70428" lon="3.83573">
        <ele>105.88</ele>
        <time>2022-05-01T12:18:50Z</time>
      </trkpt>
      <trkpt lat="43.70429" lon="3.83569">
        <ele>106.36</ele>
        <time>2022-05-01T12:18:51Z</time>
      </trkpt>
      <trkpt lat="43.70434" lon="3.83554">
        <ele>106.84</ele>
        <time>2022-05-01T12:18:55Z</time>
      </trkpt>
      <trkpt lat="43.70437" lon="3.83552">
        <ele>107.32</ele>
        <time>2022-05-01T12:18:56Z</time>
      </trkpt>
      <trkpt lat="43.70441" lon="3.83551">
        <ele>107.32</ele>
        <time>2022-05-01T12:18:57Z</time>
      </trkpt>
      <trkpt lat="43.70444" lon="3.83551">
        <ele>107.81</ele>
        <time>2022-05-01T12:18:58Z</time>
      </trkpt>
      <trkpt lat="43.70446" lon="3.8355">
        <ele>107.81</ele>
        <time>2022-05-01T12:18:59Z</time>
      </trkpt>
      <trkpt lat="43.70468" lon="3.83559">
        <ele>108.29</ele>
        <time>2022-05-01T12:19:07Z</time>
      </trkpt>
      <trkpt lat="43.70471" lon="3.83557">
        <ele>108.29</ele>
        <time>2022-05-01T12:19:08Z</time>
      </trkpt>
      <trkpt lat="43.70472" lon="3.83553">
        <ele>108.29</ele>
        <time>2022-05-01T12:19:09Z</time>
      </trkpt>
      <trkpt lat="43.70492" lon="3.83498">
        <ele>110.69</ele>
        <time>2022-05-01T12:19:24Z</time>
      </trkpt>
      <trkpt lat="43.70514" lon="3.83438">
        <ele>113.57</ele>
        <time>2022-05-01T12:19:40Z</time>
      </trkpt>
      <trkpt lat="43.70536" lon="3.83373">
        <ele>115.98</ele>
        <time>2022-05-01T12:19:56Z</time>
      </trkpt>
      <trkpt lat="43.70562" lon="3.83308">
        <ele>119.34</ele>
        <time>2022-05-01T12:20:13Z</time>
      </trkpt>
      <trkpt lat="43.70585" lon="3.83252">
        <ele>122.22</ele>
        <time>2022-05-01T12:20:29Z</time>
      </trkpt>
      <trkpt lat="43.7061" lon="3.83194">
        <ele>125.11</ele>
        <time>2022-05-01T12:20:46Z</time>
      </trkpt>
      <trkpt lat="43.70647" lon="3.8313">
        <ele>123.67</ele>
        <time>2022-05-01T12:21:02Z</time>
      </trkpt>
      <trkpt lat="43.70677" lon="3.83099">
        <ele>123.19</ele>
        <time>2022-05-01T12:21:11Z</time>
      </trkpt>
      <trkpt lat="43.70682" lon="3.83097">
        <ele>123.19</ele>
        <time>2022-05-01T12:21:12Z</time>
      </trkpt>
      <trkpt lat="43.70695" lon="3.83091">
        <ele>122.71</ele>
        <time>2022-05-01T12:21:15Z</time>
      </trkpt>
      <trkpt lat="43.70699" lon="3.83091">
        <ele>122.71</ele>
        <time>2022-05-01T12:21:16Z</time>
      </trkpt>
      <trkpt lat="43.70703" lon="3.8309">
        <ele>122.71</ele>
        <time>2022-05-01T12:21:17Z</time>
      </trkpt>
      <trkpt lat="43.70712" lon="3.83091">
        <ele>122.22</ele>
        <time>2022-05-01T12:21:19Z</time>
      </trkpt>
      <trkpt lat="43.70716" lon="3.83092">
        <ele>122.22</ele>
        <time>2022-05-01T12:21:20Z</time>
      </trkpt>
      <trkpt lat="43.70729" lon="3.83097">
        <ele>122.71</ele>
        <time>2022-05-01T12:21:24Z</time>
      </trkpt>
      <trkpt lat="43.70733" lon="3.83094">
        <ele>122.22</ele>
        <time>2022-05-01T12:21:26Z</time>
      </trkpt>
      <trkpt lat="43.70734" lon="3.83091">
        <ele>122.22</ele>
        <time>2022-05-01T12:21:27Z</time>
      </trkpt>
      <trkpt lat="43.70734" lon="3.83088">
        <ele>122.22</ele>
        <time>2022-05-01T12:21:28Z</time>
      </trkpt>
      <trkpt lat="43.70734" lon="3.83084">
        <ele>121.74</ele>
        <time>2022-05-01T12:21:29Z</time>
      </trkpt>
      <trkpt lat="43.70732" lon="3.83082">
        <ele>121.74</ele>
        <time>2022-05-01T12:21:30Z</time>
      </trkpt>
      <trkpt lat="43.70732" lon="3.8308">
        <ele>121.74</ele>
        <time>2022-05-01T12:21:31Z</time>
      </trkpt>
      <trkpt lat="43.70731" lon="3.83078">
        <ele>121.74</ele>
        <time>2022-05-01T12:21:32Z</time>
      </trkpt>
      <trkpt lat="43.7073" lon="3.83076">
        <ele>121.26</ele>
        <time>2022-05-01T12:21:46Z</time>
      </trkpt>
      <trkpt lat="43.70733" lon="3.83047">
        <ele>120.3</ele>
        <time>2022-05-01T12:21:57Z</time>
      </trkpt>
      <trkpt lat="43.70753" lon="3.82984">
        <ele>119.34</ele>
        <time>2022-05-01T12:22:09Z</time>
      </trkpt>
      <trkpt lat="43.70754" lon="3.82977">
        <ele>119.34</ele>
        <time>2022-05-01T12:22:10Z</time>
      </trkpt>
      <trkpt lat="43.70755" lon="3.8297">
        <ele>118.86</ele>
        <time>2022-05-01T12:22:11Z</time>
      </trkpt>
      <trkpt lat="43.70755" lon="3.82963">
        <ele>118.86</ele>
        <time>2022-05-01T12:22:12Z</time>
      </trkpt>
      <trkpt lat="43.70755" lon="3.82955">
        <ele>118.38</ele>
        <time>2022-05-01T12:22:13Z</time>
      </trkpt>
      <trkpt lat="43.70741" lon="3.82824">
        <ele>115.01</ele>
        <time>2022-05-01T12:22:29Z</time>
      </trkpt>
      <trkpt lat="43.70692" lon="3.82662">
        <ele>112.13</ele>
        <time>2022-05-01T12:22:48Z</time>
      </trkpt>
      <trkpt lat="43.70643" lon="3.82527">
        <ele>107.81</ele>
        <time>2022-05-01T12:23:04Z</time>
      </trkpt>
      <trkpt lat="43.70642" lon="3.82517">
        <ele>107.32</ele>
        <time>2022-05-01T12:23:05Z</time>
      </trkpt>
      <trkpt lat="43.70641" lon="3.82507">
        <ele>107.32</ele>
        <time>2022-05-01T12:23:06Z</time>
      </trkpt>
      <trkpt lat="43.70643" lon="3.82478">
        <ele>105.88</ele>
        <time>2022-05-01T12:23:09Z</time>
      </trkpt>
      <trkpt lat="43.70646" lon="3.82468">
        <ele>105.88</ele>
        <time>2022-05-01T12:23:10Z</time>
      </trkpt>
      <trkpt lat="43.70649" lon="3.82459">
        <ele>105.4</ele>
        <time>2022-05-01T12:23:11Z</time>
      </trkpt>
      <trkpt lat="43.70653" lon="3.82451">
        <ele>105.4</ele>
        <time>2022-05-01T12:23:12Z</time>
      </trkpt>
      <trkpt lat="43.70658" lon="3.82443">
        <ele>105.4</ele>
        <time>2022-05-01T12:23:13Z</time>
      </trkpt>
      <trkpt lat="43.70664" lon="3.82438">
        <ele>104.92</ele>
        <time>2022-05-01T12:23:14Z</time>
      </trkpt>
      <trkpt lat="43.70671" lon="3.82434">
        <ele>104.92</ele>
        <time>2022-05-01T12:23:15Z</time>
      </trkpt>
      <trkpt lat="43.70677" lon="3.82432">
        <ele>104.92</ele>
        <time>2022-05-01T12:23:16Z</time>
      </trkpt>
      <trkpt lat="43.7069" lon="3.82426">
        <ele>104.44</ele>
        <time>2022-05-01T12:23:18Z</time>
      </trkpt>
      <trkpt lat="43.70696" lon="3.82421">
        <ele>104.44</ele>
        <time>2022-05-01T12:23:19Z</time>
      </trkpt>
      <trkpt lat="43.70702" lon="3.82415">
        <ele>104.44</ele>
        <time>2022-05-01T12:23:20Z</time>
      </trkpt>
      <trkpt lat="43.70706" lon="3.82409">
        <ele>104.44</ele>
        <time>2022-05-01T12:23:21Z</time>
      </trkpt>
      <trkpt lat="43.70708" lon="3.82402">
        <ele>104.44</ele>
        <time>2022-05-01T12:23:22Z</time>
      </trkpt>
      <trkpt lat="43.7071" lon="3.82394">
        <ele>104.44</ele>
        <time>2022-05-01T12:23:23Z</time>
      </trkpt>
      <trkpt lat="43.7071" lon="3.82386">
        <ele>103.96</ele>
        <time>2022-05-01T12:23:24Z</time>
      </trkpt>
      <trkpt lat="43.7071" lon="3.82379">
        <ele>103.96</ele>
        <time>2022-05-01T12:23:25Z</time>
      </trkpt>
      <trkpt lat="43.70708" lon="3.82365">
        <ele>103.96</ele>
        <time>2022-05-01T12:23:27Z</time>
      </trkpt>
      <trkpt lat="43.70705" lon="3.82358">
        <ele>103.96</ele>
        <time>2022-05-01T12:23:28Z</time>
      </trkpt>
      <trkpt lat="43.70702" lon="3.82353">
        <ele>103.96</ele>
        <time>2022-05-01T12:23:29Z</time>
      </trkpt>
      <trkpt lat="43.70696" lon="3.82342">
        <ele>103.96</ele>
        <time>2022-05-01T12:23:31Z</time>
      </trkpt>
      <trkpt lat="43.70689" lon="3.82335">
        <ele>104.44</ele>
        <time>2022-05-01T12:23:33Z</time>
      </trkpt>
      <trkpt lat="43.7067" lon="3.82318">
        <ele>105.4</ele>
        <time>2022-05-01T12:23:38Z</time>
      </trkpt>
      <trkpt lat="43.70638" lon="3.82276">
        <ele>106.36</ele>
        <time>2022-05-01T12:23:48Z</time>
      </trkpt>
      <trkpt lat="43.70578" lon="3.82228">
        <ele>106.36</ele>
        <time>2022-05-01T12:24:04Z</time>
      </trkpt>
      <trkpt lat="43.70519" lon="3.82178">
        <ele>108.29</ele>
        <time>2022-05-01T12:24:22Z</time>
      </trkpt>
      <trkpt lat="43.70485" lon="3.82146">
        <ele>109.73</ele>
        <time>2022-05-01T12:24:35Z</time>
      </trkpt>
      <trkpt lat="43.70442" lon="3.82108">
        <ele>110.21</ele>
        <time>2022-05-01T12:24:50Z</time>
      </trkpt>
      <trkpt lat="43.7038" lon="3.82083">
        <ele>109.73</ele>
        <time>2022-05-01T12:25:08Z</time>
      </trkpt>
      <trkpt lat="43.70324" lon="3.82048">
        <ele>109.73</ele>
        <time>2022-05-01T12:25:24Z</time>
      </trkpt>
      <trkpt lat="43.70273" lon="3.81994">
        <ele>111.17</ele>
        <time>2022-05-01T12:25:42Z</time>
      </trkpt>
      <trkpt lat="43.70271" lon="3.81994">
        <ele>111.17</ele>
        <time>2022-05-01T12:25:43Z</time>
      </trkpt>
      <trkpt lat="43.70252" lon="3.82007">
        <ele>113.57</ele>
        <time>2022-05-01T12:25:54Z</time>
      </trkpt>
      <trkpt lat="43.70249" lon="3.8201">
        <ele>114.05</ele>
        <time>2022-05-01T12:26:04Z</time>
      </trkpt>
      <trkpt lat="43.70248" lon="3.82011">
        <ele>115.01</ele>
        <time>2022-05-01T12:26:23Z</time>
      </trkpt>
      <trkpt lat="43.70243" lon="3.82013">
        <ele>114.53</ele>
        <time>2022-05-01T12:26:35Z</time>
      </trkpt>
      <trkpt lat="43.70208" lon="3.82042">
        <ele>113.57</ele>
        <time>2022-05-01T12:26:48Z</time>
      </trkpt>
      <trkpt lat="43.70197" lon="3.82052">
        <ele>113.57</ele>
        <time>2022-05-01T12:26:51Z</time>
      </trkpt>
      <trkpt lat="43.70141" lon="3.82104">
        <ele>113.57</ele>
        <time>2022-05-01T12:27:07Z</time>
      </trkpt>
      <trkpt lat="43.70079" lon="3.8219">
        <ele>113.57</ele>
        <time>2022-05-01T12:27:27Z</time>
      </trkpt>
      <trkpt lat="43.70025" lon="3.82296">
        <ele>115.98</ele>
        <time>2022-05-01T12:27:49Z</time>
      </trkpt>
      <trkpt lat="43.69979" lon="3.82388">
        <ele>115.01</ele>
        <time>2022-05-01T12:28:07Z</time>
      </trkpt>
      <trkpt lat="43.69967" lon="3.8241">
        <ele>114.53</ele>
        <time>2022-05-01T12:28:11Z</time>
      </trkpt>
      <trkpt lat="43.69898" lon="3.82512">
        <ele>113.57</ele>
        <time>2022-05-01T12:28:31Z</time>
      </trkpt>
      <trkpt lat="43.69871" lon="3.82546">
        <ele>116.94</ele>
        <time>2022-05-01T12:28:42Z</time>
      </trkpt>
      <trkpt lat="43.69844" lon="3.8258">
        <ele>120.78</ele>
        <time>2022-05-01T12:28:56Z</time>
      </trkpt>
      <trkpt lat="43.6978" lon="3.82622">
        <ele>121.74</ele>
        <time>2022-05-01T12:29:18Z</time>
      </trkpt>
      <trkpt lat="43.6971" lon="3.8265">
        <ele>117.42</ele>
        <time>2022-05-01T12:29:35Z</time>
      </trkpt>
      <trkpt lat="43.69625" lon="3.82682">
        <ele>112.13</ele>
        <time>2022-05-01T12:29:48Z</time>
      </trkpt>
      <trkpt lat="43.69617" lon="3.82683">
        <ele>111.65</ele>
        <time>2022-05-01T12:29:49Z</time>
      </trkpt>
      <trkpt lat="43.69609" lon="3.82684">
        <ele>111.17</ele>
        <time>2022-05-01T12:29:50Z</time>
      </trkpt>
      <trkpt lat="43.6956" lon="3.82681">
        <ele>110.69</ele>
        <time>2022-05-01T12:29:59Z</time>
      </trkpt>
      <trkpt lat="43.69551" lon="3.82682">
        <ele>110.69</ele>
        <time>2022-05-01T12:30:01Z</time>
      </trkpt>
      <trkpt lat="43.69542" lon="3.82685">
        <ele>110.69</ele>
        <time>2022-05-01T12:30:03Z</time>
      </trkpt>
      <trkpt lat="43.69464" lon="3.82703">
        <ele>109.25</ele>
        <time>2022-05-01T12:30:18Z</time>
      </trkpt>
      <trkpt lat="43.69438" lon="3.8271">
        <ele>108.29</ele>
        <time>2022-05-01T12:30:22Z</time>
      </trkpt>
      <trkpt lat="43.69432" lon="3.82713">
        <ele>107.81</ele>
        <time>2022-05-01T12:30:23Z</time>
      </trkpt>
      <trkpt lat="43.69426" lon="3.82717">
        <ele>107.81</ele>
        <time>2022-05-01T12:30:24Z</time>
      </trkpt>
      <trkpt lat="43.69398" lon="3.82738">
        <ele>106.84</ele>
        <time>2022-05-01T12:30:29Z</time>
      </trkpt>
      <trkpt lat="43.69392" lon="3.8274">
        <ele>106.36</ele>
        <time>2022-05-01T12:30:30Z</time>
      </trkpt>
      <trkpt lat="43.69305" lon="3.82766">
        <ele>103.48</ele>
        <time>2022-05-01T12:30:46Z</time>
      </trkpt>
      <trkpt lat="43.69252" lon="3.82768">
        <ele>104.44</ele>
        <time>2022-05-01T12:30:56Z</time>
      </trkpt>
      <trkpt lat="43.69161" lon="3.82783">
        <ele>104.92</ele>
        <time>2022-05-01T12:31:17Z</time>
      </trkpt>
      <trkpt lat="43.69092" lon="3.82789">
        <ele>104.44</ele>
        <time>2022-05-01T12:31:33Z</time>
      </trkpt>
      <trkpt lat="43.69012" lon="3.82797">
        <ele>103.48</ele>
        <time>2022-05-01T12:31:50Z</time>
      </trkpt>
      <trkpt lat="43.68959" lon="3.82801">
        <ele>103</ele>
        <time>2022-05-01T12:32:01Z</time>
      </trkpt>
      <trkpt lat="43.68954" lon="3.828">
        <ele>103</ele>
        <time>2022-05-01T12:32:02Z</time>
      </trkpt>
      <trkpt lat="43.68926" lon="3.82789">
        <ele>103</ele>
        <time>2022-05-01T12:32:08Z</time>
      </trkpt>
      <trkpt lat="43.68912" lon="3.82791">
        <ele>103</ele>
        <time>2022-05-01T12:32:11Z</time>
      </trkpt>
      <trkpt lat="43.68855" lon="3.82812">
        <ele>102.52</ele>
        <time>2022-05-01T12:32:23Z</time>
      </trkpt>
      <trkpt lat="43.68849" lon="3.82813">
        <ele>102.52</ele>
        <time>2022-05-01T12:32:24Z</time>
      </trkpt>
      <trkpt lat="43.68843" lon="3.82813">
        <ele>102.04</ele>
        <time>2022-05-01T12:32:25Z</time>
      </trkpt>
      <trkpt lat="43.68837" lon="3.82812">
        <ele>102.04</ele>
        <time>2022-05-01T12:32:26Z</time>
      </trkpt>
      <trkpt lat="43.68832" lon="3.8281">
        <ele>102.04</ele>
        <time>2022-05-01T12:32:27Z</time>
      </trkpt>
      <trkpt lat="43.68754" lon="3.82812">
        <ele>101.08</ele>
        <time>2022-05-01T12:32:41Z</time>
      </trkpt>
      <trkpt lat="43.68648" lon="3.82827">
        <ele>100.6</ele>
        <time>2022-05-01T12:33:00Z</time>
      </trkpt>
      <trkpt lat="43.68611" lon="3.8284">
        <ele>100.6</ele>
        <time>2022-05-01T12:33:07Z</time>
      </trkpt>
      <trkpt lat="43.68597" lon="3.82848">
        <ele>100.11</ele>
        <time>2022-05-01T12:33:10Z</time>
      </trkpt>
      <trkpt lat="43.68593" lon="3.82847">
        <ele>99.63</ele>
        <time>2022-05-01T12:33:11Z</time>
      </trkpt>
      <trkpt lat="43.68585" lon="3.82843">
        <ele>99.63</ele>
        <time>2022-05-01T12:33:13Z</time>
      </trkpt>
      <trkpt lat="43.68581" lon="3.82839">
        <ele>99.63</ele>
        <time>2022-05-01T12:33:14Z</time>
      </trkpt>
      <trkpt lat="43.6858" lon="3.82833">
        <ele>99.63</ele>
        <time>2022-05-01T12:33:15Z</time>
      </trkpt>
      <trkpt lat="43.68581" lon="3.82827">
        <ele>100.11</ele>
        <time>2022-05-01T12:33:16Z</time>
      </trkpt>
      <trkpt lat="43.68584" lon="3.8282">
        <ele>100.11</ele>
        <time>2022-05-01T12:33:17Z</time>
      </trkpt>
      <trkpt lat="43.68585" lon="3.82816">
        <ele>100.6</ele>
        <time>2022-05-01T12:33:18Z</time>
      </trkpt>
      <trkpt lat="43.68586" lon="3.8281">
        <ele>100.6</ele>
        <time>2022-05-01T12:33:19Z</time>
      </trkpt>
      <trkpt lat="43.68584" lon="3.82749">
        <ele>101.56</ele>
        <time>2022-05-01T12:33:31Z</time>
      </trkpt>
      <trkpt lat="43.68574" lon="3.82713">
        <ele>101.56</ele>
        <time>2022-05-01T12:33:40Z</time>
      </trkpt>
      <trkpt lat="43.68573" lon="3.82712">
        <ele>101.56</ele>
        <time>2022-05-01T12:33:41Z</time>
      </trkpt>
      <trkpt lat="43.68572" lon="3.8271">
        <ele>101.56</ele>
        <time>2022-05-01T12:33:42Z</time>
      </trkpt>
      <trkpt lat="43.6857" lon="3.82709">
        <ele>101.56</ele>
        <time>2022-05-01T12:33:43Z</time>
      </trkpt>
      <trkpt lat="43.68566" lon="3.82709">
        <ele>101.08</ele>
        <time>2022-05-01T12:33:44Z</time>
      </trkpt>
      <trkpt lat="43.68557" lon="3.82704">
        <ele>100.6</ele>
        <time>2022-05-01T12:33:47Z</time>
      </trkpt>
      <trkpt lat="43.68557" lon="3.82701">
        <ele>100.6</ele>
        <time>2022-05-01T12:33:48Z</time>
      </trkpt>
      <trkpt lat="43.68557" lon="3.82697">
        <ele>100.6</ele>
        <time>2022-05-01T12:33:49Z</time>
      </trkpt>
      <trkpt lat="43.68559" lon="3.82693">
        <ele>100.11</ele>
        <time>2022-05-01T12:33:50Z</time>
      </trkpt>
      <trkpt lat="43.68561" lon="3.82689">
        <ele>100.11</ele>
        <time>2022-05-01T12:33:51Z</time>
      </trkpt>
      <trkpt lat="43.68564" lon="3.82685">
        <ele>100.11</ele>
        <time>2022-05-01T12:33:52Z</time>
      </trkpt>
      <trkpt lat="43.68613" lon="3.82627">
        <ele>100.6</ele>
        <time>2022-05-01T12:34:10Z</time>
      </trkpt>
      <trkpt lat="43.6862" lon="3.8262">
        <ele>100.6</ele>
        <time>2022-05-01T12:34:12Z</time>
      </trkpt>
      <trkpt lat="43.68669" lon="3.82539">
        <ele>100.6</ele>
        <time>2022-05-01T12:34:30Z</time>
      </trkpt>
      <trkpt lat="43.68728" lon="3.82437">
        <ele>101.56</ele>
        <time>2022-05-01T12:34:52Z</time>
      </trkpt>
      <trkpt lat="43.68748" lon="3.82403">
        <ele>103</ele>
        <time>2022-05-01T12:35:01Z</time>
      </trkpt>
      <trkpt lat="43.68729" lon="3.8237">
        <ele>103</ele>
        <time>2022-05-01T12:35:12Z</time>
      </trkpt>
      <trkpt lat="43.68706" lon="3.82348">
        <ele>103</ele>
        <time>2022-05-01T12:35:19Z</time>
      </trkpt>
      <trkpt lat="43.68664" lon="3.8232">
        <ele>102.04</ele>
        <time>2022-05-01T12:35:30Z</time>
      </trkpt>
      <trkpt lat="43.68659" lon="3.82318">
        <ele>102.04</ele>
        <time>2022-05-01T12:35:31Z</time>
      </trkpt>
      <trkpt lat="43.68632" lon="3.82307">
        <ele>101.56</ele>
        <time>2022-05-01T12:35:37Z</time>
      </trkpt>
      <trkpt lat="43.68623" lon="3.82305">
        <ele>101.08</ele>
        <time>2022-05-01T12:35:39Z</time>
      </trkpt>
      <trkpt lat="43.68523" lon="3.82267">
        <ele>99.63</ele>
        <time>2022-05-01T12:36:00Z</time>
      </trkpt>
      <trkpt lat="43.68461" lon="3.82246">
        <ele>98.67</ele>
        <time>2022-05-01T12:36:14Z</time>
      </trkpt>
      <trkpt lat="43.68374" lon="3.82227">
        <ele>98.67</ele>
        <time>2022-05-01T12:36:33Z</time>
      </trkpt>
      <trkpt lat="43.6837" lon="3.82226">
        <ele>98.67</ele>
        <time>2022-05-01T12:36:34Z</time>
      </trkpt>
      <trkpt lat="43.68366" lon="3.82226">
        <ele>98.67</ele>
        <time>2022-05-01T12:36:35Z</time>
      </trkpt>
      <trkpt lat="43.68317" lon="3.82216">
        <ele>99.63</ele>
        <time>2022-05-01T12:36:47Z</time>
      </trkpt>
      <trkpt lat="43.68313" lon="3.82215">
        <ele>99.63</ele>
        <time>2022-05-01T12:36:48Z</time>
      </trkpt>
      <trkpt lat="43.68248" lon="3.82208">
        <ele>101.56</ele>
        <time>2022-05-01T12:37:04Z</time>
      </trkpt>
      <trkpt lat="43.68189" lon="3.82199">
        <ele>103.48</ele>
        <time>2022-05-01T12:37:20Z</time>
      </trkpt>
      <trkpt lat="43.68134" lon="3.82195">
        <ele>103.48</ele>
        <time>2022-05-01T12:37:35Z</time>
      </trkpt>
      <trkpt lat="43.68082" lon="3.8219">
        <ele>103</ele>
        <time>2022-05-01T12:37:49Z</time>
      </trkpt>
      <trkpt lat="43.68028" lon="3.82184">
        <ele>103.96</ele>
        <time>2022-05-01T12:38:04Z</time>
      </trkpt>
      <trkpt lat="43.67979" lon="3.8218">
        <ele>106.84</ele>
        <time>2022-05-01T12:38:19Z</time>
      </trkpt>
      <trkpt lat="43.67956" lon="3.82169">
        <ele>108.77</ele>
        <time>2022-05-01T12:38:29Z</time>
      </trkpt>
      <trkpt lat="43.67955" lon="3.82166">
        <ele>108.77</ele>
        <time>2022-05-01T12:38:30Z</time>
      </trkpt>
      <trkpt lat="43.67955" lon="3.82164">
        <ele>108.29</ele>
        <time>2022-05-01T12:38:31Z</time>
      </trkpt>
      <trkpt lat="43.67953" lon="3.82129">
        <ele>107.81</ele>
        <time>2022-05-01T12:38:42Z</time>
      </trkpt>
      <trkpt lat="43.67957" lon="3.82054">
        <ele>107.32</ele>
        <time>2022-05-01T12:38:58Z</time>
      </trkpt>
      <trkpt lat="43.67965" lon="3.82003">
        <ele>107.81</ele>
        <time>2022-05-01T12:39:10Z</time>
      </trkpt>
      <trkpt lat="43.67965" lon="3.81998">
        <ele>107.81</ele>
        <time>2022-05-01T12:39:11Z</time>
      </trkpt>
      <trkpt lat="43.67965" lon="3.81994">
        <ele>107.81</ele>
        <time>2022-05-01T12:39:12Z</time>
      </trkpt>
      <trkpt lat="43.67964" lon="3.8199">
        <ele>107.81</ele>
        <time>2022-05-01T12:39:13Z</time>
      </trkpt>
      <trkpt lat="43.67962" lon="3.81987">
        <ele>108.29</ele>
        <time>2022-05-01T12:39:14Z</time>
      </trkpt>
      <trkpt lat="43.67959" lon="3.81985">
        <ele>108.29</ele>
        <time>2022-05-01T12:39:15Z</time>
      </trkpt>
      <trkpt lat="43.67957" lon="3.81983">
        <ele>108.29</ele>
        <time>2022-05-01T12:39:16Z</time>
      </trkpt>
      <trkpt lat="43.67955" lon="3.81979">
        <ele>108.77</ele>
        <time>2022-05-01T12:39:17Z</time>
      </trkpt>
      <trkpt lat="43.67953" lon="3.81976">
        <ele>108.77</ele>
        <time>2022-05-01T12:39:18Z</time>
      </trkpt>
      <trkpt lat="43.67921" lon="3.81927">
        <ele>109.73</ele>
        <time>2022-05-01T12:39:34Z</time>
      </trkpt>
      <trkpt lat="43.67899" lon="3.81875">
        <ele>112.13</ele>
        <time>2022-05-01T12:39:49Z</time>
      </trkpt>
      <trkpt lat="43.67863" lon="3.81818">
        <ele>114.05</ele>
        <time>2022-05-01T12:40:07Z</time>
      </trkpt>
      <trkpt lat="43.6781" lon="3.81776">
        <ele>116.94</ele>
        <time>2022-05-01T12:40:28Z</time>
      </trkpt>
      <trkpt lat="43.67766" lon="3.81759">
        <ele>120.78</ele>
        <time>2022-05-01T12:40:46Z</time>
      </trkpt>
      <trkpt lat="43.67754" lon="3.81743">
        <ele>121.26</ele>
        <time>2022-05-01T12:40:52Z</time>
      </trkpt>
      <trkpt lat="43.67752" lon="3.81743">
        <ele>121.74</ele>
        <time>2022-05-01T12:40:53Z</time>
      </trkpt>
      <trkpt lat="43.67749" lon="3.81744">
        <ele>121.74</ele>
        <time>2022-05-01T12:40:54Z</time>
      </trkpt>
      <trkpt lat="43.67747" lon="3.81745">
        <ele>121.74</ele>
        <time>2022-05-01T12:40:55Z</time>
      </trkpt>
      <trkpt lat="43.67744" lon="3.81747">
        <ele>121.74</ele>
        <time>2022-05-01T12:40:56Z</time>
      </trkpt>
      <trkpt lat="43.67713" lon="3.81745">
        <ele>122.22</ele>
        <time>2022-05-01T12:41:08Z</time>
      </trkpt>
      <trkpt lat="43.6767" lon="3.8177">
        <ele>123.19</ele>
        <time>2022-05-01T12:41:25Z</time>
      </trkpt>
      <trkpt lat="43.67649" lon="3.8182">
        <ele>123.19</ele>
        <time>2022-05-01T12:41:40Z</time>
      </trkpt>
      <trkpt lat="43.67628" lon="3.81832">
        <ele>122.71</ele>
        <time>2022-05-01T12:41:50Z</time>
      </trkpt>
      <trkpt lat="43.67617" lon="3.81824">
        <ele>123.19</ele>
        <time>2022-05-01T12:41:55Z</time>
      </trkpt>
      <trkpt lat="43.67615" lon="3.81822">
        <ele>123.19</ele>
        <time>2022-05-01T12:41:56Z</time>
      </trkpt>
      <trkpt lat="43.67613" lon="3.81819">
        <ele>123.67</ele>
        <time>2022-05-01T12:41:57Z</time>
      </trkpt>
      <trkpt lat="43.67611" lon="3.81817">
        <ele>123.67</ele>
        <time>2022-05-01T12:41:58Z</time>
      </trkpt>
      <trkpt lat="43.67609" lon="3.81815">
        <ele>123.67</ele>
        <time>2022-05-01T12:41:59Z</time>
      </trkpt>
      <trkpt lat="43.67607" lon="3.81814">
        <ele>123.67</ele>
        <time>2022-05-01T12:42:00Z</time>
      </trkpt>
      <trkpt lat="43.67576" lon="3.81814">
        <ele>124.63</ele>
        <time>2022-05-01T12:42:16Z</time>
      </trkpt>
      <trkpt lat="43.6754" lon="3.8184">
        <ele>124.63</ele>
        <time>2022-05-01T12:42:30Z</time>
      </trkpt>
      <trkpt lat="43.67529" lon="3.81841">
        <ele>124.15</ele>
        <time>2022-05-01T12:42:35Z</time>
      </trkpt>
      <trkpt lat="43.67527" lon="3.8184">
        <ele>124.15</ele>
        <time>2022-05-01T12:42:36Z</time>
      </trkpt>
      <trkpt lat="43.67526" lon="3.81838">
        <ele>124.15</ele>
        <time>2022-05-01T12:42:37Z</time>
      </trkpt>
      <trkpt lat="43.67524" lon="3.81836">
        <ele>124.15</ele>
        <time>2022-05-01T12:42:38Z</time>
      </trkpt>
      <trkpt lat="43.67523" lon="3.81833">
        <ele>124.15</ele>
        <time>2022-05-01T12:42:39Z</time>
      </trkpt>
      <trkpt lat="43.67521" lon="3.81829">
        <ele>123.67</ele>
        <time>2022-05-01T12:42:40Z</time>
      </trkpt>
      <trkpt lat="43.67508" lon="3.81809">
        <ele>122.22</ele>
        <time>2022-05-01T12:42:45Z</time>
      </trkpt>
      <trkpt lat="43.67504" lon="3.81805">
        <ele>122.22</ele>
        <time>2022-05-01T12:42:46Z</time>
      </trkpt>
      <trkpt lat="43.67427" lon="3.81744">
        <ele>117.42</ele>
        <time>2022-05-01T12:43:04Z</time>
      </trkpt>
      <trkpt lat="43.674" lon="3.81734">
        <ele>116.94</ele>
        <time>2022-05-01T12:43:13Z</time>
      </trkpt>
      <trkpt lat="43.67401" lon="3.81731">
        <ele>116.94</ele>
        <time>2022-05-01T12:43:22Z</time>
      </trkpt>
      <trkpt lat="43.67402" lon="3.81732">
        <ele>116.46</ele>
        <time>2022-05-01T12:43:33Z</time>
      </trkpt>
      <trkpt lat="43.67402" lon="3.8173">
        <ele>116.94</ele>
        <time>2022-05-01T12:43:48Z</time>
      </trkpt>
      <trkpt lat="43.67402" lon="3.8173">
        <ele>118.38</ele>
        <time>2022-05-01T12:44:11Z</time>
      </trkpt>
      <trkpt lat="43.67401" lon="3.81729">
        <ele>119.34</ele>
        <time>2022-05-01T12:44:25Z</time>
      </trkpt>
      <trkpt lat="43.67401" lon="3.81729">
        <ele>119.82</ele>
        <time>2022-05-01T12:44:41Z</time>
      </trkpt>
      <trkpt lat="43.67396" lon="3.81725">
        <ele>119.34</ele>
        <time>2022-05-01T12:44:52Z</time>
      </trkpt>
      <trkpt lat="43.67396" lon="3.81725">
        <ele>119.34</ele>
        <time>2022-05-01T12:45:12Z</time>
      </trkpt>
      <trkpt lat="43.67394" lon="3.81725">
        <ele>118.86</ele>
        <time>2022-05-01T12:45:31Z</time>
      </trkpt>
      <trkpt lat="43.67393" lon="3.81725">
        <ele>118.86</ele>
        <time>2022-05-01T12:45:51Z</time>
      </trkpt>
      <trkpt lat="43.67392" lon="3.81726">
        <ele>118.86</ele>
        <time>2022-05-01T12:45:52Z</time>
      </trkpt>
      <trkpt lat="43.67391" lon="3.81727">
        <ele>118.86</ele>
        <time>2022-05-01T12:45:53Z</time>
      </trkpt>
      <trkpt lat="43.6739" lon="3.81728">
        <ele>118.86</ele>
        <time>2022-05-01T12:45:54Z</time>
      </trkpt>
      <trkpt lat="43.67388" lon="3.81728">
        <ele>118.86</ele>
        <time>2022-05-01T12:45:55Z</time>
      </trkpt>
      <trkpt lat="43.67387" lon="3.81729">
        <ele>118.86</ele>
        <time>2022-05-01T12:45:56Z</time>
      </trkpt>
      <trkpt lat="43.67357" lon="3.81742">
        <ele>119.34</ele>
        <time>2022-05-01T12:46:12Z</time>
      </trkpt>
      <trkpt lat="43.67331" lon="3.81775">
        <ele>121.74</ele>
        <time>2022-05-01T12:46:27Z</time>
      </trkpt>
      <trkpt lat="43.67314" lon="3.81808">
        <ele>124.15</ele>
        <time>2022-05-01T12:46:40Z</time>
      </trkpt>
      <trkpt lat="43.67297" lon="3.81849">
        <ele>127.99</ele>
        <time>2022-05-01T12:46:55Z</time>
      </trkpt>
      <trkpt lat="43.6728" lon="3.81885">
        <ele>130.4</ele>
        <time>2022-05-01T12:47:09Z</time>
      </trkpt>
      <trkpt lat="43.67253" lon="3.81939">
        <ele>133.28</ele>
        <time>2022-05-01T12:47:30Z</time>
      </trkpt>
      <trkpt lat="43.67229" lon="3.81985">
        <ele>135.2</ele>
        <time>2022-05-01T12:47:48Z</time>
      </trkpt>
      <trkpt lat="43.67204" lon="3.82025">
        <ele>136.16</ele>
        <time>2022-05-01T12:48:03Z</time>
      </trkpt>
      <trkpt lat="43.67183" lon="3.82054">
        <ele>135.2</ele>
        <time>2022-05-01T12:48:11Z</time>
      </trkpt>
      <trkpt lat="43.67157" lon="3.82092">
        <ele>133.76</ele>
        <time>2022-05-01T12:48:19Z</time>
      </trkpt>
      <trkpt lat="43.67139" lon="3.82114">
        <ele>131.84</ele>
        <time>2022-05-01T12:48:28Z</time>
      </trkpt>
      <trkpt lat="43.67138" lon="3.82115">
        <ele>132.32</ele>
        <time>2022-05-01T12:48:29Z</time>
      </trkpt>
      <trkpt lat="43.67112" lon="3.82157">
        <ele>130.88</ele>
        <time>2022-05-01T12:48:41Z</time>
      </trkpt>
      <trkpt lat="43.67107" lon="3.82162">
        <ele>130.88</ele>
        <time>2022-05-01T12:48:43Z</time>
      </trkpt>
      <trkpt lat="43.67104" lon="3.82163">
        <ele>130.88</ele>
        <time>2022-05-01T12:48:44Z</time>
      </trkpt>
      <trkpt lat="43.67102" lon="3.82161">
        <ele>130.4</ele>
        <time>2022-05-01T12:48:45Z</time>
      </trkpt>
      <trkpt lat="43.671" lon="3.8216">
        <ele>130.4</ele>
        <time>2022-05-01T12:48:46Z</time>
      </trkpt>
      <trkpt lat="43.67099" lon="3.82158">
        <ele>130.4</ele>
        <time>2022-05-01T12:48:47Z</time>
      </trkpt>
      <trkpt lat="43.67096" lon="3.82156">
        <ele>129.92</ele>
        <time>2022-05-01T12:49:03Z</time>
      </trkpt>
      <trkpt lat="43.67095" lon="3.82159">
        <ele>131.84</ele>
        <time>2022-05-01T12:49:32Z</time>
      </trkpt>
      <trkpt lat="43.67096" lon="3.82156">
        <ele>134.72</ele>
        <time>2022-05-01T12:49:55Z</time>
      </trkpt>
      <trkpt lat="43.67098" lon="3.82156">
        <ele>134.24</ele>
        <time>2022-05-01T12:50:12Z</time>
      </trkpt>
      <trkpt lat="43.67077" lon="3.82144">
        <ele>132.8</ele>
        <time>2022-05-01T12:50:23Z</time>
      </trkpt>
      <trkpt lat="43.67042" lon="3.82141">
        <ele>135.2</ele>
        <time>2022-05-01T12:50:38Z</time>
      </trkpt>
      <trkpt lat="43.67009" lon="3.82137">
        <ele>138.09</ele>
        <time>2022-05-01T12:50:51Z</time>
      </trkpt>
      <trkpt lat="43.66978" lon="3.82113">
        <ele>139.53</ele>
        <time>2022-05-01T12:51:04Z</time>
      </trkpt>
      <trkpt lat="43.66949" lon="3.82084">
        <ele>141.45</ele>
        <time>2022-05-01T12:51:19Z</time>
      </trkpt>
      <trkpt lat="43.66927" lon="3.82053">
        <ele>142.41</ele>
        <time>2022-05-01T12:51:33Z</time>
      </trkpt>
      <trkpt lat="43.66906" lon="3.82019">
        <ele>144.34</ele>
        <time>2022-05-01T12:51:47Z</time>
      </trkpt>
      <trkpt lat="43.6688" lon="3.81973">
        <ele>146.74</ele>
        <time>2022-05-01T12:52:04Z</time>
      </trkpt>
      <trkpt lat="43.66868" lon="3.81939">
        <ele>147.22</ele>
        <time>2022-05-01T12:52:16Z</time>
      </trkpt>
      <trkpt lat="43.66869" lon="3.81934">
        <ele>148.18</ele>
        <time>2022-05-01T12:52:31Z</time>
      </trkpt>
      <trkpt lat="43.66859" lon="3.81912">
        <ele>149.62</ele>
        <time>2022-05-01T12:52:41Z</time>
      </trkpt>
      <trkpt lat="43.66838" lon="3.81853">
        <ele>152.03</ele>
        <time>2022-05-01T12:52:55Z</time>
      </trkpt>
      <trkpt lat="43.66818" lon="3.81785">
        <ele>151.06</ele>
        <time>2022-05-01T12:53:10Z</time>
      </trkpt>
      <trkpt lat="43.66795" lon="3.81714">
        <ele>150.1</ele>
        <time>2022-05-01T12:53:24Z</time>
      </trkpt>
      <trkpt lat="43.66779" lon="3.81658">
        <ele>149.14</ele>
        <time>2022-05-01T12:53:37Z</time>
      </trkpt>
      <trkpt lat="43.66767" lon="3.8161">
        <ele>146.74</ele>
        <time>2022-05-01T12:53:45Z</time>
      </trkpt>
      <trkpt lat="43.66765" lon="3.81605">
        <ele>146.74</ele>
        <time>2022-05-01T12:53:46Z</time>
      </trkpt>
      <trkpt lat="43.66763" lon="3.81599">
        <ele>146.26</ele>
        <time>2022-05-01T12:53:47Z</time>
      </trkpt>
      <trkpt lat="43.66714" lon="3.81533">
        <ele>146.26</ele>
        <time>2022-05-01T12:54:03Z</time>
      </trkpt>
      <trkpt lat="43.66676" lon="3.81448">
        <ele>142.89</ele>
        <time>2022-05-01T12:54:16Z</time>
      </trkpt>
      <trkpt lat="43.66674" lon="3.81427">
        <ele>141.93</ele>
        <time>2022-05-01T12:54:18Z</time>
      </trkpt>
      <trkpt lat="43.66673" lon="3.81416">
        <ele>141.45</ele>
        <time>2022-05-01T12:54:19Z</time>
      </trkpt>
      <trkpt lat="43.66674" lon="3.81405">
        <ele>140.97</ele>
        <time>2022-05-01T12:54:20Z</time>
      </trkpt>
      <trkpt lat="43.66687" lon="3.8135">
        <ele>142.89</ele>
        <time>2022-05-01T12:54:29Z</time>
      </trkpt>
      <trkpt lat="43.66706" lon="3.81298">
        <ele>145.3</ele>
        <time>2022-05-01T12:54:42Z</time>
      </trkpt>
      <trkpt lat="43.66748" lon="3.81238">
        <ele>143.85</ele>
        <time>2022-05-01T12:54:57Z</time>
      </trkpt>
      <trkpt lat="43.66749" lon="3.81228">
        <ele>144.34</ele>
        <time>2022-05-01T12:55:00Z</time>
      </trkpt>
      <trkpt lat="43.66748" lon="3.81225">
        <ele>144.34</ele>
        <time>2022-05-01T12:55:01Z</time>
      </trkpt>
      <trkpt lat="43.66746" lon="3.81223">
        <ele>144.82</ele>
        <time>2022-05-01T12:55:02Z</time>
      </trkpt>
      <trkpt lat="43.66744" lon="3.81221">
        <ele>144.82</ele>
        <time>2022-05-01T12:55:03Z</time>
      </trkpt>
      <trkpt lat="43.66742" lon="3.81219">
        <ele>144.82</ele>
        <time>2022-05-01T12:55:04Z</time>
      </trkpt>
      <trkpt lat="43.6674" lon="3.81219">
        <ele>144.82</ele>
        <time>2022-05-01T12:55:05Z</time>
      </trkpt>
      <trkpt lat="43.66737" lon="3.81218">
        <ele>144.82</ele>
        <time>2022-05-01T12:55:06Z</time>
      </trkpt>
      <trkpt lat="43.66702" lon="3.81191">
        <ele>147.22</ele>
        <time>2022-05-01T12:55:21Z</time>
      </trkpt>
      <trkpt lat="43.66688" lon="3.81143">
        <ele>149.62</ele>
        <time>2022-05-01T12:55:34Z</time>
      </trkpt>
      <trkpt lat="43.66704" lon="3.81096">
        <ele>150.1</ele>
        <time>2022-05-01T12:55:47Z</time>
      </trkpt>
      <trkpt lat="43.66734" lon="3.81027">
        <ele>146.26</ele>
        <time>2022-05-01T12:56:01Z</time>
      </trkpt>
      <trkpt lat="43.66762" lon="3.80975">
        <ele>145.3</ele>
        <time>2022-05-01T12:56:10Z</time>
      </trkpt>
      <trkpt lat="43.66784" lon="3.80929">
        <ele>149.14</ele>
        <time>2022-05-01T12:56:24Z</time>
      </trkpt>
      <trkpt lat="43.66826" lon="3.80895">
        <ele>150.58</ele>
        <time>2022-05-01T12:56:40Z</time>
      </trkpt>
      <trkpt lat="43.66838" lon="3.80872">
        <ele>151.06</ele>
        <time>2022-05-01T12:56:51Z</time>
      </trkpt>
      <trkpt lat="43.66838" lon="3.80871">
        <ele>151.06</ele>
        <time>2022-05-01T12:57:12Z</time>
      </trkpt>
      <trkpt lat="43.66838" lon="3.80871">
        <ele>151.54</ele>
        <time>2022-05-01T12:57:34Z</time>
      </trkpt>
      <trkpt lat="43.66839" lon="3.80861">
        <ele>151.54</ele>
        <time>2022-05-01T12:57:49Z</time>
      </trkpt>
      <trkpt lat="43.66839" lon="3.80857">
        <ele>151.54</ele>
        <time>2022-05-01T12:57:58Z</time>
      </trkpt>
      <trkpt lat="43.66842" lon="3.80852">
        <ele>151.06</ele>
        <time>2022-05-01T12:58:05Z</time>
      </trkpt>
      <trkpt lat="43.66844" lon="3.8085">
        <ele>151.54</ele>
        <time>2022-05-01T12:58:18Z</time>
      </trkpt>
      <trkpt lat="43.66844" lon="3.8085">
        <ele>151.06</ele>
        <time>2022-05-01T12:58:41Z</time>
      </trkpt>
      <trkpt lat="43.6685" lon="3.80847">
        <ele>149.62</ele>
        <time>2022-05-01T12:58:55Z</time>
      </trkpt>
      <trkpt lat="43.66854" lon="3.80847">
        <ele>148.66</ele>
        <time>2022-05-01T12:59:03Z</time>
      </trkpt>
      <trkpt lat="43.6686" lon="3.8085">
        <ele>147.7</ele>
        <time>2022-05-01T12:59:15Z</time>
      </trkpt>
      <trkpt lat="43.66861" lon="3.8085">
        <ele>148.18</ele>
        <time>2022-05-01T12:59:29Z</time>
      </trkpt>
      <trkpt lat="43.66862" lon="3.80852">
        <ele>149.14</ele>
        <time>2022-05-01T12:59:40Z</time>
      </trkpt>
      <trkpt lat="43.66865" lon="3.80866">
        <ele>148.66</ele>
        <time>2022-05-01T12:59:56Z</time>
      </trkpt>
      <trkpt lat="43.66859" lon="3.80861">
        <ele>148.66</ele>
        <time>2022-05-01T13:00:13Z</time>
      </trkpt>
      <trkpt lat="43.66854" lon="3.80864">
        <ele>149.14</ele>
        <time>2022-05-01T13:00:22Z</time>
      </trkpt>
      <trkpt lat="43.66848" lon="3.8087">
        <ele>149.62</ele>
        <time>2022-05-01T13:00:36Z</time>
      </trkpt>
      <trkpt lat="43.66846" lon="3.80874">
        <ele>149.62</ele>
        <time>2022-05-01T13:00:53Z</time>
      </trkpt>
      <trkpt lat="43.66843" lon="3.80873">
        <ele>149.14</ele>
        <time>2022-05-01T13:01:12Z</time>
      </trkpt>
      <trkpt lat="43.66841" lon="3.8087">
        <ele>149.14</ele>
        <time>2022-05-01T13:01:14Z</time>
      </trkpt>
      <trkpt lat="43.66837" lon="3.8086">
        <ele>148.66</ele>
        <time>2022-05-01T13:01:27Z</time>
      </trkpt>
      <trkpt lat="43.66829" lon="3.8085">
        <ele>148.18</ele>
        <time>2022-05-01T13:01:39Z</time>
      </trkpt>
      <trkpt lat="43.66814" lon="3.80829">
        <ele>147.7</ele>
        <time>2022-05-01T13:01:47Z</time>
      </trkpt>
      <trkpt lat="43.66812" lon="3.80827">
        <ele>147.7</ele>
        <time>2022-05-01T13:01:48Z</time>
      </trkpt>
      <trkpt lat="43.66809" lon="3.80824">
        <ele>147.7</ele>
        <time>2022-05-01T13:01:49Z</time>
      </trkpt>
      <trkpt lat="43.66807" lon="3.80822">
        <ele>147.7</ele>
        <time>2022-05-01T13:01:50Z</time>
      </trkpt>
      <trkpt lat="43.66804" lon="3.80819">
        <ele>147.7</ele>
        <time>2022-05-01T13:01:51Z</time>
      </trkpt>
      <trkpt lat="43.66802" lon="3.80816">
        <ele>147.7</ele>
        <time>2022-05-01T13:01:52Z</time>
      </trkpt>
      <trkpt lat="43.66775" lon="3.80786">
        <ele>149.14</ele>
        <time>2022-05-01T13:02:04Z</time>
      </trkpt>
      <trkpt lat="43.66747" lon="3.80749">
        <ele>149.62</ele>
        <time>2022-05-01T13:02:16Z</time>
      </trkpt>
      <trkpt lat="43.66715" lon="3.80705">
        <ele>151.06</ele>
        <time>2022-05-01T13:02:30Z</time>
      </trkpt>
      <trkpt lat="43.66698" lon="3.80676">
        <ele>150.58</ele>
        <time>2022-05-01T13:02:37Z</time>
      </trkpt>
      <trkpt lat="43.66694" lon="3.80671">
        <ele>150.58</ele>
        <time>2022-05-01T13:02:38Z</time>
      </trkpt>
      <trkpt lat="43.66691" lon="3.80666">
        <ele>150.58</ele>
        <time>2022-05-01T13:02:39Z</time>
      </trkpt>
      <trkpt lat="43.66688" lon="3.80659">
        <ele>150.1</ele>
        <time>2022-05-01T13:02:40Z</time>
      </trkpt>
      <trkpt lat="43.66684" lon="3.80653">
        <ele>150.1</ele>
        <time>2022-05-01T13:02:41Z</time>
      </trkpt>
      <trkpt lat="43.66679" lon="3.80646">
        <ele>149.62</ele>
        <time>2022-05-01T13:02:42Z</time>
      </trkpt>
      <trkpt lat="43.66674" lon="3.80639">
        <ele>149.14</ele>
        <time>2022-05-01T13:02:43Z</time>
      </trkpt>
      <trkpt lat="43.6667" lon="3.80631">
        <ele>148.66</ele>
        <time>2022-05-01T13:02:44Z</time>
      </trkpt>
      <trkpt lat="43.66616" lon="3.80561">
        <ele>146.74</ele>
        <time>2022-05-01T13:02:56Z</time>
      </trkpt>
      <trkpt lat="43.6661" lon="3.80551">
        <ele>146.74</ele>
        <time>2022-05-01T13:02:59Z</time>
      </trkpt>
      <trkpt lat="43.66611" lon="3.80549">
        <ele>146.74</ele>
        <time>2022-05-01T13:03:00Z</time>
      </trkpt>
      <trkpt lat="43.66613" lon="3.80548">
        <ele>146.74</ele>
        <time>2022-05-01T13:03:01Z</time>
      </trkpt>
      <trkpt lat="43.66614" lon="3.80548">
        <ele>146.74</ele>
        <time>2022-05-01T13:03:02Z</time>
      </trkpt>
      <trkpt lat="43.66615" lon="3.80548">
        <ele>146.74</ele>
        <time>2022-05-01T13:03:03Z</time>
      </trkpt>
      <trkpt lat="43.66617" lon="3.80548">
        <ele>146.74</ele>
        <time>2022-05-01T13:03:04Z</time>
      </trkpt>
      <trkpt lat="43.66618" lon="3.80546">
        <ele>149.14</ele>
        <time>2022-05-01T13:03:19Z</time>
      </trkpt>
      <trkpt lat="43.66651" lon="3.80555">
        <ele>148.66</ele>
        <time>2022-05-01T13:03:29Z</time>
      </trkpt>
      <trkpt lat="43.66683" lon="3.80564">
        <ele>147.22</ele>
        <time>2022-05-01T13:03:35Z</time>
      </trkpt>
      <trkpt lat="43.66692" lon="3.80565">
        <ele>146.26</ele>
        <time>2022-05-01T13:03:37Z</time>
      </trkpt>
      <trkpt lat="43.66697" lon="3.80565">
        <ele>145.78</ele>
        <time>2022-05-01T13:03:38Z</time>
      </trkpt>
      <trkpt lat="43.667" lon="3.80565">
        <ele>145.3</ele>
        <time>2022-05-01T13:03:39Z</time>
      </trkpt>
      <trkpt lat="43.66703" lon="3.80565">
        <ele>144.82</ele>
        <time>2022-05-01T13:03:40Z</time>
      </trkpt>
      <trkpt lat="43.66705" lon="3.80565">
        <ele>144.82</ele>
        <time>2022-05-01T13:03:41Z</time>
      </trkpt>
      <trkpt lat="43.66706" lon="3.80566">
        <ele>144.34</ele>
        <time>2022-05-01T13:03:52Z</time>
      </trkpt>
      <trkpt lat="43.66707" lon="3.80564">
        <ele>146.26</ele>
        <time>2022-05-01T13:04:17Z</time>
      </trkpt>
      <trkpt lat="43.66708" lon="3.80563">
        <ele>145.78</ele>
        <time>2022-05-01T13:04:18Z</time>
      </trkpt>
      <trkpt lat="43.66709" lon="3.80562">
        <ele>145.78</ele>
        <time>2022-05-01T13:04:19Z</time>
      </trkpt>
      <trkpt lat="43.66711" lon="3.80561">
        <ele>145.78</ele>
        <time>2022-05-01T13:04:20Z</time>
      </trkpt>
      <trkpt lat="43.66714" lon="3.8056">
        <ele>145.3</ele>
        <time>2022-05-01T13:04:21Z</time>
      </trkpt>
      <trkpt lat="43.66717" lon="3.8056">
        <ele>144.82</ele>
        <time>2022-05-01T13:04:22Z</time>
      </trkpt>
      <trkpt lat="43.6672" lon="3.80559">
        <ele>144.82</ele>
        <time>2022-05-01T13:04:23Z</time>
      </trkpt>
      <trkpt lat="43.66724" lon="3.80559">
        <ele>144.34</ele>
        <time>2022-05-01T13:04:24Z</time>
      </trkpt>
      <trkpt lat="43.66727" lon="3.80559">
        <ele>143.85</ele>
        <time>2022-05-01T13:04:25Z</time>
      </trkpt>
      <trkpt lat="43.66731" lon="3.80558">
        <ele>143.37</ele>
        <time>2022-05-01T13:04:26Z</time>
      </trkpt>
      <trkpt lat="43.66769" lon="3.80549">
        <ele>137.13</ele>
        <time>2022-05-01T13:04:38Z</time>
      </trkpt>
      <trkpt lat="43.66771" lon="3.80548">
        <ele>134.72</ele>
        <time>2022-05-01T13:04:46Z</time>
      </trkpt>
      <trkpt lat="43.66778" lon="3.80543">
        <ele>135.2</ele>
        <time>2022-05-01T13:05:00Z</time>
      </trkpt>
      <trkpt lat="43.66783" lon="3.80543">
        <ele>133.76</ele>
        <time>2022-05-01T13:05:19Z</time>
      </trkpt>
      <trkpt lat="43.66798" lon="3.80577">
        <ele>133.28</ele>
        <time>2022-05-01T13:05:28Z</time>
      </trkpt>
      <trkpt lat="43.66818" lon="3.80611">
        <ele>138.09</ele>
        <time>2022-05-01T13:05:41Z</time>
      </trkpt>
      <trkpt lat="43.66835" lon="3.80636">
        <ele>140.97</ele>
        <time>2022-05-01T13:05:53Z</time>
      </trkpt>
      <trkpt lat="43.66836" lon="3.80638">
        <ele>140.97</ele>
        <time>2022-05-01T13:05:54Z</time>
      </trkpt>
      <trkpt lat="43.66837" lon="3.80639">
        <ele>140.97</ele>
        <time>2022-05-01T13:05:55Z</time>
      </trkpt>
      <trkpt lat="43.66839" lon="3.8064">
        <ele>140.97</ele>
        <time>2022-05-01T13:05:56Z</time>
      </trkpt>
      <trkpt lat="43.6684" lon="3.8064">
        <ele>140.97</ele>
        <time>2022-05-01T13:05:57Z</time>
      </trkpt>
      <trkpt lat="43.66841" lon="3.80639">
        <ele>141.45</ele>
        <time>2022-05-01T13:05:58Z</time>
      </trkpt>
      <trkpt lat="43.66842" lon="3.80637">
        <ele>141.45</ele>
        <time>2022-05-01T13:05:59Z</time>
      </trkpt>
      <trkpt lat="43.6684" lon="3.80635">
        <ele>141.45</ele>
        <time>2022-05-01T13:06:09Z</time>
      </trkpt>
      <trkpt lat="43.66831" lon="3.80624">
        <ele>141.45</ele>
        <time>2022-05-01T13:06:20Z</time>
      </trkpt>
      <trkpt lat="43.66823" lon="3.80619">
        <ele>140.97</ele>
        <time>2022-05-01T13:06:22Z</time>
      </trkpt>
      <trkpt lat="43.6682" lon="3.80614">
        <ele>140.49</ele>
        <time>2022-05-01T13:06:23Z</time>
      </trkpt>
      <trkpt lat="43.66816" lon="3.80608">
        <ele>140.01</ele>
        <time>2022-05-01T13:06:24Z</time>
      </trkpt>
      <trkpt lat="43.66802" lon="3.80582">
        <ele>137.13</ele>
        <time>2022-05-01T13:06:27Z</time>
      </trkpt>
      <trkpt lat="43.6678" lon="3.8052">
        <ele>135.2</ele>
        <time>2022-05-01T13:06:33Z</time>
      </trkpt>
      <trkpt lat="43.66773" lon="3.80479">
        <ele>140.01</ele>
        <time>2022-05-01T13:06:44Z</time>
      </trkpt>
      <trkpt lat="43.66758" lon="3.80457">
        <ele>145.3</ele>
        <time>2022-05-01T13:06:58Z</time>
      </trkpt>
      <trkpt lat="43.66743" lon="3.80439">
        <ele>149.14</ele>
        <time>2022-05-01T13:07:11Z</time>
      </trkpt>
      <trkpt lat="43.66727" lon="3.80425">
        <ele>151.54</ele>
        <time>2022-05-01T13:07:23Z</time>
      </trkpt>
      <trkpt lat="43.66706" lon="3.80397">
        <ele>153.95</ele>
        <time>2022-05-01T13:07:41Z</time>
      </trkpt>
      <trkpt lat="43.66699" lon="3.80394">
        <ele>153.95</ele>
        <time>2022-05-01T13:07:46Z</time>
      </trkpt>
      <trkpt lat="43.66691" lon="3.80387">
        <ele>153.47</ele>
        <time>2022-05-01T13:07:50Z</time>
      </trkpt>
      <trkpt lat="43.66639" lon="3.80334">
        <ele>148.18</ele>
        <time>2022-05-01T13:08:03Z</time>
      </trkpt>
      <trkpt lat="43.66632" lon="3.80328">
        <ele>147.7</ele>
        <time>2022-05-01T13:08:04Z</time>
      </trkpt>
      <trkpt lat="43.66565" lon="3.803">
        <ele>143.37</ele>
        <time>2022-05-01T13:08:13Z</time>
      </trkpt>
      <trkpt lat="43.66525" lon="3.8026">
        <ele>144.82</ele>
        <time>2022-05-01T13:08:23Z</time>
      </trkpt>
      <trkpt lat="43.66492" lon="3.80224">
        <ele>146.74</ele>
        <time>2022-05-01T13:08:39Z</time>
      </trkpt>
      <trkpt lat="43.66466" lon="3.80195">
        <ele>147.7</ele>
        <time>2022-05-01T13:08:57Z</time>
      </trkpt>
      <trkpt lat="43.66463" lon="3.80186">
        <ele>146.74</ele>
        <time>2022-05-01T13:09:13Z</time>
      </trkpt>
      <trkpt lat="43.66463" lon="3.80185">
        <ele>147.22</ele>
        <time>2022-05-01T13:09:44Z</time>
      </trkpt>
      <trkpt lat="43.66461" lon="3.80185">
        <ele>148.18</ele>
        <time>2022-05-01T13:10:18Z</time>
      </trkpt>
      <trkpt lat="43.6646" lon="3.80187">
        <ele>149.62</ele>
        <time>2022-05-01T13:10:59Z</time>
      </trkpt>
      <trkpt lat="43.66458" lon="3.80181">
        <ele>149.62</ele>
        <time>2022-05-01T13:11:27Z</time>
      </trkpt>
      <trkpt lat="43.66452" lon="3.80171">
        <ele>149.14</ele>
        <time>2022-05-01T13:11:30Z</time>
      </trkpt>
      <trkpt lat="43.66417" lon="3.80121">
        <ele>144.34</ele>
        <time>2022-05-01T13:11:39Z</time>
      </trkpt>
      <trkpt lat="43.6638" lon="3.80053">
        <ele>136.16</ele>
        <time>2022-05-01T13:11:49Z</time>
      </trkpt>
      <trkpt lat="43.66366" lon="3.80022">
        <ele>131.36</ele>
        <time>2022-05-01T13:11:53Z</time>
      </trkpt>
      <trkpt lat="43.66359" lon="3.79979">
        <ele>124.15</ele>
        <time>2022-05-01T13:11:58Z</time>
      </trkpt>
      <trkpt lat="43.66362" lon="3.79921">
        <ele>115.5</ele>
        <time>2022-05-01T13:12:04Z</time>
      </trkpt>
      <trkpt lat="43.66361" lon="3.79912">
        <ele>114.53</ele>
        <time>2022-05-01T13:12:05Z</time>
      </trkpt>
      <trkpt lat="43.66359" lon="3.79904">
        <ele>114.05</ele>
        <time>2022-05-01T13:12:06Z</time>
      </trkpt>
      <trkpt lat="43.66357" lon="3.79896">
        <ele>113.09</ele>
        <time>2022-05-01T13:12:07Z</time>
      </trkpt>
      <trkpt lat="43.66354" lon="3.79889">
        <ele>112.13</ele>
        <time>2022-05-01T13:12:08Z</time>
      </trkpt>
      <trkpt lat="43.6635" lon="3.79881">
        <ele>111.17</ele>
        <time>2022-05-01T13:12:09Z</time>
      </trkpt>
      <trkpt lat="43.66339" lon="3.7986">
        <ele>108.77</ele>
        <time>2022-05-01T13:12:12Z</time>
      </trkpt>
      <trkpt lat="43.66301" lon="3.79783">
        <ele>98.19</ele>
        <time>2022-05-01T13:12:22Z</time>
      </trkpt>
      <trkpt lat="43.66288" lon="3.79757">
        <ele>94.83</ele>
        <time>2022-05-01T13:12:25Z</time>
      </trkpt>
      <trkpt lat="43.66237" lon="3.79668">
        <ele>87.14</ele>
        <time>2022-05-01T13:12:36Z</time>
      </trkpt>
      <trkpt lat="43.66229" lon="3.79653">
        <ele>86.66</ele>
        <time>2022-05-01T13:12:38Z</time>
      </trkpt>
      <trkpt lat="43.66211" lon="3.79599">
        <ele>86.66</ele>
        <time>2022-05-01T13:12:48Z</time>
      </trkpt>
      <trkpt lat="43.66193" lon="3.79558">
        <ele>85.21</ele>
        <time>2022-05-01T13:13:00Z</time>
      </trkpt>
      <trkpt lat="43.66192" lon="3.79558">
        <ele>84.73</ele>
        <time>2022-05-01T13:13:14Z</time>
      </trkpt>
      <trkpt lat="43.66192" lon="3.79558">
        <ele>87.14</ele>
        <time>2022-05-01T13:13:42Z</time>
      </trkpt>
      <trkpt lat="43.6619" lon="3.79558">
        <ele>86.66</ele>
        <time>2022-05-01T13:14:17Z</time>
      </trkpt>
      <trkpt lat="43.6619" lon="3.79558">
        <ele>87.14</ele>
        <time>2022-05-01T13:14:59Z</time>
      </trkpt>
      <trkpt lat="43.6619" lon="3.79558">
        <ele>86.18</ele>
        <time>2022-05-01T13:15:32Z</time>
      </trkpt>
      <trkpt lat="43.66189" lon="3.79559">
        <ele>88.1</ele>
        <time>2022-05-01T13:16:03Z</time>
      </trkpt>
      <trkpt lat="43.66188" lon="3.79557">
        <ele>87.62</ele>
        <time>2022-05-01T13:16:34Z</time>
      </trkpt>
      <trkpt lat="43.66178" lon="3.79566">
        <ele>88.1</ele>
        <time>2022-05-01T13:16:41Z</time>
      </trkpt>
      <trkpt lat="43.6618" lon="3.79579">
        <ele>88.58</ele>
        <time>2022-05-01T13:16:46Z</time>
      </trkpt>
      <trkpt lat="43.66205" lon="3.79621">
        <ele>88.1</ele>
        <time>2022-05-01T13:17:02Z</time>
      </trkpt>
      <trkpt lat="43.66238" lon="3.79667">
        <ele>85.69</ele>
        <time>2022-05-01T13:17:14Z</time>
      </trkpt>
      <trkpt lat="43.66248" lon="3.79687">
        <ele>87.62</ele>
        <time>2022-05-01T13:17:24Z</time>
      </trkpt>
      <trkpt lat="43.6624" lon="3.79692">
        <ele>88.58</ele>
        <time>2022-05-01T13:17:38Z</time>
      </trkpt>
      <trkpt lat="43.6624" lon="3.79692">
        <ele>88.58</ele>
        <time>2022-05-01T13:17:39Z</time>
      </trkpt>
      <trkpt lat="43.66221" lon="3.79672">
        <ele>89.54</ele>
        <time>2022-05-01T13:17:50Z</time>
      </trkpt>
      <trkpt lat="43.66181" lon="3.79635">
        <ele>87.62</ele>
        <time>2022-05-01T13:18:02Z</time>
      </trkpt>
      <trkpt lat="43.66147" lon="3.79607">
        <ele>86.66</ele>
        <time>2022-05-01T13:18:11Z</time>
      </trkpt>
      <trkpt lat="43.66142" lon="3.79578">
        <ele>85.69</ele>
        <time>2022-05-01T13:18:16Z</time>
      </trkpt>
      <trkpt lat="43.66138" lon="3.79556">
        <ele>84.73</ele>
        <time>2022-05-01T13:18:19Z</time>
      </trkpt>
      <trkpt lat="43.66113" lon="3.79505">
        <ele>84.25</ele>
        <time>2022-05-01T13:18:31Z</time>
      </trkpt>
      <trkpt lat="43.66076" lon="3.79467">
        <ele>84.73</ele>
        <time>2022-05-01T13:18:45Z</time>
      </trkpt>
      <trkpt lat="43.66048" lon="3.79449">
        <ele>84.73</ele>
        <time>2022-05-01T13:18:58Z</time>
      </trkpt>
      <trkpt lat="43.66044" lon="3.79451">
        <ele>84.25</ele>
        <time>2022-05-01T13:19:12Z</time>
      </trkpt>
      <trkpt lat="43.66035" lon="3.79455">
        <ele>85.21</ele>
        <time>2022-05-01T13:19:28Z</time>
      </trkpt>
      <trkpt lat="43.66034" lon="3.79456">
        <ele>85.69</ele>
        <time>2022-05-01T13:19:46Z</time>
      </trkpt>
      <trkpt lat="43.66034" lon="3.79453">
        <ele>86.18</ele>
        <time>2022-05-01T13:20:20Z</time>
      </trkpt>
      <trkpt lat="43.66033" lon="3.79443">
        <ele>86.66</ele>
        <time>2022-05-01T13:20:25Z</time>
      </trkpt>
      <trkpt lat="43.66022" lon="3.79389">
        <ele>84.73</ele>
        <time>2022-05-01T13:20:38Z</time>
      </trkpt>
      <trkpt lat="43.66015" lon="3.7936">
        <ele>83.77</ele>
        <time>2022-05-01T13:20:48Z</time>
      </trkpt>
      <trkpt lat="43.66018" lon="3.79359">
        <ele>83.29</ele>
        <time>2022-05-01T13:20:59Z</time>
      </trkpt>
      <trkpt lat="43.66021" lon="3.79358">
        <ele>83.77</ele>
        <time>2022-05-01T13:21:04Z</time>
      </trkpt>
      <trkpt lat="43.66021" lon="3.79357">
        <ele>83.77</ele>
        <time>2022-05-01T13:21:05Z</time>
      </trkpt>
      <trkpt lat="43.66031" lon="3.79337">
        <ele>81.85</ele>
        <time>2022-05-01T13:21:16Z</time>
      </trkpt>
      <trkpt lat="43.6603" lon="3.79334">
        <ele>82.33</ele>
        <time>2022-05-01T13:21:28Z</time>
      </trkpt>
      <trkpt lat="43.6603" lon="3.79332">
        <ele>81.85</ele>
        <time>2022-05-01T13:21:29Z</time>
      </trkpt>
      <trkpt lat="43.66028" lon="3.7933">
        <ele>81.85</ele>
        <time>2022-05-01T13:21:30Z</time>
      </trkpt>
      <trkpt lat="43.66026" lon="3.79327">
        <ele>81.85</ele>
        <time>2022-05-01T13:21:31Z</time>
      </trkpt>
      <trkpt lat="43.66024" lon="3.79326">
        <ele>81.85</ele>
        <time>2022-05-01T13:21:32Z</time>
      </trkpt>
      <trkpt lat="43.65976" lon="3.79311">
        <ele>79.93</ele>
        <time>2022-05-01T13:21:46Z</time>
      </trkpt>
      <trkpt lat="43.6589" lon="3.79295">
        <ele>78.48</ele>
        <time>2022-05-01T13:22:06Z</time>
      </trkpt>
      <trkpt lat="43.65793" lon="3.79274">
        <ele>78</ele>
        <time>2022-05-01T13:22:25Z</time>
      </trkpt>
      <trkpt lat="43.65742" lon="3.79252">
        <ele>77.52</ele>
        <time>2022-05-01T13:22:35Z</time>
      </trkpt>
      <trkpt lat="43.65738" lon="3.79248">
        <ele>77.52</ele>
        <time>2022-05-01T13:22:36Z</time>
      </trkpt>
      <trkpt lat="43.65712" lon="3.79219">
        <ele>76.56</ele>
        <time>2022-05-01T13:22:42Z</time>
      </trkpt>
      <trkpt lat="43.65706" lon="3.79215">
        <ele>76.08</ele>
        <time>2022-05-01T13:22:43Z</time>
      </trkpt>
      <trkpt lat="43.657" lon="3.79212">
        <ele>76.08</ele>
        <time>2022-05-01T13:22:44Z</time>
      </trkpt>
      <trkpt lat="43.65596" lon="3.79173">
        <ele>71.27</ele>
        <time>2022-05-01T13:23:00Z</time>
      </trkpt>
      <trkpt lat="43.65557" lon="3.79149">
        <ele>70.79</ele>
        <time>2022-05-01T13:23:07Z</time>
      </trkpt>
      <trkpt lat="43.65552" lon="3.79144">
        <ele>70.79</ele>
        <time>2022-05-01T13:23:08Z</time>
      </trkpt>
      <trkpt lat="43.65458" lon="3.79049">
        <ele>70.31</ele>
        <time>2022-05-01T13:23:28Z</time>
      </trkpt>
      <trkpt lat="43.65449" lon="3.79043">
        <ele>70.79</ele>
        <time>2022-05-01T13:23:30Z</time>
      </trkpt>
      <trkpt lat="43.65444" lon="3.79039">
        <ele>70.79</ele>
        <time>2022-05-01T13:23:31Z</time>
      </trkpt>
      <trkpt lat="43.65441" lon="3.79035">
        <ele>70.79</ele>
        <time>2022-05-01T13:23:32Z</time>
      </trkpt>
      <trkpt lat="43.65434" lon="3.79026">
        <ele>70.79</ele>
        <time>2022-05-01T13:23:34Z</time>
      </trkpt>
      <trkpt lat="43.6543" lon="3.79024">
        <ele>70.31</ele>
        <time>2022-05-01T13:23:35Z</time>
      </trkpt>
      <trkpt lat="43.65426" lon="3.79023">
        <ele>70.31</ele>
        <time>2022-05-01T13:23:36Z</time>
      </trkpt>
      <trkpt lat="43.65423" lon="3.79022">
        <ele>70.79</ele>
        <time>2022-05-01T13:23:37Z</time>
      </trkpt>
      <trkpt lat="43.65419" lon="3.79021">
        <ele>70.79</ele>
        <time>2022-05-01T13:23:38Z</time>
      </trkpt>
      <trkpt lat="43.65416" lon="3.79019">
        <ele>70.79</ele>
        <time>2022-05-01T13:23:39Z</time>
      </trkpt>
      <trkpt lat="43.65412" lon="3.79017">
        <ele>70.79</ele>
        <time>2022-05-01T13:23:40Z</time>
      </trkpt>
      <trkpt lat="43.65409" lon="3.79015">
        <ele>70.79</ele>
        <time>2022-05-01T13:23:41Z</time>
      </trkpt>
      <trkpt lat="43.65405" lon="3.79013">
        <ele>70.79</ele>
        <time>2022-05-01T13:23:42Z</time>
      </trkpt>
      <trkpt lat="43.65351" lon="3.78991">
        <ele>70.31</ele>
        <time>2022-05-01T13:23:57Z</time>
      </trkpt>
      <trkpt lat="43.65304" lon="3.79011">
        <ele>71.27</ele>
        <time>2022-05-01T13:24:11Z</time>
      </trkpt>
      <trkpt lat="43.6526" lon="3.79034">
        <ele>70.79</ele>
        <time>2022-05-01T13:24:23Z</time>
      </trkpt>
      <trkpt lat="43.65256" lon="3.79035">
        <ele>70.79</ele>
        <time>2022-05-01T13:24:24Z</time>
      </trkpt>
      <trkpt lat="43.65252" lon="3.79037">
        <ele>70.79</ele>
        <time>2022-05-01T13:24:25Z</time>
      </trkpt>
      <trkpt lat="43.65223" lon="3.79047">
        <ele>70.31</ele>
        <time>2022-05-01T13:24:32Z</time>
      </trkpt>
      <trkpt lat="43.65202" lon="3.79053">
        <ele>70.31</ele>
        <time>2022-05-01T13:24:37Z</time>
      </trkpt>
      <trkpt lat="43.65198" lon="3.79054">
        <ele>70.31</ele>
        <time>2022-05-01T13:24:38Z</time>
      </trkpt>
      <trkpt lat="43.65193" lon="3.79055">
        <ele>70.31</ele>
        <time>2022-05-01T13:24:39Z</time>
      </trkpt>
      <trkpt lat="43.65129" lon="3.79056">
        <ele>69.83</ele>
        <time>2022-05-01T13:24:54Z</time>
      </trkpt>
      <trkpt lat="43.65088" lon="3.79084">
        <ele>69.83</ele>
        <time>2022-05-01T13:25:07Z</time>
      </trkpt>
      <trkpt lat="43.65082" lon="3.79086">
        <ele>70.79</ele>
        <time>2022-05-01T13:25:10Z</time>
      </trkpt>
      <trkpt lat="43.6508" lon="3.79085">
        <ele>70.79</ele>
        <time>2022-05-01T13:25:11Z</time>
      </trkpt>
      <trkpt lat="43.65078" lon="3.79084">
        <ele>70.79</ele>
        <time>2022-05-01T13:25:12Z</time>
      </trkpt>
      <trkpt lat="43.65077" lon="3.7908">
        <ele>70.79</ele>
        <time>2022-05-01T13:25:13Z</time>
      </trkpt>
      <trkpt lat="43.65077" lon="3.79076">
        <ele>71.27</ele>
        <time>2022-05-01T13:25:14Z</time>
      </trkpt>
      <trkpt lat="43.65079" lon="3.79072">
        <ele>70.79</ele>
        <time>2022-05-01T13:25:15Z</time>
      </trkpt>
      <trkpt lat="43.65082" lon="3.79067">
        <ele>70.31</ele>
        <time>2022-05-01T13:25:16Z</time>
      </trkpt>
      <trkpt lat="43.65086" lon="3.79063">
        <ele>70.31</ele>
        <time>2022-05-01T13:25:17Z</time>
      </trkpt>
      <trkpt lat="43.65092" lon="3.79054">
        <ele>69.83</ele>
        <time>2022-05-01T13:25:19Z</time>
      </trkpt>
      <trkpt lat="43.65094" lon="3.79049">
        <ele>69.35</ele>
        <time>2022-05-01T13:25:20Z</time>
      </trkpt>
      <trkpt lat="43.65102" lon="3.79019">
        <ele>66.95</ele>
        <time>2022-05-01T13:25:30Z</time>
      </trkpt>
      <trkpt lat="43.65093" lon="3.78967">
        <ele>66.95</ele>
        <time>2022-05-01T13:25:40Z</time>
      </trkpt>
      <trkpt lat="43.65077" lon="3.78908">
        <ele>66.95</ele>
        <time>2022-05-01T13:25:49Z</time>
      </trkpt>
      <trkpt lat="43.65077" lon="3.789">
        <ele>66.95</ele>
        <time>2022-05-01T13:25:50Z</time>
      </trkpt>
      <trkpt lat="43.65077" lon="3.78893">
        <ele>66.95</ele>
        <time>2022-05-01T13:25:51Z</time>
      </trkpt>
      <trkpt lat="43.65079" lon="3.78886">
        <ele>66.95</ele>
        <time>2022-05-01T13:25:52Z</time>
      </trkpt>
      <trkpt lat="43.65081" lon="3.7888">
        <ele>67.43</ele>
        <time>2022-05-01T13:25:53Z</time>
      </trkpt>
      <trkpt lat="43.65083" lon="3.78876">
        <ele>67.43</ele>
        <time>2022-05-01T13:25:54Z</time>
      </trkpt>
      <trkpt lat="43.65116" lon="3.78842">
        <ele>67.91</ele>
        <time>2022-05-01T13:26:07Z</time>
      </trkpt>
      <trkpt lat="43.65172" lon="3.78798">
        <ele>70.31</ele>
        <time>2022-05-01T13:26:24Z</time>
      </trkpt>
      <trkpt lat="43.65203" lon="3.78772">
        <ele>70.31</ele>
        <time>2022-05-01T13:26:33Z</time>
      </trkpt>
      <trkpt lat="43.65206" lon="3.78768">
        <ele>70.31</ele>
        <time>2022-05-01T13:26:34Z</time>
      </trkpt>
      <trkpt lat="43.65209" lon="3.78764">
        <ele>70.31</ele>
        <time>2022-05-01T13:26:35Z</time>
      </trkpt>
      <trkpt lat="43.65211" lon="3.78759">
        <ele>69.83</ele>
        <time>2022-05-01T13:26:36Z</time>
      </trkpt>
      <trkpt lat="43.65214" lon="3.78754">
        <ele>69.83</ele>
        <time>2022-05-01T13:26:37Z</time>
      </trkpt>
      <trkpt lat="43.65219" lon="3.78745">
        <ele>69.83</ele>
        <time>2022-05-01T13:26:39Z</time>
      </trkpt>
      <trkpt lat="43.65222" lon="3.78741">
        <ele>69.83</ele>
        <time>2022-05-01T13:26:40Z</time>
      </trkpt>
      <trkpt lat="43.65225" lon="3.78739">
        <ele>69.83</ele>
        <time>2022-05-01T13:26:41Z</time>
      </trkpt>
      <trkpt lat="43.65229" lon="3.78737">
        <ele>70.31</ele>
        <time>2022-05-01T13:26:42Z</time>
      </trkpt>
      <trkpt lat="43.65233" lon="3.78736">
        <ele>70.31</ele>
        <time>2022-05-01T13:26:43Z</time>
      </trkpt>
      <trkpt lat="43.65285" lon="3.78713">
        <ele>71.76</ele>
        <time>2022-05-01T13:26:58Z</time>
      </trkpt>
      <trkpt lat="43.65334" lon="3.78678">
        <ele>72.24</ele>
        <time>2022-05-01T13:27:12Z</time>
      </trkpt>
      <trkpt lat="43.65361" lon="3.78656">
        <ele>70.31</ele>
        <time>2022-05-01T13:27:18Z</time>
      </trkpt>
      <trkpt lat="43.65421" lon="3.78626">
        <ele>66.95</ele>
        <time>2022-05-01T13:27:28Z</time>
      </trkpt>
      <trkpt lat="43.65426" lon="3.78626">
        <ele>67.43</ele>
        <time>2022-05-01T13:27:31Z</time>
      </trkpt>
      <trkpt lat="43.65428" lon="3.78627">
        <ele>67.43</ele>
        <time>2022-05-01T13:27:32Z</time>
      </trkpt>
      <trkpt lat="43.65429" lon="3.78629">
        <ele>66.95</ele>
        <time>2022-05-01T13:27:33Z</time>
      </trkpt>
      <trkpt lat="43.65432" lon="3.78632">
        <ele>66.95</ele>
        <time>2022-05-01T13:27:35Z</time>
      </trkpt>
      <trkpt lat="43.65432" lon="3.78635">
        <ele>66.95</ele>
        <time>2022-05-01T13:27:36Z</time>
      </trkpt>
      <trkpt lat="43.65431" lon="3.78637">
        <ele>66.95</ele>
        <time>2022-05-01T13:27:37Z</time>
      </trkpt>
      <trkpt lat="43.6543" lon="3.7864">
        <ele>67.43</ele>
        <time>2022-05-01T13:27:38Z</time>
      </trkpt>
      <trkpt lat="43.65428" lon="3.78643">
        <ele>67.43</ele>
        <time>2022-05-01T13:27:39Z</time>
      </trkpt>
      <trkpt lat="43.65427" lon="3.78646">
        <ele>67.43</ele>
        <time>2022-05-01T13:27:40Z</time>
      </trkpt>
      <trkpt lat="43.6541" lon="3.78706">
        <ele>67.91</ele>
        <time>2022-05-01T13:27:55Z</time>
      </trkpt>
      <trkpt lat="43.654" lon="3.7876">
        <ele>70.31</ele>
        <time>2022-05-01T13:28:08Z</time>
      </trkpt>
      <trkpt lat="43.65392" lon="3.78788">
        <ele>70.79</ele>
        <time>2022-05-01T13:28:22Z</time>
      </trkpt>
      <trkpt lat="43.65392" lon="3.78789">
        <ele>69.83</ele>
        <time>2022-05-01T13:28:35Z</time>
      </trkpt>
      <trkpt lat="43.65392" lon="3.7879">
        <ele>68.87</ele>
        <time>2022-05-01T13:28:49Z</time>
      </trkpt>
      <trkpt lat="43.65393" lon="3.78792">
        <ele>68.87</ele>
        <time>2022-05-01T13:28:51Z</time>
      </trkpt>
      <trkpt lat="43.65391" lon="3.78792">
        <ele>69.83</ele>
        <time>2022-05-01T13:29:02Z</time>
      </trkpt>
      <trkpt lat="43.6539" lon="3.78789">
        <ele>70.79</ele>
        <time>2022-05-01T13:29:05Z</time>
      </trkpt>
      <trkpt lat="43.6539" lon="3.78788">
        <ele>71.27</ele>
        <time>2022-05-01T13:29:06Z</time>
      </trkpt>
      <trkpt lat="43.65389" lon="3.78787">
        <ele>71.27</ele>
        <time>2022-05-01T13:29:07Z</time>
      </trkpt>
      <trkpt lat="43.65389" lon="3.78785">
        <ele>71.27</ele>
        <time>2022-05-01T13:29:08Z</time>
      </trkpt>
      <trkpt lat="43.65389" lon="3.78782">
        <ele>71.27</ele>
        <time>2022-05-01T13:29:09Z</time>
      </trkpt>
      <trkpt lat="43.6539" lon="3.78779">
        <ele>71.76</ele>
        <time>2022-05-01T13:29:10Z</time>
      </trkpt>
      <trkpt lat="43.65391" lon="3.78777">
        <ele>71.76</ele>
        <time>2022-05-01T13:29:11Z</time>
      </trkpt>
      <trkpt lat="43.65408" lon="3.78729">
        <ele>71.27</ele>
        <time>2022-05-01T13:29:23Z</time>
      </trkpt>
      <trkpt lat="43.65408" lon="3.78695">
        <ele>70.31</ele>
        <time>2022-05-01T13:29:28Z</time>
      </trkpt>
      <trkpt lat="43.65409" lon="3.78687">
        <ele>70.31</ele>
        <time>2022-05-01T13:29:29Z</time>
      </trkpt>
      <trkpt lat="43.65411" lon="3.7868">
        <ele>70.31</ele>
        <time>2022-05-01T13:29:30Z</time>
      </trkpt>
      <trkpt lat="43.65414" lon="3.78674">
        <ele>70.31</ele>
        <time>2022-05-01T13:29:31Z</time>
      </trkpt>
      <trkpt lat="43.65417" lon="3.78669">
        <ele>70.31</ele>
        <time>2022-05-01T13:29:32Z</time>
      </trkpt>
      <trkpt lat="43.6542" lon="3.78663">
        <ele>69.83</ele>
        <time>2022-05-01T13:29:33Z</time>
      </trkpt>
      <trkpt lat="43.65438" lon="3.78625">
        <ele>68.87</ele>
        <time>2022-05-01T13:29:41Z</time>
      </trkpt>
      <trkpt lat="43.65438" lon="3.78621">
        <ele>68.87</ele>
        <time>2022-05-01T13:29:42Z</time>
      </trkpt>
      <trkpt lat="43.65436" lon="3.78618">
        <ele>68.87</ele>
        <time>2022-05-01T13:29:43Z</time>
      </trkpt>
      <trkpt lat="43.65435" lon="3.78615">
        <ele>68.87</ele>
        <time>2022-05-01T13:29:44Z</time>
      </trkpt>
      <trkpt lat="43.65434" lon="3.78611">
        <ele>68.87</ele>
        <time>2022-05-01T13:29:45Z</time>
      </trkpt>
      <trkpt lat="43.65434" lon="3.78606">
        <ele>68.87</ele>
        <time>2022-05-01T13:29:46Z</time>
      </trkpt>
      <trkpt lat="43.65434" lon="3.78601">
        <ele>68.87</ele>
        <time>2022-05-01T13:29:47Z</time>
      </trkpt>
      <trkpt lat="43.65428" lon="3.78531">
        <ele>72.72</ele>
        <time>2022-05-01T13:30:02Z</time>
      </trkpt>
      <trkpt lat="43.6545" lon="3.78464">
        <ele>74.64</ele>
        <time>2022-05-01T13:30:16Z</time>
      </trkpt>
      <trkpt lat="43.65486" lon="3.78396">
        <ele>77.04</ele>
        <time>2022-05-01T13:30:34Z</time>
      </trkpt>
      <trkpt lat="43.65526" lon="3.78352">
        <ele>78.97</ele>
        <time>2022-05-01T13:30:52Z</time>
      </trkpt>
      <trkpt lat="43.65568" lon="3.7835">
        <ele>80.41</ele>
        <time>2022-05-01T13:31:07Z</time>
      </trkpt>
      <trkpt lat="43.65613" lon="3.7833">
        <ele>83.29</ele>
        <time>2022-05-01T13:31:23Z</time>
      </trkpt>
      <trkpt lat="43.65644" lon="3.78298">
        <ele>86.66</ele>
        <time>2022-05-01T13:31:38Z</time>
      </trkpt>
      <trkpt lat="43.65671" lon="3.78255">
        <ele>88.1</ele>
        <time>2022-05-01T13:31:53Z</time>
      </trkpt>
      <trkpt lat="43.65707" lon="3.78197">
        <ele>87.62</ele>
        <time>2022-05-01T13:32:11Z</time>
      </trkpt>
      <trkpt lat="43.65759" lon="3.78158">
        <ele>89.54</ele>
        <time>2022-05-01T13:32:29Z</time>
      </trkpt>
      <trkpt lat="43.65801" lon="3.78113">
        <ele>91.46</ele>
        <time>2022-05-01T13:32:45Z</time>
      </trkpt>
      <trkpt lat="43.65822" lon="3.78061">
        <ele>95.79</ele>
        <time>2022-05-01T13:32:59Z</time>
      </trkpt>
      <trkpt lat="43.65839" lon="3.78013">
        <ele>98.19</ele>
        <time>2022-05-01T13:33:12Z</time>
      </trkpt>
      <trkpt lat="43.65874" lon="3.77949">
        <ele>97.71</ele>
        <time>2022-05-01T13:33:27Z</time>
      </trkpt>
      <trkpt lat="43.65912" lon="3.77898">
        <ele>96.27</ele>
        <time>2022-05-01T13:33:43Z</time>
      </trkpt>
      <trkpt lat="43.65934" lon="3.77875">
        <ele>94.83</ele>
        <time>2022-05-01T13:33:56Z</time>
      </trkpt>
      <trkpt lat="43.65932" lon="3.77871">
        <ele>93.87</ele>
        <time>2022-05-01T13:34:14Z</time>
      </trkpt>
      <trkpt lat="43.65934" lon="3.77873">
        <ele>92.9</ele>
        <time>2022-05-01T13:34:33Z</time>
      </trkpt>
      <trkpt lat="43.65935" lon="3.77871">
        <ele>91.46</ele>
        <time>2022-05-01T13:34:41Z</time>
      </trkpt>
      <trkpt lat="43.65935" lon="3.7787">
        <ele>91.46</ele>
        <time>2022-05-01T13:34:42Z</time>
      </trkpt>
      <trkpt lat="43.65964" lon="3.77826">
        <ele>94.35</ele>
        <time>2022-05-01T13:34:58Z</time>
      </trkpt>
      <trkpt lat="43.6599" lon="3.77772">
        <ele>94.83</ele>
        <time>2022-05-01T13:35:16Z</time>
      </trkpt>
      <trkpt lat="43.66011" lon="3.77728">
        <ele>97.23</ele>
        <time>2022-05-01T13:35:30Z</time>
      </trkpt>
      <trkpt lat="43.66036" lon="3.77673">
        <ele>99.15</ele>
        <time>2022-05-01T13:35:48Z</time>
      </trkpt>
      <trkpt lat="43.66064" lon="3.77608">
        <ele>100.11</ele>
        <time>2022-05-01T13:36:09Z</time>
      </trkpt>
      <trkpt lat="43.66079" lon="3.77575">
        <ele>102.52</ele>
        <time>2022-05-01T13:36:23Z</time>
      </trkpt>
      <trkpt lat="43.66092" lon="3.77542">
        <ele>107.32</ele>
        <time>2022-05-01T13:36:40Z</time>
      </trkpt>
      <trkpt lat="43.66113" lon="3.77514">
        <ele>110.69</ele>
        <time>2022-05-01T13:36:58Z</time>
      </trkpt>
      <trkpt lat="43.6613" lon="3.77483">
        <ele>108.77</ele>
        <time>2022-05-01T13:37:12Z</time>
      </trkpt>
      <trkpt lat="43.6615" lon="3.77439">
        <ele>104.44</ele>
        <time>2022-05-01T13:37:23Z</time>
      </trkpt>
      <trkpt lat="43.66153" lon="3.77435">
        <ele>103.96</ele>
        <time>2022-05-01T13:37:24Z</time>
      </trkpt>
      <trkpt lat="43.66156" lon="3.77431">
        <ele>103.48</ele>
        <time>2022-05-01T13:37:25Z</time>
      </trkpt>
      <trkpt lat="43.66172" lon="3.77414">
        <ele>101.56</ele>
        <time>2022-05-01T13:37:29Z</time>
      </trkpt>
      <trkpt lat="43.66177" lon="3.77408">
        <ele>101.08</ele>
        <time>2022-05-01T13:37:30Z</time>
      </trkpt>
      <trkpt lat="43.66181" lon="3.77402">
        <ele>100.6</ele>
        <time>2022-05-01T13:37:31Z</time>
      </trkpt>
      <trkpt lat="43.66184" lon="3.77394">
        <ele>100.11</ele>
        <time>2022-05-01T13:37:32Z</time>
      </trkpt>
      <trkpt lat="43.66187" lon="3.77386">
        <ele>99.63</ele>
        <time>2022-05-01T13:37:33Z</time>
      </trkpt>
      <trkpt lat="43.6619" lon="3.77377">
        <ele>99.15</ele>
        <time>2022-05-01T13:37:34Z</time>
      </trkpt>
      <trkpt lat="43.66192" lon="3.77369">
        <ele>98.67</ele>
        <time>2022-05-01T13:37:35Z</time>
      </trkpt>
      <trkpt lat="43.66194" lon="3.7736">
        <ele>98.19</ele>
        <time>2022-05-01T13:37:36Z</time>
      </trkpt>
      <trkpt lat="43.66195" lon="3.77352">
        <ele>98.19</ele>
        <time>2022-05-01T13:37:37Z</time>
      </trkpt>
      <trkpt lat="43.66195" lon="3.77344">
        <ele>97.71</ele>
        <time>2022-05-01T13:37:38Z</time>
      </trkpt>
      <trkpt lat="43.66196" lon="3.77337">
        <ele>97.23</ele>
        <time>2022-05-01T13:37:39Z</time>
      </trkpt>
      <trkpt lat="43.66198" lon="3.7733">
        <ele>97.23</ele>
        <time>2022-05-01T13:37:40Z</time>
      </trkpt>
      <trkpt lat="43.66216" lon="3.77221">
        <ele>92.9</ele>
        <time>2022-05-01T13:37:53Z</time>
      </trkpt>
      <trkpt lat="43.66227" lon="3.77168">
        <ele>90.98</ele>
        <time>2022-05-01T13:38:00Z</time>
      </trkpt>
      <trkpt lat="43.66228" lon="3.7716">
        <ele>90.5</ele>
        <time>2022-05-01T13:38:01Z</time>
      </trkpt>
      <trkpt lat="43.66229" lon="3.77152">
        <ele>90.5</ele>
        <time>2022-05-01T13:38:02Z</time>
      </trkpt>
      <trkpt lat="43.6623" lon="3.77144">
        <ele>90.02</ele>
        <time>2022-05-01T13:38:03Z</time>
      </trkpt>
      <trkpt lat="43.6623" lon="3.77135">
        <ele>89.54</ele>
        <time>2022-05-01T13:38:04Z</time>
      </trkpt>
      <trkpt lat="43.66229" lon="3.77127">
        <ele>89.06</ele>
        <time>2022-05-01T13:38:05Z</time>
      </trkpt>
      <trkpt lat="43.66232" lon="3.77069">
        <ele>87.14</ele>
        <time>2022-05-01T13:38:12Z</time>
      </trkpt>
      <trkpt lat="43.66235" lon="3.77054">
        <ele>86.18</ele>
        <time>2022-05-01T13:38:14Z</time>
      </trkpt>
      <trkpt lat="43.6625" lon="3.77018">
        <ele>85.21</ele>
        <time>2022-05-01T13:38:24Z</time>
      </trkpt>
      <trkpt lat="43.66251" lon="3.77015">
        <ele>86.18</ele>
        <time>2022-05-01T13:38:34Z</time>
      </trkpt>
      <trkpt lat="43.66253" lon="3.77014">
        <ele>86.18</ele>
        <time>2022-05-01T13:38:35Z</time>
      </trkpt>
      <trkpt lat="43.66254" lon="3.77012">
        <ele>86.18</ele>
        <time>2022-05-01T13:38:36Z</time>
      </trkpt>
      <trkpt lat="43.66256" lon="3.7701">
        <ele>85.69</ele>
        <time>2022-05-01T13:38:37Z</time>
      </trkpt>
      <trkpt lat="43.66257" lon="3.77007">
        <ele>85.69</ele>
        <time>2022-05-01T13:38:38Z</time>
      </trkpt>
      <trkpt lat="43.66258" lon="3.77004">
        <ele>85.69</ele>
        <time>2022-05-01T13:38:39Z</time>
      </trkpt>
      <trkpt lat="43.66261" lon="3.76987">
        <ele>85.69</ele>
        <time>2022-05-01T13:38:44Z</time>
      </trkpt>
      <trkpt lat="43.66259" lon="3.76984">
        <ele>85.69</ele>
        <time>2022-05-01T13:38:45Z</time>
      </trkpt>
      <trkpt lat="43.66258" lon="3.76982">
        <ele>86.18</ele>
        <time>2022-05-01T13:38:54Z</time>
      </trkpt>
      <trkpt lat="43.66259" lon="3.76984">
        <ele>88.1</ele>
        <time>2022-05-01T13:39:22Z</time>
      </trkpt>
      <trkpt lat="43.66257" lon="3.76984">
        <ele>88.58</ele>
        <time>2022-05-01T13:39:44Z</time>
      </trkpt>
      <trkpt lat="43.66257" lon="3.76985">
        <ele>90.5</ele>
        <time>2022-05-01T13:40:17Z</time>
      </trkpt>
      <trkpt lat="43.66251" lon="3.76985">
        <ele>89.06</ele>
        <time>2022-05-01T13:40:29Z</time>
      </trkpt>
      <trkpt lat="43.6625" lon="3.76982">
        <ele>88.1</ele>
        <time>2022-05-01T13:40:33Z</time>
      </trkpt>
      <trkpt lat="43.6624" lon="3.76974">
        <ele>88.1</ele>
        <time>2022-05-01T13:40:40Z</time>
      </trkpt>
      <trkpt lat="43.66198" lon="3.76951">
        <ele>87.62</ele>
        <time>2022-05-01T13:41:00Z</time>
      </trkpt>
      <trkpt lat="43.6615" lon="3.7692">
        <ele>88.1</ele>
        <time>2022-05-01T13:41:19Z</time>
      </trkpt>
      <trkpt lat="43.66101" lon="3.76877">
        <ele>89.06</ele>
        <time>2022-05-01T13:41:40Z</time>
      </trkpt>
      <trkpt lat="43.66067" lon="3.76867">
        <ele>88.58</ele>
        <time>2022-05-01T13:41:53Z</time>
      </trkpt>
      <trkpt lat="43.6601" lon="3.76855">
        <ele>88.58</ele>
        <time>2022-05-01T13:42:12Z</time>
      </trkpt>
      <trkpt lat="43.65959" lon="3.76869">
        <ele>89.06</ele>
        <time>2022-05-01T13:42:29Z</time>
      </trkpt>
      <trkpt lat="43.6591" lon="3.76879">
        <ele>92.42</ele>
        <time>2022-05-01T13:42:49Z</time>
      </trkpt>
      <trkpt lat="43.65877" lon="3.76853">
        <ele>90.5</ele>
        <time>2022-05-01T13:43:02Z</time>
      </trkpt>
      <trkpt lat="43.6585" lon="3.76805">
        <ele>90.02</ele>
        <time>2022-05-01T13:43:18Z</time>
      </trkpt>
      <trkpt lat="43.65817" lon="3.76766">
        <ele>89.54</ele>
        <time>2022-05-01T13:43:33Z</time>
      </trkpt>
      <trkpt lat="43.65801" lon="3.76744">
        <ele>90.5</ele>
        <time>2022-05-01T13:43:45Z</time>
      </trkpt>
      <trkpt lat="43.65802" lon="3.76742">
        <ele>90.98</ele>
        <time>2022-05-01T13:43:50Z</time>
      </trkpt>
      <trkpt lat="43.65801" lon="3.76736">
        <ele>92.9</ele>
        <time>2022-05-01T13:44:10Z</time>
      </trkpt>
      <trkpt lat="43.65799" lon="3.76733">
        <ele>90.5</ele>
        <time>2022-05-01T13:44:30Z</time>
      </trkpt>
      <trkpt lat="43.658" lon="3.76729">
        <ele>89.54</ele>
        <time>2022-05-01T13:44:43Z</time>
      </trkpt>
      <trkpt lat="43.65799" lon="3.76726">
        <ele>90.02</ele>
        <time>2022-05-01T13:44:53Z</time>
      </trkpt>
      <trkpt lat="43.658" lon="3.76723">
        <ele>90.98</ele>
        <time>2022-05-01T13:45:08Z</time>
      </trkpt>
      <trkpt lat="43.658" lon="3.76719">
        <ele>91.46</ele>
        <time>2022-05-01T13:45:23Z</time>
      </trkpt>
      <trkpt lat="43.65803" lon="3.76722">
        <ele>89.54</ele>
        <time>2022-05-01T13:45:36Z</time>
      </trkpt>
      <trkpt lat="43.65804" lon="3.76728">
        <ele>87.14</ele>
        <time>2022-05-01T13:45:48Z</time>
      </trkpt>
      <trkpt lat="43.65802" lon="3.76732">
        <ele>88.1</ele>
        <time>2022-05-01T13:46:04Z</time>
      </trkpt>
      <trkpt lat="43.65802" lon="3.76731">
        <ele>87.62</ele>
        <time>2022-05-01T13:46:20Z</time>
      </trkpt>
      <trkpt lat="43.65801" lon="3.76728">
        <ele>87.62</ele>
        <time>2022-05-01T13:46:34Z</time>
      </trkpt>
      <trkpt lat="43.658" lon="3.76727">
        <ele>88.1</ele>
        <time>2022-05-01T13:46:45Z</time>
      </trkpt>
      <trkpt lat="43.65801" lon="3.76723">
        <ele>90.5</ele>
        <time>2022-05-01T13:46:58Z</time>
      </trkpt>
      <trkpt lat="43.65802" lon="3.76718">
        <ele>90.98</ele>
        <time>2022-05-01T13:47:11Z</time>
      </trkpt>
      <trkpt lat="43.65801" lon="3.76717">
        <ele>90.02</ele>
        <time>2022-05-01T13:47:33Z</time>
      </trkpt>
      <trkpt lat="43.65802" lon="3.76719">
        <ele>88.58</ele>
        <time>2022-05-01T13:47:45Z</time>
      </trkpt>
      <trkpt lat="43.65801" lon="3.76719">
        <ele>87.14</ele>
        <time>2022-05-01T13:48:10Z</time>
      </trkpt>
      <trkpt lat="43.65801" lon="3.76719">
        <ele>88.58</ele>
        <time>2022-05-01T13:48:26Z</time>
      </trkpt>
      <trkpt lat="43.65797" lon="3.76717">
        <ele>88.58</ele>
        <time>2022-05-01T13:48:49Z</time>
      </trkpt>
      <trkpt lat="43.65782" lon="3.76719">
        <ele>90.02</ele>
        <time>2022-05-01T13:48:58Z</time>
      </trkpt>
      <trkpt lat="43.65736" lon="3.76713">
        <ele>90.02</ele>
        <time>2022-05-01T13:49:17Z</time>
      </trkpt>
      <trkpt lat="43.65704" lon="3.76673">
        <ele>91.46</ele>
        <time>2022-05-01T13:49:32Z</time>
      </trkpt>
      <trkpt lat="43.65689" lon="3.76611">
        <ele>93.39</ele>
        <time>2022-05-01T13:49:48Z</time>
      </trkpt>
      <trkpt lat="43.65693" lon="3.76542">
        <ele>96.27</ele>
        <time>2022-05-01T13:50:06Z</time>
      </trkpt>
      <trkpt lat="43.65701" lon="3.76482">
        <ele>99.63</ele>
        <time>2022-05-01T13:50:23Z</time>
      </trkpt>
      <trkpt lat="43.65689" lon="3.76415">
        <ele>102.04</ele>
        <time>2022-05-01T13:50:43Z</time>
      </trkpt>
      <trkpt lat="43.6568" lon="3.76385">
        <ele>102.52</ele>
        <time>2022-05-01T13:50:55Z</time>
      </trkpt>
      <trkpt lat="43.65683" lon="3.76387">
        <ele>104.44</ele>
        <time>2022-05-01T13:51:10Z</time>
      </trkpt>
      <trkpt lat="43.65683" lon="3.76387">
        <ele>103.48</ele>
        <time>2022-05-01T13:51:32Z</time>
      </trkpt>
      <trkpt lat="43.65684" lon="3.76386">
        <ele>103.48</ele>
        <time>2022-05-01T13:51:59Z</time>
      </trkpt>
      <trkpt lat="43.6568" lon="3.76385">
        <ele>103.96</ele>
        <time>2022-05-01T13:52:13Z</time>
      </trkpt>
      <trkpt lat="43.65679" lon="3.76366">
        <ele>103</ele>
        <time>2022-05-01T13:52:25Z</time>
      </trkpt>
      <trkpt lat="43.65695" lon="3.7632">
        <ele>105.4</ele>
        <time>2022-05-01T13:52:40Z</time>
      </trkpt>
      <trkpt lat="43.6572" lon="3.76242">
        <ele>103.96</ele>
        <time>2022-05-01T13:52:57Z</time>
      </trkpt>
      <trkpt lat="43.65727" lon="3.76176">
        <ele>104.44</ele>
        <time>2022-05-01T13:53:12Z</time>
      </trkpt>
      <trkpt lat="43.65728" lon="3.76115">
        <ele>105.88</ele>
        <time>2022-05-01T13:53:27Z</time>
      </trkpt>
      <trkpt lat="43.65731" lon="3.76033">
        <ele>107.81</ele>
        <time>2022-05-01T13:53:48Z</time>
      </trkpt>
      <trkpt lat="43.65733" lon="3.75982">
        <ele>109.25</ele>
        <time>2022-05-01T13:54:03Z</time>
      </trkpt>
      <trkpt lat="43.65722" lon="3.75932">
        <ele>111.17</ele>
        <time>2022-05-01T13:54:19Z</time>
      </trkpt>
      <trkpt lat="43.65712" lon="3.75884">
        <ele>113.57</ele>
        <time>2022-05-01T13:54:37Z</time>
      </trkpt>
      <trkpt lat="43.65707" lon="3.75838">
        <ele>117.42</ele>
        <time>2022-05-01T13:54:57Z</time>
      </trkpt>
      <trkpt lat="43.65707" lon="3.7579">
        <ele>121.74</ele>
        <time>2022-05-01T13:55:19Z</time>
      </trkpt>
      <trkpt lat="43.65706" lon="3.75745">
        <ele>124.63</ele>
        <time>2022-05-01T13:55:37Z</time>
      </trkpt>
      <trkpt lat="43.657" lon="3.75714">
        <ele>125.11</ele>
        <time>2022-05-01T13:55:53Z</time>
      </trkpt>
      <trkpt lat="43.65701" lon="3.75714">
        <ele>124.15</ele>
        <time>2022-05-01T13:56:27Z</time>
      </trkpt>
      <trkpt lat="43.65696" lon="3.75718">
        <ele>125.59</ele>
        <time>2022-05-01T13:56:38Z</time>
      </trkpt>
      <trkpt lat="43.65672" lon="3.75715">
        <ele>127.51</ele>
        <time>2022-05-01T13:56:53Z</time>
      </trkpt>
      <trkpt lat="43.65641" lon="3.75713">
        <ele>129.43</ele>
        <time>2022-05-01T13:57:10Z</time>
      </trkpt>
      <trkpt lat="43.656" lon="3.7571">
        <ele>130.88</ele>
        <time>2022-05-01T13:57:32Z</time>
      </trkpt>
      <trkpt lat="43.65552" lon="3.75702">
        <ele>132.8</ele>
        <time>2022-05-01T13:57:55Z</time>
      </trkpt>
      <trkpt lat="43.65534" lon="3.75661">
        <ele>135.2</ele>
        <time>2022-05-01T13:58:10Z</time>
      </trkpt>
      <trkpt lat="43.65532" lon="3.75604">
        <ele>138.09</ele>
        <time>2022-05-01T13:58:27Z</time>
      </trkpt>
      <trkpt lat="43.65529" lon="3.75555">
        <ele>140.97</ele>
        <time>2022-05-01T13:58:43Z</time>
      </trkpt>
      <trkpt lat="43.65501" lon="3.75495">
        <ele>142.89</ele>
        <time>2022-05-01T13:59:06Z</time>
      </trkpt>
      <trkpt lat="43.65475" lon="3.75441">
        <ele>143.37</ele>
        <time>2022-05-01T13:59:25Z</time>
      </trkpt>
      <trkpt lat="43.65448" lon="3.75397">
        <ele>144.82</ele>
        <time>2022-05-01T13:59:42Z</time>
      </trkpt>
      <trkpt lat="43.6543" lon="3.75365">
        <ele>146.74</ele>
        <time>2022-05-01T13:59:57Z</time>
      </trkpt>
      <trkpt lat="43.6543" lon="3.75361">
        <ele>147.22</ele>
        <time>2022-05-01T13:59:59Z</time>
      </trkpt>
      <trkpt lat="43.6543" lon="3.75358">
        <ele>147.7</ele>
        <time>2022-05-01T14:00:00Z</time>
      </trkpt>
      <trkpt lat="43.65431" lon="3.75356">
        <ele>147.7</ele>
        <time>2022-05-01T14:00:01Z</time>
      </trkpt>
      <trkpt lat="43.65431" lon="3.75354">
        <ele>148.18</ele>
        <time>2022-05-01T14:00:02Z</time>
      </trkpt>
      <trkpt lat="43.65432" lon="3.75352">
        <ele>148.66</ele>
        <time>2022-05-01T14:00:03Z</time>
      </trkpt>
      <trkpt lat="43.65434" lon="3.75351">
        <ele>149.14</ele>
        <time>2022-05-01T14:00:04Z</time>
      </trkpt>
      <trkpt lat="43.65435" lon="3.75349">
        <ele>149.14</ele>
        <time>2022-05-01T14:00:05Z</time>
      </trkpt>
      <trkpt lat="43.65437" lon="3.75348">
        <ele>149.62</ele>
        <time>2022-05-01T14:00:06Z</time>
      </trkpt>
      <trkpt lat="43.65439" lon="3.75347">
        <ele>149.62</ele>
        <time>2022-05-01T14:00:07Z</time>
      </trkpt>
      <trkpt lat="43.65441" lon="3.75347">
        <ele>149.62</ele>
        <time>2022-05-01T14:00:08Z</time>
      </trkpt>
      <trkpt lat="43.65443" lon="3.75346">
        <ele>149.62</ele>
        <time>2022-05-01T14:00:09Z</time>
      </trkpt>
      <trkpt lat="43.65447" lon="3.75344">
        <ele>150.1</ele>
        <time>2022-05-01T14:00:11Z</time>
      </trkpt>
      <trkpt lat="43.65448" lon="3.75342">
        <ele>150.1</ele>
        <time>2022-05-01T14:00:12Z</time>
      </trkpt>
      <trkpt lat="43.65449" lon="3.7534">
        <ele>150.1</ele>
        <time>2022-05-01T14:00:13Z</time>
      </trkpt>
      <trkpt lat="43.65449" lon="3.75338">
        <ele>150.58</ele>
        <time>2022-05-01T14:00:14Z</time>
      </trkpt>
      <trkpt lat="43.65449" lon="3.75336">
        <ele>150.58</ele>
        <time>2022-05-01T14:00:15Z</time>
      </trkpt>
      <trkpt lat="43.65449" lon="3.75334">
        <ele>150.58</ele>
        <time>2022-05-01T14:00:16Z</time>
      </trkpt>
      <trkpt lat="43.65448" lon="3.75331">
        <ele>151.06</ele>
        <time>2022-05-01T14:00:17Z</time>
      </trkpt>
      <trkpt lat="43.65447" lon="3.7533">
        <ele>151.06</ele>
        <time>2022-05-01T14:00:18Z</time>
      </trkpt>
      <trkpt lat="43.65446" lon="3.75328">
        <ele>151.06</ele>
        <time>2022-05-01T14:00:19Z</time>
      </trkpt>
      <trkpt lat="43.65445" lon="3.75326">
        <ele>151.06</ele>
        <time>2022-05-01T14:00:20Z</time>
      </trkpt>
      <trkpt lat="43.65444" lon="3.75324">
        <ele>151.54</ele>
        <time>2022-05-01T14:00:21Z</time>
      </trkpt>
      <trkpt lat="43.65443" lon="3.75323">
        <ele>151.54</ele>
        <time>2022-05-01T14:00:22Z</time>
      </trkpt>
      <trkpt lat="43.65442" lon="3.75321">
        <ele>151.54</ele>
        <time>2022-05-01T14:00:23Z</time>
      </trkpt>
      <trkpt lat="43.65425" lon="3.75309">
        <ele>153.47</ele>
        <time>2022-05-01T14:00:39Z</time>
      </trkpt>
      <trkpt lat="43.65426" lon="3.75309">
        <ele>152.51</ele>
        <time>2022-05-01T14:01:07Z</time>
      </trkpt>
      <trkpt lat="43.65392" lon="3.7531">
        <ele>153.47</ele>
        <time>2022-05-01T14:01:22Z</time>
      </trkpt>
      <trkpt lat="43.65382" lon="3.75277">
        <ele>155.87</ele>
        <time>2022-05-01T14:01:36Z</time>
      </trkpt>
      <trkpt lat="43.65374" lon="3.75244">
        <ele>160.2</ele>
        <time>2022-05-01T14:01:53Z</time>
      </trkpt>
      <trkpt lat="43.65374" lon="3.75245">
        <ele>159.72</ele>
        <time>2022-05-01T14:02:12Z</time>
      </trkpt>
      <trkpt lat="43.65373" lon="3.75244">
        <ele>159.24</ele>
        <time>2022-05-01T14:02:38Z</time>
      </trkpt>
      <trkpt lat="43.65373" lon="3.75242">
        <ele>159.24</ele>
        <time>2022-05-01T14:02:58Z</time>
      </trkpt>
      <trkpt lat="43.65373" lon="3.75241">
        <ele>159.24</ele>
        <time>2022-05-01T14:03:11Z</time>
      </trkpt>
      <trkpt lat="43.65373" lon="3.75242">
        <ele>159.24</ele>
        <time>2022-05-01T14:03:35Z</time>
      </trkpt>
      <trkpt lat="43.65371" lon="3.75236">
        <ele>160.68</ele>
        <time>2022-05-01T14:03:49Z</time>
      </trkpt>
      <trkpt lat="43.65362" lon="3.75197">
        <ele>164.04</ele>
        <time>2022-05-01T14:04:07Z</time>
      </trkpt>
      <trkpt lat="43.6535" lon="3.75158">
        <ele>168.37</ele>
        <time>2022-05-01T14:04:26Z</time>
      </trkpt>
      <trkpt lat="43.6534" lon="3.75129">
        <ele>171.73</ele>
        <time>2022-05-01T14:04:42Z</time>
      </trkpt>
      <trkpt lat="43.65331" lon="3.75102">
        <ele>174.62</ele>
        <time>2022-05-01T14:04:57Z</time>
      </trkpt>
      <trkpt lat="43.6532" lon="3.75097">
        <ele>175.1</ele>
        <time>2022-05-01T14:05:11Z</time>
      </trkpt>
      <trkpt lat="43.65322" lon="3.75098">
        <ele>176.06</ele>
        <time>2022-05-01T14:05:36Z</time>
      </trkpt>
      <trkpt lat="43.65315" lon="3.75095">
        <ele>177.02</ele>
        <time>2022-05-01T14:06:01Z</time>
      </trkpt>
      <trkpt lat="43.65257" lon="3.75089">
        <ele>173.17</ele>
        <time>2022-05-01T14:06:17Z</time>
      </trkpt>
      <trkpt lat="43.65237" lon="3.75085">
        <ele>172.21</ele>
        <time>2022-05-01T14:06:22Z</time>
      </trkpt>
      <trkpt lat="43.65167" lon="3.75056">
        <ele>170.29</ele>
        <time>2022-05-01T14:06:39Z</time>
      </trkpt>
      <trkpt lat="43.65151" lon="3.75017">
        <ele>169.81</ele>
        <time>2022-05-01T14:06:50Z</time>
      </trkpt>
      <trkpt lat="43.65152" lon="3.75014">
        <ele>169.81</ele>
        <time>2022-05-01T14:06:51Z</time>
      </trkpt>
      <trkpt lat="43.65171" lon="3.7496">
        <ele>175.58</ele>
        <time>2022-05-01T14:07:09Z</time>
      </trkpt>
      <trkpt lat="43.65185" lon="3.74925">
        <ele>178.94</ele>
        <time>2022-05-01T14:07:23Z</time>
      </trkpt>
      <trkpt lat="43.65198" lon="3.74888">
        <ele>180.87</ele>
        <time>2022-05-01T14:07:40Z</time>
      </trkpt>
      <trkpt lat="43.65214" lon="3.74831">
        <ele>183.27</ele>
        <time>2022-05-01T14:08:02Z</time>
      </trkpt>
      <trkpt lat="43.65218" lon="3.74785">
        <ele>184.71</ele>
        <time>2022-05-01T14:08:19Z</time>
      </trkpt>
      <trkpt lat="43.65226" lon="3.74727">
        <ele>186.15</ele>
        <time>2022-05-01T14:08:38Z</time>
      </trkpt>
      <trkpt lat="43.65219" lon="3.74675">
        <ele>187.11</ele>
        <time>2022-05-01T14:08:55Z</time>
      </trkpt>
      <trkpt lat="43.65204" lon="3.74657">
        <ele>186.63</ele>
        <time>2022-05-01T14:09:00Z</time>
      </trkpt>
      <trkpt lat="43.65167" lon="3.7462">
        <ele>184.23</ele>
        <time>2022-05-01T14:09:10Z</time>
      </trkpt>
      <trkpt lat="43.65157" lon="3.74599">
        <ele>184.23</ele>
        <time>2022-05-01T14:09:17Z</time>
      </trkpt>
      <trkpt lat="43.65157" lon="3.74596">
        <ele>184.71</ele>
        <time>2022-05-01T14:09:18Z</time>
      </trkpt>
      <trkpt lat="43.65158" lon="3.74594">
        <ele>184.71</ele>
        <time>2022-05-01T14:09:19Z</time>
      </trkpt>
      <trkpt lat="43.65158" lon="3.74591">
        <ele>184.71</ele>
        <time>2022-05-01T14:09:20Z</time>
      </trkpt>
      <trkpt lat="43.65159" lon="3.74589">
        <ele>185.19</ele>
        <time>2022-05-01T14:09:21Z</time>
      </trkpt>
      <trkpt lat="43.6516" lon="3.74587">
        <ele>185.19</ele>
        <time>2022-05-01T14:09:22Z</time>
      </trkpt>
      <trkpt lat="43.65161" lon="3.74585">
        <ele>185.19</ele>
        <time>2022-05-01T14:09:23Z</time>
      </trkpt>
      <trkpt lat="43.65178" lon="3.74545">
        <ele>190.48</ele>
        <time>2022-05-01T14:09:39Z</time>
      </trkpt>
      <trkpt lat="43.65197" lon="3.74525">
        <ele>192.4</ele>
        <time>2022-05-01T14:09:51Z</time>
      </trkpt>
      <trkpt lat="43.65234" lon="3.7452">
        <ele>192.88</ele>
        <time>2022-05-01T14:10:10Z</time>
      </trkpt>
      <trkpt lat="43.65262" lon="3.74517">
        <ele>193.36</ele>
        <time>2022-05-01T14:10:25Z</time>
      </trkpt>
      <trkpt lat="43.65273" lon="3.74481">
        <ele>194.8</ele>
        <time>2022-05-01T14:10:39Z</time>
      </trkpt>
      <trkpt lat="43.65278" lon="3.74473">
        <ele>195.28</ele>
        <time>2022-05-01T14:10:48Z</time>
      </trkpt>
      <trkpt lat="43.65277" lon="3.74473">
        <ele>194.8</ele>
        <time>2022-05-01T14:11:04Z</time>
      </trkpt>
      <trkpt lat="43.65277" lon="3.74474">
        <ele>194.8</ele>
        <time>2022-05-01T14:11:22Z</time>
      </trkpt>
      <trkpt lat="43.65277" lon="3.74474">
        <ele>193.36</ele>
        <time>2022-05-01T14:11:43Z</time>
      </trkpt>
      <trkpt lat="43.65277" lon="3.74475">
        <ele>191.92</ele>
        <time>2022-05-01T14:12:11Z</time>
      </trkpt>
      <trkpt lat="43.65278" lon="3.74472">
        <ele>192.4</ele>
        <time>2022-05-01T14:12:39Z</time>
      </trkpt>
      <trkpt lat="43.65277" lon="3.74472">
        <ele>192.88</ele>
        <time>2022-05-01T14:13:05Z</time>
      </trkpt>
      <trkpt lat="43.65277" lon="3.74475">
        <ele>191.92</ele>
        <time>2022-05-01T14:13:31Z</time>
      </trkpt>
      <trkpt lat="43.65277" lon="3.74475">
        <ele>192.88</ele>
        <time>2022-05-01T14:13:49Z</time>
      </trkpt>
      <trkpt lat="43.65277" lon="3.74475">
        <ele>192.4</ele>
        <time>2022-05-01T14:14:03Z</time>
      </trkpt>
      <trkpt lat="43.65279" lon="3.74472">
        <ele>194.32</ele>
        <time>2022-05-01T14:14:23Z</time>
      </trkpt>
      <trkpt lat="43.65273" lon="3.74439">
        <ele>194.32</ele>
        <time>2022-05-01T14:14:39Z</time>
      </trkpt>
      <trkpt lat="43.65256" lon="3.7439">
        <ele>191.92</ele>
        <time>2022-05-01T14:14:57Z</time>
      </trkpt>
      <trkpt lat="43.65252" lon="3.7433">
        <ele>191.44</ele>
        <time>2022-05-01T14:15:15Z</time>
      </trkpt>
      <trkpt lat="43.6525" lon="3.74292">
        <ele>191.92</ele>
        <time>2022-05-01T14:15:32Z</time>
      </trkpt>
      <trkpt lat="43.6525" lon="3.7429">
        <ele>190.48</ele>
        <time>2022-05-01T14:15:43Z</time>
      </trkpt>
      <trkpt lat="43.65249" lon="3.74288">
        <ele>190</ele>
        <time>2022-05-01T14:15:44Z</time>
      </trkpt>
      <trkpt lat="43.65248" lon="3.74287">
        <ele>190</ele>
        <time>2022-05-01T14:15:45Z</time>
      </trkpt>
      <trkpt lat="43.65247" lon="3.74285">
        <ele>190</ele>
        <time>2022-05-01T14:15:46Z</time>
      </trkpt>
      <trkpt lat="43.65246" lon="3.74283">
        <ele>189.52</ele>
        <time>2022-05-01T14:15:47Z</time>
      </trkpt>
      <trkpt lat="43.65245" lon="3.74281">
        <ele>189.52</ele>
        <time>2022-05-01T14:15:48Z</time>
      </trkpt>
      <trkpt lat="43.65224" lon="3.74229">
        <ele>184.71</ele>
        <time>2022-05-01T14:16:01Z</time>
      </trkpt>
      <trkpt lat="43.65225" lon="3.74225">
        <ele>182.31</ele>
        <time>2022-05-01T14:16:12Z</time>
      </trkpt>
      <trkpt lat="43.65225" lon="3.74225">
        <ele>179.9</ele>
        <time>2022-05-01T14:16:22Z</time>
      </trkpt>
      <trkpt lat="43.65224" lon="3.74224">
        <ele>179.42</ele>
        <time>2022-05-01T14:16:23Z</time>
      </trkpt>
      <trkpt lat="43.65201" lon="3.74188">
        <ele>177.02</ele>
        <time>2022-05-01T14:16:35Z</time>
      </trkpt>
      <trkpt lat="43.65175" lon="3.74113">
        <ele>172.21</ele>
        <time>2022-05-01T14:16:49Z</time>
      </trkpt>
      <trkpt lat="43.65159" lon="3.74037">
        <ele>167.89</ele>
        <time>2022-05-01T14:17:03Z</time>
      </trkpt>
      <trkpt lat="43.65159" lon="3.74033">
        <ele>166.45</ele>
        <time>2022-05-01T14:17:12Z</time>
      </trkpt>
      <trkpt lat="43.65159" lon="3.74034">
        <ele>165.96</ele>
        <time>2022-05-01T14:17:34Z</time>
      </trkpt>
      <trkpt lat="43.65158" lon="3.74022">
        <ele>163.56</ele>
        <time>2022-05-01T14:17:59Z</time>
      </trkpt>
      <trkpt lat="43.65135" lon="3.73944">
        <ele>161.64</ele>
        <time>2022-05-01T14:18:16Z</time>
      </trkpt>
      <trkpt lat="43.65125" lon="3.7392">
        <ele>159.72</ele>
        <time>2022-05-01T14:18:27Z</time>
      </trkpt>
      <trkpt lat="43.65122" lon="3.73906">
        <ele>157.79</ele>
        <time>2022-05-01T14:18:43Z</time>
      </trkpt>
      <trkpt lat="43.65124" lon="3.73913">
        <ele>158.75</ele>
        <time>2022-05-01T14:19:07Z</time>
      </trkpt>
      <trkpt lat="43.65126" lon="3.73921">
        <ele>159.24</ele>
        <time>2022-05-01T14:19:13Z</time>
      </trkpt>
      <trkpt lat="43.65126" lon="3.73926">
        <ele>164.04</ele>
        <time>2022-05-01T14:19:28Z</time>
      </trkpt>
      <trkpt lat="43.65125" lon="3.73926">
        <ele>163.56</ele>
        <time>2022-05-01T14:19:52Z</time>
      </trkpt>
      <trkpt lat="43.65124" lon="3.73927">
        <ele>161.16</ele>
        <time>2022-05-01T14:20:05Z</time>
      </trkpt>
      <trkpt lat="43.65116" lon="3.73947">
        <ele>159.72</ele>
        <time>2022-05-01T14:20:21Z</time>
      </trkpt>
      <trkpt lat="43.65105" lon="3.73976">
        <ele>160.2</ele>
        <time>2022-05-01T14:20:40Z</time>
      </trkpt>
      <trkpt lat="43.65089" lon="3.74001">
        <ele>163.56</ele>
        <time>2022-05-01T14:20:59Z</time>
      </trkpt>
      <trkpt lat="43.65071" lon="3.74002">
        <ele>165.48</ele>
        <time>2022-05-01T14:21:15Z</time>
      </trkpt>
      <trkpt lat="43.65063" lon="3.74001">
        <ele>166.45</ele>
        <time>2022-05-01T14:21:22Z</time>
      </trkpt>
      <trkpt lat="43.6504" lon="3.7399">
        <ele>166.45</ele>
        <time>2022-05-01T14:21:41Z</time>
      </trkpt>
      <trkpt lat="43.6504" lon="3.7399">
        <ele>163.56</ele>
        <time>2022-05-01T14:21:49Z</time>
      </trkpt>
      <trkpt lat="43.65041" lon="3.73991">
        <ele>163.56</ele>
        <time>2022-05-01T14:21:50Z</time>
      </trkpt>
      <trkpt lat="43.65054" lon="3.73986">
        <ele>158.75</ele>
        <time>2022-05-01T14:22:06Z</time>
      </trkpt>
      <trkpt lat="43.65067" lon="3.73981">
        <ele>156.35</ele>
        <time>2022-05-01T14:22:24Z</time>
      </trkpt>
      <trkpt lat="43.65082" lon="3.73972">
        <ele>156.35</ele>
        <time>2022-05-01T14:22:34Z</time>
      </trkpt>
      <trkpt lat="43.65106" lon="3.7395">
        <ele>158.27</ele>
        <time>2022-05-01T14:22:55Z</time>
      </trkpt>
      <trkpt lat="43.65125" lon="3.73923">
        <ele>155.87</ele>
        <time>2022-05-01T14:23:18Z</time>
      </trkpt>
      <trkpt lat="43.65125" lon="3.73926">
        <ele>155.39</ele>
        <time>2022-05-01T14:23:32Z</time>
      </trkpt>
      <trkpt lat="43.65126" lon="3.73926">
        <ele>154.91</ele>
        <time>2022-05-01T14:23:55Z</time>
      </trkpt>
      <trkpt lat="43.65124" lon="3.73929">
        <ele>156.35</ele>
        <time>2022-05-01T14:24:16Z</time>
      </trkpt>
      <trkpt lat="43.65122" lon="3.73931">
        <ele>157.79</ele>
        <time>2022-05-01T14:24:45Z</time>
      </trkpt>
      <trkpt lat="43.65125" lon="3.73925">
        <ele>158.27</ele>
        <time>2022-05-01T14:25:02Z</time>
      </trkpt>
      <trkpt lat="43.65123" lon="3.73929">
        <ele>157.31</ele>
        <time>2022-05-01T14:25:16Z</time>
      </trkpt>
      <trkpt lat="43.65123" lon="3.7393">
        <ele>157.79</ele>
        <time>2022-05-01T14:25:17Z</time>
      </trkpt>
      <trkpt lat="43.65115" lon="3.73951">
        <ele>159.24</ele>
        <time>2022-05-01T14:25:32Z</time>
      </trkpt>
      <trkpt lat="43.65104" lon="3.73975">
        <ele>160.2</ele>
        <time>2022-05-01T14:25:49Z</time>
      </trkpt>
      <trkpt lat="43.65092" lon="3.73995">
        <ele>163.08</ele>
        <time>2022-05-01T14:26:07Z</time>
      </trkpt>
      <trkpt lat="43.65081" lon="3.74004">
        <ele>164.04</ele>
        <time>2022-05-01T14:26:25Z</time>
      </trkpt>
      <trkpt lat="43.65076" lon="3.74004">
        <ele>164.04</ele>
        <time>2022-05-01T14:26:48Z</time>
      </trkpt>
      <trkpt lat="43.65041" lon="3.73993">
        <ele>165.48</ele>
        <time>2022-05-01T14:27:05Z</time>
      </trkpt>
      <trkpt lat="43.65037" lon="3.73993">
        <ele>164.04</ele>
        <time>2022-05-01T14:27:20Z</time>
      </trkpt>
      <trkpt lat="43.65034" lon="3.73992">
        <ele>161.64</ele>
        <time>2022-05-01T14:27:50Z</time>
      </trkpt>
      <trkpt lat="43.65036" lon="3.73994">
        <ele>160.2</ele>
        <time>2022-05-01T14:28:18Z</time>
      </trkpt>
      <trkpt lat="43.65035" lon="3.73993">
        <ele>157.79</ele>
        <time>2022-05-01T14:28:48Z</time>
      </trkpt>
      <trkpt lat="43.65034" lon="3.73995">
        <ele>157.79</ele>
        <time>2022-05-01T14:28:54Z</time>
      </trkpt>
      <trkpt lat="43.65004" lon="3.74041">
        <ele>156.83</ele>
        <time>2022-05-01T14:29:09Z</time>
      </trkpt>
      <trkpt lat="43.64987" lon="3.74056">
        <ele>156.35</ele>
        <time>2022-05-01T14:29:14Z</time>
      </trkpt>
      <trkpt lat="43.64966" lon="3.74085">
        <ele>155.87</ele>
        <time>2022-05-01T14:29:20Z</time>
      </trkpt>
      <trkpt lat="43.64963" lon="3.74091">
        <ele>155.87</ele>
        <time>2022-05-01T14:29:21Z</time>
      </trkpt>
      <trkpt lat="43.64929" lon="3.74188">
        <ele>153.47</ele>
        <time>2022-05-01T14:29:38Z</time>
      </trkpt>
      <trkpt lat="43.64916" lon="3.74271">
        <ele>151.06</ele>
        <time>2022-05-01T14:29:55Z</time>
      </trkpt>
      <trkpt lat="43.64886" lon="3.74366">
        <ele>144.82</ele>
        <time>2022-05-01T14:30:11Z</time>
      </trkpt>
      <trkpt lat="43.64856" lon="3.74471">
        <ele>140.01</ele>
        <time>2022-05-01T14:30:31Z</time>
      </trkpt>
      <trkpt lat="43.64853" lon="3.74473">
        <ele>138.09</ele>
        <time>2022-05-01T14:30:42Z</time>
      </trkpt>
      <trkpt lat="43.64849" lon="3.74491">
        <ele>134.72</ele>
        <time>2022-05-01T14:31:02Z</time>
      </trkpt>
      <trkpt lat="43.64841" lon="3.74548">
        <ele>133.76</ele>
        <time>2022-05-01T14:31:15Z</time>
      </trkpt>
      <trkpt lat="43.64827" lon="3.74626">
        <ele>132.32</ele>
        <time>2022-05-01T14:31:29Z</time>
      </trkpt>
      <trkpt lat="43.64797" lon="3.74686">
        <ele>130.4</ele>
        <time>2022-05-01T14:31:43Z</time>
      </trkpt>
      <trkpt lat="43.64772" lon="3.74743">
        <ele>128.47</ele>
        <time>2022-05-01T14:31:57Z</time>
      </trkpt>
      <trkpt lat="43.64769" lon="3.74745">
        <ele>130.4</ele>
        <time>2022-05-01T14:32:11Z</time>
      </trkpt>
      <trkpt lat="43.64768" lon="3.74743">
        <ele>127.51</ele>
        <time>2022-05-01T14:32:34Z</time>
      </trkpt>
      <trkpt lat="43.64767" lon="3.74743">
        <ele>127.51</ele>
        <time>2022-05-01T14:32:49Z</time>
      </trkpt>
      <trkpt lat="43.64769" lon="3.74746">
        <ele>128.47</ele>
        <time>2022-05-01T14:33:10Z</time>
      </trkpt>
      <trkpt lat="43.64768" lon="3.74744">
        <ele>128.95</ele>
        <time>2022-05-01T14:33:43Z</time>
      </trkpt>
      <trkpt lat="43.64768" lon="3.74744">
        <ele>127.51</ele>
        <time>2022-05-01T14:34:17Z</time>
      </trkpt>
      <trkpt lat="43.64766" lon="3.74744">
        <ele>127.51</ele>
        <time>2022-05-01T14:34:19Z</time>
      </trkpt>
      <trkpt lat="43.64765" lon="3.74744">
        <ele>127.03</ele>
        <time>2022-05-01T14:34:20Z</time>
      </trkpt>
      <trkpt lat="43.64737" lon="3.74725">
        <ele>126.07</ele>
        <time>2022-05-01T14:34:35Z</time>
      </trkpt>
      <trkpt lat="43.64696" lon="3.74681">
        <ele>123.19</ele>
        <time>2022-05-01T14:34:56Z</time>
      </trkpt>
      <trkpt lat="43.64654" lon="3.74611">
        <ele>120.3</ele>
        <time>2022-05-01T14:35:16Z</time>
      </trkpt>
      <trkpt lat="43.64618" lon="3.74524">
        <ele>115.98</ele>
        <time>2022-05-01T14:35:36Z</time>
      </trkpt>
      <trkpt lat="43.64591" lon="3.74418">
        <ele>120.78</ele>
        <time>2022-05-01T14:35:56Z</time>
      </trkpt>
      <trkpt lat="43.64568" lon="3.74323">
        <ele>125.59</ele>
        <time>2022-05-01T14:36:18Z</time>
      </trkpt>
      <trkpt lat="43.64543" lon="3.74205">
        <ele>128.95</ele>
        <time>2022-05-01T14:36:45Z</time>
      </trkpt>
      <trkpt lat="43.64522" lon="3.74107">
        <ele>132.32</ele>
        <time>2022-05-01T14:37:08Z</time>
      </trkpt>
      <trkpt lat="43.64503" lon="3.74023">
        <ele>132.8</ele>
        <time>2022-05-01T14:37:29Z</time>
      </trkpt>
      <trkpt lat="43.64498" lon="3.73963">
        <ele>132.8</ele>
        <time>2022-05-01T14:37:48Z</time>
      </trkpt>
      <trkpt lat="43.645" lon="3.73938">
        <ele>134.24</ele>
        <time>2022-05-01T14:38:02Z</time>
      </trkpt>
      <trkpt lat="43.64501" lon="3.73938">
        <ele>133.76</ele>
        <time>2022-05-01T14:38:21Z</time>
      </trkpt>
      <trkpt lat="43.64502" lon="3.73925">
        <ele>135.2</ele>
        <time>2022-05-01T14:38:45Z</time>
      </trkpt>
      <trkpt lat="43.64489" lon="3.73869">
        <ele>138.09</ele>
        <time>2022-05-01T14:39:03Z</time>
      </trkpt>
      <trkpt lat="43.64455" lon="3.73848">
        <ele>140.49</ele>
        <time>2022-05-01T14:39:15Z</time>
      </trkpt>
      <trkpt lat="43.64427" lon="3.73781">
        <ele>141.45</ele>
        <time>2022-05-01T14:39:34Z</time>
      </trkpt>
      <trkpt lat="43.64395" lon="3.73721">
        <ele>140.97</ele>
        <time>2022-05-01T14:39:54Z</time>
      </trkpt>
      <trkpt lat="43.64366" lon="3.73655">
        <ele>141.93</ele>
        <time>2022-05-01T14:40:12Z</time>
      </trkpt>
      <trkpt lat="43.64341" lon="3.73666">
        <ele>142.41</ele>
        <time>2022-05-01T14:40:22Z</time>
      </trkpt>
      <trkpt lat="43.64301" lon="3.73733">
        <ele>142.41</ele>
        <time>2022-05-01T14:40:41Z</time>
      </trkpt>
      <trkpt lat="43.64266" lon="3.73817">
        <ele>141.93</ele>
        <time>2022-05-01T14:41:00Z</time>
      </trkpt>
      <trkpt lat="43.64238" lon="3.73902">
        <ele>140.97</ele>
        <time>2022-05-01T14:41:21Z</time>
      </trkpt>
      <trkpt lat="43.64209" lon="3.73993">
        <ele>141.93</ele>
        <time>2022-05-01T14:41:44Z</time>
      </trkpt>
      <trkpt lat="43.64179" lon="3.74102">
        <ele>141.93</ele>
        <time>2022-05-01T14:42:06Z</time>
      </trkpt>
      <trkpt lat="43.64144" lon="3.74208">
        <ele>143.85</ele>
        <time>2022-05-01T14:42:26Z</time>
      </trkpt>
      <trkpt lat="43.64137" lon="3.74226">
        <ele>143.85</ele>
        <time>2022-05-01T14:42:30Z</time>
      </trkpt>
      <trkpt lat="43.64137" lon="3.74232">
        <ele>143.85</ele>
        <time>2022-05-01T14:42:31Z</time>
      </trkpt>
      <trkpt lat="43.64137" lon="3.74238">
        <ele>143.85</ele>
        <time>2022-05-01T14:42:32Z</time>
      </trkpt>
      <trkpt lat="43.64129" lon="3.74317">
        <ele>142.89</ele>
        <time>2022-05-01T14:42:46Z</time>
      </trkpt>
      <trkpt lat="43.6409" lon="3.74442">
        <ele>141.45</ele>
        <time>2022-05-01T14:43:10Z</time>
      </trkpt>
      <trkpt lat="43.64057" lon="3.74544">
        <ele>141.93</ele>
        <time>2022-05-01T14:43:29Z</time>
      </trkpt>
      <trkpt lat="43.64018" lon="3.74662">
        <ele>144.82</ele>
        <time>2022-05-01T14:43:50Z</time>
      </trkpt>
      <trkpt lat="43.63975" lon="3.74795">
        <ele>148.18</ele>
        <time>2022-05-01T14:44:12Z</time>
      </trkpt>
      <trkpt lat="43.63957" lon="3.74859">
        <ele>150.1</ele>
        <time>2022-05-01T14:44:28Z</time>
      </trkpt>
      <trkpt lat="43.6396" lon="3.74852">
        <ele>150.58</ele>
        <time>2022-05-01T14:44:30Z</time>
      </trkpt>
      <trkpt lat="43.63962" lon="3.7485">
        <ele>150.1</ele>
        <time>2022-05-01T14:44:31Z</time>
      </trkpt>
      <trkpt lat="43.63965" lon="3.7485">
        <ele>150.1</ele>
        <time>2022-05-01T14:44:32Z</time>
      </trkpt>
      <trkpt lat="43.63967" lon="3.74852">
        <ele>150.1</ele>
        <time>2022-05-01T14:44:33Z</time>
      </trkpt>
      <trkpt lat="43.63969" lon="3.74854">
        <ele>150.1</ele>
        <time>2022-05-01T14:44:34Z</time>
      </trkpt>
      <trkpt lat="43.6397" lon="3.74857">
        <ele>150.1</ele>
        <time>2022-05-01T14:44:35Z</time>
      </trkpt>
      <trkpt lat="43.63971" lon="3.74861">
        <ele>150.1</ele>
        <time>2022-05-01T14:44:36Z</time>
      </trkpt>
      <trkpt lat="43.63972" lon="3.74866">
        <ele>150.1</ele>
        <time>2022-05-01T14:44:37Z</time>
      </trkpt>
      <trkpt lat="43.63972" lon="3.74871">
        <ele>150.1</ele>
        <time>2022-05-01T14:44:38Z</time>
      </trkpt>
      <trkpt lat="43.63971" lon="3.74877">
        <ele>150.1</ele>
        <time>2022-05-01T14:44:39Z</time>
      </trkpt>
      <trkpt lat="43.63971" lon="3.74881">
        <ele>150.1</ele>
        <time>2022-05-01T14:44:40Z</time>
      </trkpt>
      <trkpt lat="43.6397" lon="3.74886">
        <ele>150.1</ele>
        <time>2022-05-01T14:44:41Z</time>
      </trkpt>
      <trkpt lat="43.63969" lon="3.7489">
        <ele>150.1</ele>
        <time>2022-05-01T14:44:42Z</time>
      </trkpt>
      <trkpt lat="43.63979" lon="3.74955">
        <ele>149.62</ele>
        <time>2022-05-01T14:44:57Z</time>
      </trkpt>
      <trkpt lat="43.64008" lon="3.74963">
        <ele>149.14</ele>
        <time>2022-05-01T14:45:04Z</time>
      </trkpt>
      <trkpt lat="43.64012" lon="3.74966">
        <ele>149.14</ele>
        <time>2022-05-01T14:45:05Z</time>
      </trkpt>
      <trkpt lat="43.6404" lon="3.74994">
        <ele>148.18</ele>
        <time>2022-05-01T14:45:13Z</time>
      </trkpt>
      <trkpt lat="43.64065" lon="3.75013">
        <ele>147.22</ele>
        <time>2022-05-01T14:45:18Z</time>
      </trkpt>
      <trkpt lat="43.6407" lon="3.75019">
        <ele>147.22</ele>
        <time>2022-05-01T14:45:19Z</time>
      </trkpt>
      <trkpt lat="43.64074" lon="3.75026">
        <ele>146.74</ele>
        <time>2022-05-01T14:45:20Z</time>
      </trkpt>
      <trkpt lat="43.64079" lon="3.75034">
        <ele>146.74</ele>
        <time>2022-05-01T14:45:21Z</time>
      </trkpt>
      <trkpt lat="43.64084" lon="3.75042">
        <ele>146.26</ele>
        <time>2022-05-01T14:45:22Z</time>
      </trkpt>
      <trkpt lat="43.64088" lon="3.7505">
        <ele>146.26</ele>
        <time>2022-05-01T14:45:23Z</time>
      </trkpt>
      <trkpt lat="43.64144" lon="3.75176">
        <ele>142.89</ele>
        <time>2022-05-01T14:45:38Z</time>
      </trkpt>
      <trkpt lat="43.64209" lon="3.75293">
        <ele>139.53</ele>
        <time>2022-05-01T14:45:53Z</time>
      </trkpt>
      <trkpt lat="43.64246" lon="3.75409">
        <ele>136.64</ele>
        <time>2022-05-01T14:46:08Z</time>
      </trkpt>
      <trkpt lat="43.64262" lon="3.7551">
        <ele>132.8</ele>
        <time>2022-05-01T14:46:24Z</time>
      </trkpt>
      <trkpt lat="43.64262" lon="3.75512">
        <ele>131.84</ele>
        <time>2022-05-01T14:46:33Z</time>
      </trkpt>
      <trkpt lat="43.64263" lon="3.75505">
        <ele>139.53</ele>
        <time>2022-05-01T14:46:56Z</time>
      </trkpt>
      <trkpt lat="43.64263" lon="3.75506">
        <ele>140.97</ele>
        <time>2022-05-01T14:47:24Z</time>
      </trkpt>
      <trkpt lat="43.64263" lon="3.75506">
        <ele>139.05</ele>
        <time>2022-05-01T14:47:46Z</time>
      </trkpt>
      <trkpt lat="43.64265" lon="3.75504">
        <ele>137.61</ele>
        <time>2022-05-01T14:47:58Z</time>
      </trkpt>
      <trkpt lat="43.64266" lon="3.75502">
        <ele>137.61</ele>
        <time>2022-05-01T14:47:59Z</time>
      </trkpt>
      <trkpt lat="43.64273" lon="3.75493">
        <ele>136.64</ele>
        <time>2022-05-01T14:48:14Z</time>
      </trkpt>
      <trkpt lat="43.64276" lon="3.75494">
        <ele>136.64</ele>
        <time>2022-05-01T14:48:34Z</time>
      </trkpt>
      <trkpt lat="43.64279" lon="3.75497">
        <ele>136.64</ele>
        <time>2022-05-01T14:48:41Z</time>
      </trkpt>
      <trkpt lat="43.64315" lon="3.75527">
        <ele>137.13</ele>
        <time>2022-05-01T14:48:58Z</time>
      </trkpt>
      <trkpt lat="43.6437" lon="3.7556">
        <ele>137.61</ele>
        <time>2022-05-01T14:49:19Z</time>
      </trkpt>
      <trkpt lat="43.64424" lon="3.75587">
        <ele>137.61</ele>
        <time>2022-05-01T14:49:39Z</time>
      </trkpt>
      <trkpt lat="43.64485" lon="3.75639">
        <ele>139.05</ele>
        <time>2022-05-01T14:49:59Z</time>
      </trkpt>
      <trkpt lat="43.64528" lon="3.75695">
        <ele>140.01</ele>
        <time>2022-05-01T14:50:15Z</time>
      </trkpt>
      <trkpt lat="43.64544" lon="3.75781">
        <ele>141.93</ele>
        <time>2022-05-01T14:50:32Z</time>
      </trkpt>
      <trkpt lat="43.64572" lon="3.75842">
        <ele>143.37</ele>
        <time>2022-05-01T14:50:48Z</time>
      </trkpt>
      <trkpt lat="43.6458" lon="3.75939">
        <ele>142.89</ele>
        <time>2022-05-01T14:51:06Z</time>
      </trkpt>
      <trkpt lat="43.64593" lon="3.7608">
        <ele>141.93</ele>
        <time>2022-05-01T14:51:27Z</time>
      </trkpt>
      <trkpt lat="43.64602" lon="3.7618">
        <ele>139.53</ele>
        <time>2022-05-01T14:51:43Z</time>
      </trkpt>
      <trkpt lat="43.64614" lon="3.76309">
        <ele>135.68</ele>
        <time>2022-05-01T14:52:06Z</time>
      </trkpt>
      <trkpt lat="43.64624" lon="3.76436">
        <ele>133.28</ele>
        <time>2022-05-01T14:52:28Z</time>
      </trkpt>
      <trkpt lat="43.64604" lon="3.76504">
        <ele>132.32</ele>
        <time>2022-05-01T14:52:41Z</time>
      </trkpt>
      <trkpt lat="43.64586" lon="3.76606">
        <ele>130.88</ele>
        <time>2022-05-01T14:53:00Z</time>
      </trkpt>
      <trkpt lat="43.64588" lon="3.76612">
        <ele>130.88</ele>
        <time>2022-05-01T14:53:01Z</time>
      </trkpt>
      <trkpt lat="43.64614" lon="3.76651">
        <ele>127.99</ele>
        <time>2022-05-01T14:53:13Z</time>
      </trkpt>
      <trkpt lat="43.64663" lon="3.76657">
        <ele>126.07</ele>
        <time>2022-05-01T14:53:28Z</time>
      </trkpt>
      <trkpt lat="43.64671" lon="3.76653">
        <ele>129.43</ele>
        <time>2022-05-01T14:53:45Z</time>
      </trkpt>
      <trkpt lat="43.64679" lon="3.76655">
        <ele>131.84</ele>
        <time>2022-05-01T14:54:00Z</time>
      </trkpt>
      <trkpt lat="43.64679" lon="3.76653">
        <ele>135.2</ele>
        <time>2022-05-01T14:54:24Z</time>
      </trkpt>
      <trkpt lat="43.6468" lon="3.76654">
        <ele>137.61</ele>
        <time>2022-05-01T14:54:41Z</time>
      </trkpt>
      <trkpt lat="43.64678" lon="3.76667">
        <ele>137.13</ele>
        <time>2022-05-01T14:54:58Z</time>
      </trkpt>
      <trkpt lat="43.64677" lon="3.76669">
        <ele>132.32</ele>
        <time>2022-05-01T14:55:33Z</time>
      </trkpt>
      <trkpt lat="43.64679" lon="3.7667">
        <ele>132.8</ele>
        <time>2022-05-01T14:56:11Z</time>
      </trkpt>
      <trkpt lat="43.64678" lon="3.76668">
        <ele>131.36</ele>
        <time>2022-05-01T14:56:31Z</time>
      </trkpt>
      <trkpt lat="43.64676" lon="3.76668">
        <ele>129.92</ele>
        <time>2022-05-01T14:56:57Z</time>
      </trkpt>
      <trkpt lat="43.64678" lon="3.76666">
        <ele>129.43</ele>
        <time>2022-05-01T14:57:26Z</time>
      </trkpt>
      <trkpt lat="43.64678" lon="3.76667">
        <ele>132.32</ele>
        <time>2022-05-01T14:57:58Z</time>
      </trkpt>
      <trkpt lat="43.64678" lon="3.76668">
        <ele>133.76</ele>
        <time>2022-05-01T14:58:29Z</time>
      </trkpt>
      <trkpt lat="43.64677" lon="3.76666">
        <ele>133.76</ele>
        <time>2022-05-01T14:59:09Z</time>
      </trkpt>
      <trkpt lat="43.64676" lon="3.76667">
        <ele>132.8</ele>
        <time>2022-05-01T14:59:38Z</time>
      </trkpt>
      <trkpt lat="43.64677" lon="3.76666">
        <ele>133.28</ele>
        <time>2022-05-01T14:59:53Z</time>
      </trkpt>
      <trkpt lat="43.64676" lon="3.76669">
        <ele>133.28</ele>
        <time>2022-05-01T15:00:14Z</time>
      </trkpt>
      <trkpt lat="43.64676" lon="3.76668">
        <ele>134.24</ele>
        <time>2022-05-01T15:00:35Z</time>
      </trkpt>
      <trkpt lat="43.64675" lon="3.76667">
        <ele>131.36</ele>
        <time>2022-05-01T15:00:59Z</time>
      </trkpt>
      <trkpt lat="43.64676" lon="3.76667">
        <ele>131.36</ele>
        <time>2022-05-01T15:01:21Z</time>
      </trkpt>
      <trkpt lat="43.64675" lon="3.76666">
        <ele>131.36</ele>
        <time>2022-05-01T15:01:36Z</time>
      </trkpt>
      <trkpt lat="43.64677" lon="3.7667">
        <ele>130.4</ele>
        <time>2022-05-01T15:01:56Z</time>
      </trkpt>
      <trkpt lat="43.64676" lon="3.7667">
        <ele>129.43</ele>
        <time>2022-05-01T15:02:15Z</time>
      </trkpt>
      <trkpt lat="43.64676" lon="3.76668">
        <ele>131.36</ele>
        <time>2022-05-01T15:02:35Z</time>
      </trkpt>
      <trkpt lat="43.64674" lon="3.76675">
        <ele>132.8</ele>
        <time>2022-05-01T15:03:02Z</time>
      </trkpt>
      <trkpt lat="43.64668" lon="3.76722">
        <ele>130.88</ele>
        <time>2022-05-01T15:03:16Z</time>
      </trkpt>
      <trkpt lat="43.6466" lon="3.76789">
        <ele>129.92</ele>
        <time>2022-05-01T15:03:30Z</time>
      </trkpt>
      <trkpt lat="43.64662" lon="3.76797">
        <ele>130.4</ele>
        <time>2022-05-01T15:03:32Z</time>
      </trkpt>
      <trkpt lat="43.64665" lon="3.76799">
        <ele>130.4</ele>
        <time>2022-05-01T15:03:33Z</time>
      </trkpt>
      <trkpt lat="43.64667" lon="3.768">
        <ele>130.88</ele>
        <time>2022-05-01T15:03:34Z</time>
      </trkpt>
      <trkpt lat="43.64692" lon="3.76803">
        <ele>132.8</ele>
        <time>2022-05-01T15:03:45Z</time>
      </trkpt>
      <trkpt lat="43.64693" lon="3.76805">
        <ele>133.28</ele>
        <time>2022-05-01T15:03:46Z</time>
      </trkpt>
      <trkpt lat="43.64699" lon="3.76834">
        <ele>133.28</ele>
        <time>2022-05-01T15:03:54Z</time>
      </trkpt>
      <trkpt lat="43.647" lon="3.76852">
        <ele>134.24</ele>
        <time>2022-05-01T15:03:59Z</time>
      </trkpt>
      <trkpt lat="43.64689" lon="3.76913">
        <ele>134.24</ele>
        <time>2022-05-01T15:04:17Z</time>
      </trkpt>
      <trkpt lat="43.64685" lon="3.76924">
        <ele>133.28</ele>
        <time>2022-05-01T15:04:21Z</time>
      </trkpt>
      <trkpt lat="43.64669" lon="3.76937">
        <ele>130.4</ele>
        <time>2022-05-01T15:04:30Z</time>
      </trkpt>
      <trkpt lat="43.64668" lon="3.76941">
        <ele>129.92</ele>
        <time>2022-05-01T15:04:31Z</time>
      </trkpt>
      <trkpt lat="43.64669" lon="3.76945">
        <ele>130.4</ele>
        <time>2022-05-01T15:04:32Z</time>
      </trkpt>
      <trkpt lat="43.64669" lon="3.76949">
        <ele>130.4</ele>
        <time>2022-05-01T15:04:33Z</time>
      </trkpt>
      <trkpt lat="43.6467" lon="3.76953">
        <ele>130.4</ele>
        <time>2022-05-01T15:04:34Z</time>
      </trkpt>
      <trkpt lat="43.64682" lon="3.77005">
        <ele>132.32</ele>
        <time>2022-05-01T15:04:49Z</time>
      </trkpt>
      <trkpt lat="43.64696" lon="3.7706">
        <ele>135.68</ele>
        <time>2022-05-01T15:05:05Z</time>
      </trkpt>
      <trkpt lat="43.64704" lon="3.77094">
        <ele>138.57</ele>
        <time>2022-05-01T15:05:19Z</time>
      </trkpt>
      <trkpt lat="43.64704" lon="3.77094">
        <ele>141.45</ele>
        <time>2022-05-01T15:05:36Z</time>
      </trkpt>
      <trkpt lat="43.64705" lon="3.77094">
        <ele>142.89</ele>
        <time>2022-05-01T15:06:04Z</time>
      </trkpt>
      <trkpt lat="43.64712" lon="3.77108">
        <ele>146.26</ele>
        <time>2022-05-01T15:06:29Z</time>
      </trkpt>
      <trkpt lat="43.64729" lon="3.77132">
        <ele>147.22</ele>
        <time>2022-05-01T15:06:40Z</time>
      </trkpt>
      <trkpt lat="43.64731" lon="3.77132">
        <ele>147.22</ele>
        <time>2022-05-01T15:06:41Z</time>
      </trkpt>
      <trkpt lat="43.64732" lon="3.77131">
        <ele>147.22</ele>
        <time>2022-05-01T15:06:42Z</time>
      </trkpt>
      <trkpt lat="43.64734" lon="3.77129">
        <ele>147.7</ele>
        <time>2022-05-01T15:06:43Z</time>
      </trkpt>
      <trkpt lat="43.64737" lon="3.77129">
        <ele>147.7</ele>
        <time>2022-05-01T15:06:44Z</time>
      </trkpt>
      <trkpt lat="43.64739" lon="3.77128">
        <ele>147.7</ele>
        <time>2022-05-01T15:06:45Z</time>
      </trkpt>
      <trkpt lat="43.64741" lon="3.77127">
        <ele>147.7</ele>
        <time>2022-05-01T15:06:46Z</time>
      </trkpt>
      <trkpt lat="43.64744" lon="3.77127">
        <ele>148.18</ele>
        <time>2022-05-01T15:06:47Z</time>
      </trkpt>
      <trkpt lat="43.64775" lon="3.77124">
        <ele>151.06</ele>
        <time>2022-05-01T15:07:05Z</time>
      </trkpt>
      <trkpt lat="43.64804" lon="3.77126">
        <ele>153.47</ele>
        <time>2022-05-01T15:07:24Z</time>
      </trkpt>
      <trkpt lat="43.64802" lon="3.77118">
        <ele>152.51</ele>
        <time>2022-05-01T15:07:43Z</time>
      </trkpt>
      <trkpt lat="43.6481" lon="3.77125">
        <ele>150.1</ele>
        <time>2022-05-01T15:07:57Z</time>
      </trkpt>
      <trkpt lat="43.64854" lon="3.77137">
        <ele>148.66</ele>
        <time>2022-05-01T15:08:16Z</time>
      </trkpt>
      <trkpt lat="43.64876" lon="3.77149">
        <ele>147.22</ele>
        <time>2022-05-01T15:08:26Z</time>
      </trkpt>
      <trkpt lat="43.64883" lon="3.77147">
        <ele>149.62</ele>
        <time>2022-05-01T15:08:38Z</time>
      </trkpt>
      <trkpt lat="43.64885" lon="3.77144">
        <ele>152.03</ele>
        <time>2022-05-01T15:08:49Z</time>
      </trkpt>
      <trkpt lat="43.64885" lon="3.77141">
        <ele>152.03</ele>
        <time>2022-05-01T15:08:50Z</time>
      </trkpt>
      <trkpt lat="43.64892" lon="3.77073">
        <ele>155.39</ele>
        <time>2022-05-01T15:09:10Z</time>
      </trkpt>
      <trkpt lat="43.64919" lon="3.77006">
        <ele>154.91</ele>
        <time>2022-05-01T15:09:27Z</time>
      </trkpt>
      <trkpt lat="43.64954" lon="3.76935">
        <ele>153.47</ele>
        <time>2022-05-01T15:09:43Z</time>
      </trkpt>
      <trkpt lat="43.64992" lon="3.76847">
        <ele>150.58</ele>
        <time>2022-05-01T15:10:01Z</time>
      </trkpt>
      <trkpt lat="43.65003" lon="3.76839">
        <ele>148.18</ele>
        <time>2022-05-01T15:10:08Z</time>
      </trkpt>
      <trkpt lat="43.65001" lon="3.76839">
        <ele>144.34</ele>
        <time>2022-05-01T15:10:32Z</time>
      </trkpt>
      <trkpt lat="43.65002" lon="3.7684">
        <ele>145.78</ele>
        <time>2022-05-01T15:10:45Z</time>
      </trkpt>
      <trkpt lat="43.6501" lon="3.76844">
        <ele>146.26</ele>
        <time>2022-05-01T15:10:49Z</time>
      </trkpt>
      <trkpt lat="43.65014" lon="3.76846">
        <ele>145.78</ele>
        <time>2022-05-01T15:10:50Z</time>
      </trkpt>
      <trkpt lat="43.65058" lon="3.76838">
        <ele>144.82</ele>
        <time>2022-05-01T15:11:04Z</time>
      </trkpt>
      <trkpt lat="43.65069" lon="3.76807">
        <ele>144.34</ele>
        <time>2022-05-01T15:11:14Z</time>
      </trkpt>
      <trkpt lat="43.65068" lon="3.76805">
        <ele>144.82</ele>
        <time>2022-05-01T15:11:24Z</time>
      </trkpt>
      <trkpt lat="43.65064" lon="3.7675">
        <ele>146.74</ele>
        <time>2022-05-01T15:11:39Z</time>
      </trkpt>
      <trkpt lat="43.65072" lon="3.76701">
        <ele>148.18</ele>
        <time>2022-05-01T15:11:54Z</time>
      </trkpt>
      <trkpt lat="43.65089" lon="3.7668">
        <ele>148.18</ele>
        <time>2022-05-01T15:12:08Z</time>
      </trkpt>
      <trkpt lat="43.651" lon="3.76665">
        <ele>146.26</ele>
        <time>2022-05-01T15:12:26Z</time>
      </trkpt>
      <trkpt lat="43.65147" lon="3.76615">
        <ele>142.89</ele>
        <time>2022-05-01T15:12:38Z</time>
      </trkpt>
      <trkpt lat="43.65228" lon="3.7656">
        <ele>138.57</ele>
        <time>2022-05-01T15:12:53Z</time>
      </trkpt>
      <trkpt lat="43.65292" lon="3.76538">
        <ele>133.76</ele>
        <time>2022-05-01T15:13:07Z</time>
      </trkpt>
      <trkpt lat="43.65298" lon="3.7655">
        <ele>130.88</ele>
        <time>2022-05-01T15:13:17Z</time>
      </trkpt>
      <trkpt lat="43.653" lon="3.76552">
        <ele>127.03</ele>
        <time>2022-05-01T15:13:38Z</time>
      </trkpt>
      <trkpt lat="43.65337" lon="3.76554">
        <ele>126.55</ele>
        <time>2022-05-01T15:13:47Z</time>
      </trkpt>
      <trkpt lat="43.65408" lon="3.7657">
        <ele>124.15</ele>
        <time>2022-05-01T15:14:00Z</time>
      </trkpt>
      <trkpt lat="43.65491" lon="3.76636">
        <ele>118.86</ele>
        <time>2022-05-01T15:14:17Z</time>
      </trkpt>
      <trkpt lat="43.65518" lon="3.76695">
        <ele>114.53</ele>
        <time>2022-05-01T15:14:26Z</time>
      </trkpt>
      <trkpt lat="43.65518" lon="3.76702">
        <ele>114.05</ele>
        <time>2022-05-01T15:14:27Z</time>
      </trkpt>
      <trkpt lat="43.65518" lon="3.7671">
        <ele>113.57</ele>
        <time>2022-05-01T15:14:28Z</time>
      </trkpt>
      <trkpt lat="43.65507" lon="3.76773">
        <ele>110.21</ele>
        <time>2022-05-01T15:14:35Z</time>
      </trkpt>
      <trkpt lat="43.65474" lon="3.76854">
        <ele>101.56</ele>
        <time>2022-05-01T15:14:48Z</time>
      </trkpt>
      <trkpt lat="43.65463" lon="3.76891">
        <ele>97.71</ele>
        <time>2022-05-01T15:15:02Z</time>
      </trkpt>
      <trkpt lat="43.65467" lon="3.76918">
        <ele>97.23</ele>
        <time>2022-05-01T15:15:15Z</time>
      </trkpt>
      <trkpt lat="43.65468" lon="3.76918">
        <ele>98.19</ele>
        <time>2022-05-01T15:15:22Z</time>
      </trkpt>
      <trkpt lat="43.65469" lon="3.76918">
        <ele>98.19</ele>
        <time>2022-05-01T15:15:23Z</time>
      </trkpt>
      <trkpt lat="43.6547" lon="3.76919">
        <ele>98.19</ele>
        <time>2022-05-01T15:15:24Z</time>
      </trkpt>
      <trkpt lat="43.65509" lon="3.76935">
        <ele>98.67</ele>
        <time>2022-05-01T15:15:35Z</time>
      </trkpt>
      <trkpt lat="43.65577" lon="3.76949">
        <ele>98.67</ele>
        <time>2022-05-01T15:15:51Z</time>
      </trkpt>
      <trkpt lat="43.65597" lon="3.76944">
        <ele>97.23</ele>
        <time>2022-05-01T15:16:03Z</time>
      </trkpt>
      <trkpt lat="43.656" lon="3.76939">
        <ele>90.98</ele>
        <time>2022-05-01T15:16:18Z</time>
      </trkpt>
      <trkpt lat="43.65599" lon="3.76938">
        <ele>90.98</ele>
        <time>2022-05-01T15:16:22Z</time>
      </trkpt>
      <trkpt lat="43.65597" lon="3.76939">
        <ele>91.46</ele>
        <time>2022-05-01T15:16:35Z</time>
      </trkpt>
      <trkpt lat="43.65594" lon="3.76937">
        <ele>91.94</ele>
        <time>2022-05-01T15:17:03Z</time>
      </trkpt>
      <trkpt lat="43.65595" lon="3.76945">
        <ele>89.54</ele>
        <time>2022-05-01T15:17:27Z</time>
      </trkpt>
      <trkpt lat="43.65595" lon="3.76948">
        <ele>89.06</ele>
        <time>2022-05-01T15:17:28Z</time>
      </trkpt>
      <trkpt lat="43.65594" lon="3.77019">
        <ele>87.62</ele>
        <time>2022-05-01T15:17:41Z</time>
      </trkpt>
      <trkpt lat="43.65581" lon="3.77151">
        <ele>84.73</ele>
        <time>2022-05-01T15:18:00Z</time>
      </trkpt>
      <trkpt lat="43.65578" lon="3.7725">
        <ele>85.21</ele>
        <time>2022-05-01T15:18:13Z</time>
      </trkpt>
      <trkpt lat="43.65582" lon="3.77316">
        <ele>84.25</ele>
        <time>2022-05-01T15:18:26Z</time>
      </trkpt>
      <trkpt lat="43.65581" lon="3.77342">
        <ele>83.77</ele>
        <time>2022-05-01T15:18:31Z</time>
      </trkpt>
      <trkpt lat="43.65577" lon="3.77354">
        <ele>83.77</ele>
        <time>2022-05-01T15:18:33Z</time>
      </trkpt>
      <trkpt lat="43.65526" lon="3.7744">
        <ele>83.77</ele>
        <time>2022-05-01T15:18:48Z</time>
      </trkpt>
      <trkpt lat="43.655" lon="3.77514">
        <ele>85.21</ele>
        <time>2022-05-01T15:18:59Z</time>
      </trkpt>
      <trkpt lat="43.65497" lon="3.77518">
        <ele>85.21</ele>
        <time>2022-05-01T15:19:00Z</time>
      </trkpt>
      <trkpt lat="43.65495" lon="3.77523">
        <ele>85.21</ele>
        <time>2022-05-01T15:19:01Z</time>
      </trkpt>
      <trkpt lat="43.65447" lon="3.77579">
        <ele>89.54</ele>
        <time>2022-05-01T15:19:17Z</time>
      </trkpt>
      <trkpt lat="43.65404" lon="3.77639">
        <ele>94.35</ele>
        <time>2022-05-01T15:19:33Z</time>
      </trkpt>
      <trkpt lat="43.65354" lon="3.77738">
        <ele>100.11</ele>
        <time>2022-05-01T15:19:52Z</time>
      </trkpt>
      <trkpt lat="43.65304" lon="3.77876">
        <ele>104.44</ele>
        <time>2022-05-01T15:20:14Z</time>
      </trkpt>
      <trkpt lat="43.65257" lon="3.77981">
        <ele>103.96</ele>
        <time>2022-05-01T15:20:29Z</time>
      </trkpt>
      <trkpt lat="43.65209" lon="3.7807">
        <ele>105.4</ele>
        <time>2022-05-01T15:20:40Z</time>
      </trkpt>
      <trkpt lat="43.65186" lon="3.78112">
        <ele>107.32</ele>
        <time>2022-05-01T15:20:50Z</time>
      </trkpt>
      <trkpt lat="43.65164" lon="3.78173">
        <ele>107.81</ele>
        <time>2022-05-01T15:21:08Z</time>
      </trkpt>
      <trkpt lat="43.65157" lon="3.78243">
        <ele>107.32</ele>
        <time>2022-05-01T15:21:19Z</time>
      </trkpt>
      <trkpt lat="43.65184" lon="3.78397">
        <ele>100.6</ele>
        <time>2022-05-01T15:21:35Z</time>
      </trkpt>
      <trkpt lat="43.65198" lon="3.7857">
        <ele>96.27</ele>
        <time>2022-05-01T15:21:52Z</time>
      </trkpt>
      <trkpt lat="43.65213" lon="3.78732">
        <ele>93.39</ele>
        <time>2022-05-01T15:22:08Z</time>
      </trkpt>
      <trkpt lat="43.65214" lon="3.78761">
        <ele>92.9</ele>
        <time>2022-05-01T15:22:11Z</time>
      </trkpt>
      <trkpt lat="43.65212" lon="3.78769">
        <ele>92.42</ele>
        <time>2022-05-01T15:22:12Z</time>
      </trkpt>
      <trkpt lat="43.65209" lon="3.78775">
        <ele>92.42</ele>
        <time>2022-05-01T15:22:13Z</time>
      </trkpt>
      <trkpt lat="43.65205" lon="3.7878">
        <ele>91.46</ele>
        <time>2022-05-01T15:22:14Z</time>
      </trkpt>
      <trkpt lat="43.652" lon="3.78784">
        <ele>90.02</ele>
        <time>2022-05-01T15:22:15Z</time>
      </trkpt>
      <trkpt lat="43.65193" lon="3.78788">
        <ele>89.06</ele>
        <time>2022-05-01T15:22:16Z</time>
      </trkpt>
      <trkpt lat="43.65187" lon="3.78791">
        <ele>88.1</ele>
        <time>2022-05-01T15:22:17Z</time>
      </trkpt>
      <trkpt lat="43.65091" lon="3.78847">
        <ele>76.56</ele>
        <time>2022-05-01T15:22:36Z</time>
      </trkpt>
      <trkpt lat="43.65055" lon="3.7888">
        <ele>75.6</ele>
        <time>2022-05-01T15:22:50Z</time>
      </trkpt>
      <trkpt lat="43.65054" lon="3.78885">
        <ele>76.08</ele>
        <time>2022-05-01T15:22:52Z</time>
      </trkpt>
      <trkpt lat="43.65054" lon="3.78888">
        <ele>76.08</ele>
        <time>2022-05-01T15:22:53Z</time>
      </trkpt>
      <trkpt lat="43.65054" lon="3.78891">
        <ele>76.56</ele>
        <time>2022-05-01T15:22:54Z</time>
      </trkpt>
      <trkpt lat="43.65055" lon="3.78894">
        <ele>77.04</ele>
        <time>2022-05-01T15:22:55Z</time>
      </trkpt>
      <trkpt lat="43.65056" lon="3.78898">
        <ele>77.04</ele>
        <time>2022-05-01T15:22:56Z</time>
      </trkpt>
      <trkpt lat="43.65085" lon="3.78982">
        <ele>80.41</ele>
        <time>2022-05-01T15:23:13Z</time>
      </trkpt>
      <trkpt lat="43.65073" lon="3.79036">
        <ele>82.33</ele>
        <time>2022-05-01T15:23:25Z</time>
      </trkpt>
      <trkpt lat="43.65049" lon="3.79092">
        <ele>83.29</ele>
        <time>2022-05-01T15:23:39Z</time>
      </trkpt>
      <trkpt lat="43.65015" lon="3.79172">
        <ele>79.93</ele>
        <time>2022-05-01T15:23:57Z</time>
      </trkpt>
      <trkpt lat="43.65007" lon="3.79189">
        <ele>81.37</ele>
        <time>2022-05-01T15:24:09Z</time>
      </trkpt>
      <trkpt lat="43.65009" lon="3.79187">
        <ele>81.37</ele>
        <time>2022-05-01T15:24:10Z</time>
      </trkpt>
      <trkpt lat="43.65011" lon="3.79186">
        <ele>81.85</ele>
        <time>2022-05-01T15:24:11Z</time>
      </trkpt>
      <trkpt lat="43.65012" lon="3.79184">
        <ele>81.85</ele>
        <time>2022-05-01T15:24:12Z</time>
      </trkpt>
      <trkpt lat="43.65014" lon="3.7918">
        <ele>81.85</ele>
        <time>2022-05-01T15:24:13Z</time>
      </trkpt>
      <trkpt lat="43.65013" lon="3.79177">
        <ele>82.33</ele>
        <time>2022-05-01T15:24:14Z</time>
      </trkpt>
      <trkpt lat="43.65013" lon="3.79174">
        <ele>82.81</ele>
        <time>2022-05-01T15:24:15Z</time>
      </trkpt>
      <trkpt lat="43.65011" lon="3.79171">
        <ele>82.81</ele>
        <time>2022-05-01T15:24:16Z</time>
      </trkpt>
      <trkpt lat="43.6501" lon="3.79168">
        <ele>83.29</ele>
        <time>2022-05-01T15:24:17Z</time>
      </trkpt>
      <trkpt lat="43.65001" lon="3.79154">
        <ele>83.77</ele>
        <time>2022-05-01T15:24:31Z</time>
      </trkpt>
      <trkpt lat="43.64998" lon="3.79149">
        <ele>81.85</ele>
        <time>2022-05-01T15:25:00Z</time>
      </trkpt>
      <trkpt lat="43.64985" lon="3.79134">
        <ele>80.41</ele>
        <time>2022-05-01T15:25:15Z</time>
      </trkpt>
      <trkpt lat="43.64985" lon="3.79137">
        <ele>80.41</ele>
        <time>2022-05-01T15:25:18Z</time>
      </trkpt>
      <trkpt lat="43.64986" lon="3.79139">
        <ele>79.93</ele>
        <time>2022-05-01T15:25:19Z</time>
      </trkpt>
      <trkpt lat="43.64987" lon="3.79141">
        <ele>79.45</ele>
        <time>2022-05-01T15:25:20Z</time>
      </trkpt>
      <trkpt lat="43.65011" lon="3.79173">
        <ele>76.56</ele>
        <time>2022-05-01T15:25:38Z</time>
      </trkpt>
      <trkpt lat="43.65012" lon="3.79178">
        <ele>75.6</ele>
        <time>2022-05-01T15:25:40Z</time>
      </trkpt>
      <trkpt lat="43.65012" lon="3.7918">
        <ele>76.08</ele>
        <time>2022-05-01T15:25:41Z</time>
      </trkpt>
      <trkpt lat="43.65012" lon="3.79183">
        <ele>76.08</ele>
        <time>2022-05-01T15:25:42Z</time>
      </trkpt>
      <trkpt lat="43.65011" lon="3.79185">
        <ele>76.08</ele>
        <time>2022-05-01T15:25:43Z</time>
      </trkpt>
      <trkpt lat="43.6501" lon="3.79188">
        <ele>76.56</ele>
        <time>2022-05-01T15:25:44Z</time>
      </trkpt>
      <trkpt lat="43.64986" lon="3.79248">
        <ele>79.45</ele>
        <time>2022-05-01T15:26:03Z</time>
      </trkpt>
      <trkpt lat="43.64971" lon="3.79317">
        <ele>78.48</ele>
        <time>2022-05-01T15:26:23Z</time>
      </trkpt>
      <trkpt lat="43.64953" lon="3.79409">
        <ele>78.48</ele>
        <time>2022-05-01T15:26:44Z</time>
      </trkpt>
      <trkpt lat="43.64917" lon="3.79485">
        <ele>79.45</ele>
        <time>2022-05-01T15:27:04Z</time>
      </trkpt>
      <trkpt lat="43.64893" lon="3.79526">
        <ele>77.04</ele>
        <time>2022-05-01T15:27:16Z</time>
      </trkpt>
      <trkpt lat="43.64891" lon="3.79525">
        <ele>77.04</ele>
        <time>2022-05-01T15:27:17Z</time>
      </trkpt>
      <trkpt lat="43.64889" lon="3.79524">
        <ele>76.56</ele>
        <time>2022-05-01T15:27:18Z</time>
      </trkpt>
      <trkpt lat="43.64886" lon="3.79523">
        <ele>75.6</ele>
        <time>2022-05-01T15:27:19Z</time>
      </trkpt>
      <trkpt lat="43.64884" lon="3.79521">
        <ele>75.12</ele>
        <time>2022-05-01T15:27:20Z</time>
      </trkpt>
      <trkpt lat="43.64842" lon="3.79481">
        <ele>68.39</ele>
        <time>2022-05-01T15:27:36Z</time>
      </trkpt>
      <trkpt lat="43.64841" lon="3.79484">
        <ele>67.91</ele>
        <time>2022-05-01T15:27:40Z</time>
      </trkpt>
      <trkpt lat="43.64881" lon="3.79518">
        <ele>62.14</ele>
        <time>2022-05-01T15:27:57Z</time>
      </trkpt>
      <trkpt lat="43.64894" lon="3.79554">
        <ele>58.78</ele>
        <time>2022-05-01T15:28:10Z</time>
      </trkpt>
      <trkpt lat="43.64892" lon="3.79557">
        <ele>58.3</ele>
        <time>2022-05-01T15:28:11Z</time>
      </trkpt>
      <trkpt lat="43.64891" lon="3.7956">
        <ele>58.3</ele>
        <time>2022-05-01T15:28:12Z</time>
      </trkpt>
      <trkpt lat="43.64889" lon="3.79563">
        <ele>58.3</ele>
        <time>2022-05-01T15:28:13Z</time>
      </trkpt>
      <trkpt lat="43.64886" lon="3.79567">
        <ele>57.82</ele>
        <time>2022-05-01T15:28:14Z</time>
      </trkpt>
      <trkpt lat="43.64884" lon="3.79571">
        <ele>57.34</ele>
        <time>2022-05-01T15:28:15Z</time>
      </trkpt>
      <trkpt lat="43.64883" lon="3.79574">
        <ele>56.86</ele>
        <time>2022-05-01T15:28:16Z</time>
      </trkpt>
      <trkpt lat="43.64843" lon="3.79638">
        <ele>52.53</ele>
        <time>2022-05-01T15:28:34Z</time>
      </trkpt>
      <trkpt lat="43.64822" lon="3.79687">
        <ele>50.61</ele>
        <time>2022-05-01T15:28:51Z</time>
      </trkpt>
      <trkpt lat="43.64819" lon="3.79701">
        <ele>49.65</ele>
        <time>2022-05-01T15:28:56Z</time>
      </trkpt>
      <trkpt lat="43.64819" lon="3.79703">
        <ele>49.16</ele>
        <time>2022-05-01T15:28:57Z</time>
      </trkpt>
      <trkpt lat="43.64821" lon="3.79704">
        <ele>48.68</ele>
        <time>2022-05-01T15:28:58Z</time>
      </trkpt>
      <trkpt lat="43.64822" lon="3.79706">
        <ele>48.68</ele>
        <time>2022-05-01T15:28:59Z</time>
      </trkpt>
      <trkpt lat="43.64824" lon="3.79708">
        <ele>48.2</ele>
        <time>2022-05-01T15:29:00Z</time>
      </trkpt>
      <trkpt lat="43.64827" lon="3.7971">
        <ele>47.72</ele>
        <time>2022-05-01T15:29:01Z</time>
      </trkpt>
      <trkpt lat="43.64867" lon="3.79773">
        <ele>42.44</ele>
        <time>2022-05-01T15:29:16Z</time>
      </trkpt>
      <trkpt lat="43.64905" lon="3.79851">
        <ele>38.59</ele>
        <time>2022-05-01T15:29:33Z</time>
      </trkpt>
      <trkpt lat="43.64938" lon="3.79944">
        <ele>36.19</ele>
        <time>2022-05-01T15:29:52Z</time>
      </trkpt>
      <trkpt lat="43.64947" lon="3.80037">
        <ele>37.15</ele>
        <time>2022-05-01T15:30:12Z</time>
      </trkpt>
      <trkpt lat="43.6495" lon="3.80129">
        <ele>41.95</ele>
        <time>2022-05-01T15:30:30Z</time>
      </trkpt>
      <trkpt lat="43.64962" lon="3.80254">
        <ele>43.4</ele>
        <time>2022-05-01T15:30:51Z</time>
      </trkpt>
      <trkpt lat="43.64996" lon="3.80357">
        <ele>48.68</ele>
        <time>2022-05-01T15:31:09Z</time>
      </trkpt>
      <trkpt lat="43.65033" lon="3.80482">
        <ele>57.34</ele>
        <time>2022-05-01T15:31:30Z</time>
      </trkpt>
      <trkpt lat="43.65072" lon="3.8061">
        <ele>61.66</ele>
        <time>2022-05-01T15:31:50Z</time>
      </trkpt>
      <trkpt lat="43.65109" lon="3.80722">
        <ele>65.99</ele>
        <time>2022-05-01T15:32:07Z</time>
      </trkpt>
      <trkpt lat="43.65162" lon="3.80814">
        <ele>66.95</ele>
        <time>2022-05-01T15:32:21Z</time>
      </trkpt>
      <trkpt lat="43.6525" lon="3.80943">
        <ele>67.43</ele>
        <time>2022-05-01T15:32:40Z</time>
      </trkpt>
      <trkpt lat="43.65265" lon="3.80968">
        <ele>68.39</ele>
        <time>2022-05-01T15:32:45Z</time>
      </trkpt>
      <trkpt lat="43.65269" lon="3.8097">
        <ele>68.39</ele>
        <time>2022-05-01T15:32:46Z</time>
      </trkpt>
      <trkpt lat="43.6528" lon="3.80976">
        <ele>68.87</ele>
        <time>2022-05-01T15:32:49Z</time>
      </trkpt>
      <trkpt lat="43.65284" lon="3.80979">
        <ele>68.87</ele>
        <time>2022-05-01T15:32:50Z</time>
      </trkpt>
      <trkpt lat="43.65288" lon="3.80983">
        <ele>68.87</ele>
        <time>2022-05-01T15:32:51Z</time>
      </trkpt>
      <trkpt lat="43.65365" lon="3.81089">
        <ele>68.87</ele>
        <time>2022-05-01T15:33:09Z</time>
      </trkpt>
      <trkpt lat="43.65448" lon="3.81179">
        <ele>70.31</ele>
        <time>2022-05-01T15:33:26Z</time>
      </trkpt>
      <trkpt lat="43.65528" lon="3.81212">
        <ele>69.35</ele>
        <time>2022-05-01T15:33:41Z</time>
      </trkpt>
      <trkpt lat="43.65588" lon="3.81299">
        <ele>71.76</ele>
        <time>2022-05-01T15:33:56Z</time>
      </trkpt>
      <trkpt lat="43.65657" lon="3.81439">
        <ele>78</ele>
        <time>2022-05-01T15:34:18Z</time>
      </trkpt>
      <trkpt lat="43.65679" lon="3.81547">
        <ele>81.85</ele>
        <time>2022-05-01T15:34:36Z</time>
      </trkpt>
      <trkpt lat="43.65696" lon="3.81647">
        <ele>86.18</ele>
        <time>2022-05-01T15:34:59Z</time>
      </trkpt>
      <trkpt lat="43.65719" lon="3.81725">
        <ele>90.02</ele>
        <time>2022-05-01T15:35:19Z</time>
      </trkpt>
      <trkpt lat="43.65757" lon="3.81815">
        <ele>91.94</ele>
        <time>2022-05-01T15:35:41Z</time>
      </trkpt>
      <trkpt lat="43.65782" lon="3.81927">
        <ele>89.54</ele>
        <time>2022-05-01T15:35:59Z</time>
      </trkpt>
      <trkpt lat="43.65808" lon="3.82106">
        <ele>87.62</ele>
        <time>2022-05-01T15:36:19Z</time>
      </trkpt>
      <trkpt lat="43.65827" lon="3.82295">
        <ele>87.14</ele>
        <time>2022-05-01T15:36:42Z</time>
      </trkpt>
      <trkpt lat="43.65826" lon="3.82447">
        <ele>86.66</ele>
        <time>2022-05-01T15:37:03Z</time>
      </trkpt>
      <trkpt lat="43.65826" lon="3.82593">
        <ele>87.14</ele>
        <time>2022-05-01T15:37:27Z</time>
      </trkpt>
      <trkpt lat="43.65824" lon="3.82721">
        <ele>86.66</ele>
        <time>2022-05-01T15:37:50Z</time>
      </trkpt>
      <trkpt lat="43.65823" lon="3.82869">
        <ele>89.54</ele>
        <time>2022-05-01T15:38:12Z</time>
      </trkpt>
      <trkpt lat="43.65826" lon="3.82994">
        <ele>91.46</ele>
        <time>2022-05-01T15:38:33Z</time>
      </trkpt>
      <trkpt lat="43.65825" lon="3.82997">
        <ele>91.46</ele>
        <time>2022-05-01T15:38:34Z</time>
      </trkpt>
      <trkpt lat="43.65807" lon="3.83026">
        <ele>93.39</ele>
        <time>2022-05-01T15:38:47Z</time>
      </trkpt>
      <trkpt lat="43.65739" lon="3.83097">
        <ele>93.87</ele>
        <time>2022-05-01T15:39:05Z</time>
      </trkpt>
      <trkpt lat="43.65649" lon="3.83195">
        <ele>90.5</ele>
        <time>2022-05-01T15:39:28Z</time>
      </trkpt>
      <trkpt lat="43.65582" lon="3.83274">
        <ele>88.1</ele>
        <time>2022-05-01T15:39:47Z</time>
      </trkpt>
      <trkpt lat="43.65504" lon="3.83366">
        <ele>86.18</ele>
        <time>2022-05-01T15:40:09Z</time>
      </trkpt>
      <trkpt lat="43.65452" lon="3.83442">
        <ele>86.66</ele>
        <time>2022-05-01T15:40:27Z</time>
      </trkpt>
      <trkpt lat="43.65445" lon="3.83463">
        <ele>87.14</ele>
        <time>2022-05-01T15:40:38Z</time>
      </trkpt>
      <trkpt lat="43.65447" lon="3.83464">
        <ele>87.14</ele>
        <time>2022-05-01T15:40:39Z</time>
      </trkpt>
      <trkpt lat="43.65499" lon="3.83504">
        <ele>87.14</ele>
        <time>2022-05-01T15:40:53Z</time>
      </trkpt>
      <trkpt lat="43.65555" lon="3.8358">
        <ele>89.54</ele>
        <time>2022-05-01T15:41:05Z</time>
      </trkpt>
      <trkpt lat="43.65619" lon="3.83721">
        <ele>88.1</ele>
        <time>2022-05-01T15:41:19Z</time>
      </trkpt>
      <trkpt lat="43.65625" lon="3.83727">
        <ele>87.62</ele>
        <time>2022-05-01T15:41:20Z</time>
      </trkpt>
      <trkpt lat="43.65632" lon="3.83733">
        <ele>87.14</ele>
        <time>2022-05-01T15:41:21Z</time>
      </trkpt>
      <trkpt lat="43.65639" lon="3.83738">
        <ele>86.66</ele>
        <time>2022-05-01T15:41:22Z</time>
      </trkpt>
      <trkpt lat="43.65647" lon="3.83742">
        <ele>86.18</ele>
        <time>2022-05-01T15:41:23Z</time>
      </trkpt>
      <trkpt lat="43.65762" lon="3.83771">
        <ele>81.85</ele>
        <time>2022-05-01T15:41:37Z</time>
      </trkpt>
      <trkpt lat="43.65876" lon="3.83764">
        <ele>76.08</ele>
        <time>2022-05-01T15:41:52Z</time>
      </trkpt>
      <trkpt lat="43.65977" lon="3.83799">
        <ele>72.24</ele>
        <time>2022-05-01T15:42:07Z</time>
      </trkpt>
      <trkpt lat="43.66096" lon="3.83869">
        <ele>68.39</ele>
        <time>2022-05-01T15:42:28Z</time>
      </trkpt>
      <trkpt lat="43.66198" lon="3.8392">
        <ele>69.35</ele>
        <time>2022-05-01T15:42:48Z</time>
      </trkpt>
      <trkpt lat="43.66299" lon="3.83969">
        <ele>68.39</ele>
        <time>2022-05-01T15:43:05Z</time>
      </trkpt>
      <trkpt lat="43.66302" lon="3.83974">
        <ele>68.87</ele>
        <time>2022-05-01T15:43:06Z</time>
      </trkpt>
      <trkpt lat="43.66306" lon="3.83979">
        <ele>68.87</ele>
        <time>2022-05-01T15:43:07Z</time>
      </trkpt>
      <trkpt lat="43.66308" lon="3.83985">
        <ele>68.87</ele>
        <time>2022-05-01T15:43:08Z</time>
      </trkpt>
      <trkpt lat="43.6631" lon="3.83993">
        <ele>68.87</ele>
        <time>2022-05-01T15:43:09Z</time>
      </trkpt>
      <trkpt lat="43.66311" lon="3.84">
        <ele>68.87</ele>
        <time>2022-05-01T15:43:10Z</time>
      </trkpt>
      <trkpt lat="43.66312" lon="3.84008">
        <ele>68.87</ele>
        <time>2022-05-01T15:43:11Z</time>
      </trkpt>
      <trkpt lat="43.66312" lon="3.84017">
        <ele>68.87</ele>
        <time>2022-05-01T15:43:12Z</time>
      </trkpt>
      <trkpt lat="43.66312" lon="3.84026">
        <ele>68.87</ele>
        <time>2022-05-01T15:43:13Z</time>
      </trkpt>
      <trkpt lat="43.66311" lon="3.84036">
        <ele>68.87</ele>
        <time>2022-05-01T15:43:14Z</time>
      </trkpt>
      <trkpt lat="43.66294" lon="3.84199">
        <ele>67.43</ele>
        <time>2022-05-01T15:43:32Z</time>
      </trkpt>
      <trkpt lat="43.66295" lon="3.84207">
        <ele>67.43</ele>
        <time>2022-05-01T15:43:33Z</time>
      </trkpt>
      <trkpt lat="43.66297" lon="3.84215">
        <ele>67.43</ele>
        <time>2022-05-01T15:43:34Z</time>
      </trkpt>
      <trkpt lat="43.66299" lon="3.84223">
        <ele>67.43</ele>
        <time>2022-05-01T15:43:35Z</time>
      </trkpt>
      <trkpt lat="43.66303" lon="3.84231">
        <ele>66.95</ele>
        <time>2022-05-01T15:43:36Z</time>
      </trkpt>
      <trkpt lat="43.66306" lon="3.84238">
        <ele>66.95</ele>
        <time>2022-05-01T15:43:37Z</time>
      </trkpt>
      <trkpt lat="43.66369" lon="3.84352">
        <ele>64.07</ele>
        <time>2022-05-01T15:43:56Z</time>
      </trkpt>
      <trkpt lat="43.66421" lon="3.84456">
        <ele>64.55</ele>
        <time>2022-05-01T15:44:17Z</time>
      </trkpt>
      <trkpt lat="43.66437" lon="3.84495">
        <ele>65.51</ele>
        <time>2022-05-01T15:44:26Z</time>
      </trkpt>
      <trkpt lat="43.66437" lon="3.84498">
        <ele>65.51</ele>
        <time>2022-05-01T15:44:27Z</time>
      </trkpt>
      <trkpt lat="43.66408" lon="3.84554">
        <ele>65.03</ele>
        <time>2022-05-01T15:44:41Z</time>
      </trkpt>
      <trkpt lat="43.66355" lon="3.84599">
        <ele>65.51</ele>
        <time>2022-05-01T15:44:55Z</time>
      </trkpt>
      <trkpt lat="43.66353" lon="3.84602">
        <ele>65.51</ele>
        <time>2022-05-01T15:44:57Z</time>
      </trkpt>
      <trkpt lat="43.66353" lon="3.84604">
        <ele>65.51</ele>
        <time>2022-05-01T15:44:58Z</time>
      </trkpt>
      <trkpt lat="43.66353" lon="3.84605">
        <ele>65.51</ele>
        <time>2022-05-01T15:44:59Z</time>
      </trkpt>
      <trkpt lat="43.66354" lon="3.84606">
        <ele>65.99</ele>
        <time>2022-05-01T15:45:00Z</time>
      </trkpt>
      <trkpt lat="43.66356" lon="3.84606">
        <ele>65.99</ele>
        <time>2022-05-01T15:45:01Z</time>
      </trkpt>
      <trkpt lat="43.66358" lon="3.84607">
        <ele>65.51</ele>
        <time>2022-05-01T15:45:02Z</time>
      </trkpt>
      <trkpt lat="43.66381" lon="3.84652">
        <ele>66.47</ele>
        <time>2022-05-01T15:45:14Z</time>
      </trkpt>
      <trkpt lat="43.66421" lon="3.84748">
        <ele>66.47</ele>
        <time>2022-05-01T15:45:34Z</time>
      </trkpt>
      <trkpt lat="43.66461" lon="3.84842">
        <ele>66.95</ele>
        <time>2022-05-01T15:45:52Z</time>
      </trkpt>
      <trkpt lat="43.66504" lon="3.84925">
        <ele>67.91</ele>
        <time>2022-05-01T15:46:10Z</time>
      </trkpt>
      <trkpt lat="43.66536" lon="3.85014">
        <ele>68.87</ele>
        <time>2022-05-01T15:46:30Z</time>
      </trkpt>
      <trkpt lat="43.66586" lon="3.85098">
        <ele>70.31</ele>
        <time>2022-05-01T15:46:52Z</time>
      </trkpt>
      <trkpt lat="43.66601" lon="3.85146">
        <ele>72.24</ele>
        <time>2022-05-01T15:47:04Z</time>
      </trkpt>
      <trkpt lat="43.6663" lon="3.85192">
        <ele>73.68</ele>
        <time>2022-05-01T15:47:19Z</time>
      </trkpt>
      <trkpt lat="43.66653" lon="3.8526">
        <ele>74.64</ele>
        <time>2022-05-01T15:47:34Z</time>
      </trkpt>
      <trkpt lat="43.66695" lon="3.85369">
        <ele>73.68</ele>
        <time>2022-05-01T15:47:57Z</time>
      </trkpt>
      <trkpt lat="43.66744" lon="3.85472">
        <ele>72.72</ele>
        <time>2022-05-01T15:48:16Z</time>
      </trkpt>
      <trkpt lat="43.6679" lon="3.85573">
        <ele>72.24</ele>
        <time>2022-05-01T15:48:33Z</time>
      </trkpt>
      <trkpt lat="43.66778" lon="3.85615">
        <ele>73.2</ele>
        <time>2022-05-01T15:48:41Z</time>
      </trkpt>
      <trkpt lat="43.66768" lon="3.85632">
        <ele>72.24</ele>
        <time>2022-05-01T15:48:46Z</time>
      </trkpt>
      <trkpt lat="43.66769" lon="3.85634">
        <ele>72.24</ele>
        <time>2022-05-01T15:48:47Z</time>
      </trkpt>
      <trkpt lat="43.6677" lon="3.85636">
        <ele>72.72</ele>
        <time>2022-05-01T15:48:48Z</time>
      </trkpt>
      <trkpt lat="43.66799" lon="3.85683">
        <ele>72.24</ele>
        <time>2022-05-01T15:48:58Z</time>
      </trkpt>
      <trkpt lat="43.66801" lon="3.8569">
        <ele>72.24</ele>
        <time>2022-05-01T15:48:59Z</time>
      </trkpt>
      <trkpt lat="43.66811" lon="3.85766">
        <ele>70.31</ele>
        <time>2022-05-01T15:49:11Z</time>
      </trkpt>
      <trkpt lat="43.66835" lon="3.85887">
        <ele>70.31</ele>
        <time>2022-05-01T15:49:26Z</time>
      </trkpt>
      <trkpt lat="43.66839" lon="3.85894">
        <ele>70.31</ele>
        <time>2022-05-01T15:49:27Z</time>
      </trkpt>
      <trkpt lat="43.66876" lon="3.85962">
        <ele>69.35</ele>
        <time>2022-05-01T15:49:38Z</time>
      </trkpt>
      <trkpt lat="43.66876" lon="3.85968">
        <ele>69.35</ele>
        <time>2022-05-01T15:49:39Z</time>
      </trkpt>
      <trkpt lat="43.66876" lon="3.85974">
        <ele>69.35</ele>
        <time>2022-05-01T15:49:40Z</time>
      </trkpt>
      <trkpt lat="43.6688" lon="3.86013">
        <ele>68.87</ele>
        <time>2022-05-01T15:49:51Z</time>
      </trkpt>
      <trkpt lat="43.66899" lon="3.86109">
        <ele>69.83</ele>
        <time>2022-05-01T15:50:04Z</time>
      </trkpt>
      <trkpt lat="43.66908" lon="3.86219">
        <ele>65.51</ele>
        <time>2022-05-01T15:50:16Z</time>
      </trkpt>
      <trkpt lat="43.66906" lon="3.8629">
        <ele>61.66</ele>
        <time>2022-05-01T15:50:30Z</time>
      </trkpt>
      <trkpt lat="43.66912" lon="3.8632">
        <ele>60.7</ele>
        <time>2022-05-01T15:50:34Z</time>
      </trkpt>
      <trkpt lat="43.66915" lon="3.86326">
        <ele>60.22</ele>
        <time>2022-05-01T15:50:35Z</time>
      </trkpt>
      <trkpt lat="43.66919" lon="3.86333">
        <ele>59.74</ele>
        <time>2022-05-01T15:50:36Z</time>
      </trkpt>
      <trkpt lat="43.66962" lon="3.86384">
        <ele>56.86</ele>
        <time>2022-05-01T15:50:46Z</time>
      </trkpt>
      <trkpt lat="43.66967" lon="3.86385">
        <ele>57.34</ele>
        <time>2022-05-01T15:50:47Z</time>
      </trkpt>
      <trkpt lat="43.66972" lon="3.86386">
        <ele>57.34</ele>
        <time>2022-05-01T15:50:48Z</time>
      </trkpt>
      <trkpt lat="43.66977" lon="3.86386">
        <ele>57.82</ele>
        <time>2022-05-01T15:50:49Z</time>
      </trkpt>
      <trkpt lat="43.66981" lon="3.86385">
        <ele>57.82</ele>
        <time>2022-05-01T15:50:50Z</time>
      </trkpt>
      <trkpt lat="43.66986" lon="3.86383">
        <ele>58.3</ele>
        <time>2022-05-01T15:50:51Z</time>
      </trkpt>
      <trkpt lat="43.6699" lon="3.86378">
        <ele>58.3</ele>
        <time>2022-05-01T15:50:52Z</time>
      </trkpt>
      <trkpt lat="43.66994" lon="3.86373">
        <ele>58.3</ele>
        <time>2022-05-01T15:50:53Z</time>
      </trkpt>
      <trkpt lat="43.66998" lon="3.86369">
        <ele>58.78</ele>
        <time>2022-05-01T15:50:54Z</time>
      </trkpt>
      <trkpt lat="43.67039" lon="3.86292">
        <ele>58.3</ele>
        <time>2022-05-01T15:51:09Z</time>
      </trkpt>
      <trkpt lat="43.67062" lon="3.8619">
        <ele>55.89</ele>
        <time>2022-05-01T15:51:28Z</time>
      </trkpt>
      <trkpt lat="43.67094" lon="3.86199">
        <ele>54.45</ele>
        <time>2022-05-01T15:51:39Z</time>
      </trkpt>
      <trkpt lat="43.67158" lon="3.86249">
        <ele>55.89</ele>
        <time>2022-05-01T15:51:55Z</time>
      </trkpt>
      <trkpt lat="43.67175" lon="3.86259">
        <ele>56.37</ele>
        <time>2022-05-01T15:51:59Z</time>
      </trkpt>
      <trkpt lat="43.67179" lon="3.86263">
        <ele>56.37</ele>
        <time>2022-05-01T15:52:00Z</time>
      </trkpt>
      <trkpt lat="43.67183" lon="3.86267">
        <ele>56.37</ele>
        <time>2022-05-01T15:52:01Z</time>
      </trkpt>
      <trkpt lat="43.67187" lon="3.86272">
        <ele>56.37</ele>
        <time>2022-05-01T15:52:02Z</time>
      </trkpt>
      <trkpt lat="43.6719" lon="3.86277">
        <ele>56.37</ele>
        <time>2022-05-01T15:52:03Z</time>
      </trkpt>
      <trkpt lat="43.67193" lon="3.86283">
        <ele>56.37</ele>
        <time>2022-05-01T15:52:04Z</time>
      </trkpt>
      <trkpt lat="43.67196" lon="3.86289">
        <ele>56.37</ele>
        <time>2022-05-01T15:52:05Z</time>
      </trkpt>
      <trkpt lat="43.67265" lon="3.86425">
        <ele>52.53</ele>
        <time>2022-05-01T15:52:27Z</time>
      </trkpt>
      <trkpt lat="43.67287" lon="3.86485">
        <ele>51.57</ele>
        <time>2022-05-01T15:52:35Z</time>
      </trkpt>
      <trkpt lat="43.67288" lon="3.86492">
        <ele>51.57</ele>
        <time>2022-05-01T15:52:36Z</time>
      </trkpt>
      <trkpt lat="43.67288" lon="3.86498">
        <ele>51.57</ele>
        <time>2022-05-01T15:52:37Z</time>
      </trkpt>
      <trkpt lat="43.67301" lon="3.86585">
        <ele>52.53</ele>
        <time>2022-05-01T15:52:53Z</time>
      </trkpt>
      <trkpt lat="43.67323" lon="3.86677">
        <ele>53.97</ele>
        <time>2022-05-01T15:53:15Z</time>
      </trkpt>
      <trkpt lat="43.6733" lon="3.86749">
        <ele>53.97</ele>
        <time>2022-05-01T15:53:30Z</time>
      </trkpt>
      <trkpt lat="43.67325" lon="3.86785">
        <ele>56.37</ele>
        <time>2022-05-01T15:53:41Z</time>
      </trkpt>
      <trkpt lat="43.67357" lon="3.86783">
        <ele>63.1</ele>
        <time>2022-05-01T15:53:54Z</time>
      </trkpt>
      <trkpt lat="43.67419" lon="3.86773">
        <ele>63.58</ele>
        <time>2022-05-01T15:54:12Z</time>
      </trkpt>
      <trkpt lat="43.67447" lon="3.86769">
        <ele>58.3</ele>
        <time>2022-05-01T15:54:24Z</time>
      </trkpt>
      <trkpt lat="43.67448" lon="3.86767">
        <ele>57.82</ele>
        <time>2022-05-01T15:54:41Z</time>
      </trkpt>
      <trkpt lat="43.67447" lon="3.86765">
        <ele>56.86</ele>
        <time>2022-05-01T15:55:09Z</time>
      </trkpt>
      <trkpt lat="43.67458" lon="3.86763">
        <ele>55.89</ele>
        <time>2022-05-01T15:55:26Z</time>
      </trkpt>
      <trkpt lat="43.67485" lon="3.86753">
        <ele>55.41</ele>
        <time>2022-05-01T15:55:34Z</time>
      </trkpt>
      <trkpt lat="43.67514" lon="3.86745">
        <ele>55.41</ele>
        <time>2022-05-01T15:55:43Z</time>
      </trkpt>
      <trkpt lat="43.67515" lon="3.86746">
        <ele>55.41</ele>
        <time>2022-05-01T15:55:44Z</time>
      </trkpt>
      <trkpt lat="43.67517" lon="3.86748">
        <ele>55.89</ele>
        <time>2022-05-01T15:55:45Z</time>
      </trkpt>
      <trkpt lat="43.67517" lon="3.86751">
        <ele>55.89</ele>
        <time>2022-05-01T15:55:46Z</time>
      </trkpt>
      <trkpt lat="43.67518" lon="3.86754">
        <ele>56.37</ele>
        <time>2022-05-01T15:55:47Z</time>
      </trkpt>
      <trkpt lat="43.67518" lon="3.86757">
        <ele>56.37</ele>
        <time>2022-05-01T15:55:48Z</time>
      </trkpt>
      <trkpt lat="43.67519" lon="3.86761">
        <ele>56.37</ele>
        <time>2022-05-01T15:55:49Z</time>
      </trkpt>
      <trkpt lat="43.67521" lon="3.86786">
        <ele>56.37</ele>
        <time>2022-05-01T15:55:56Z</time>
      </trkpt>
      <trkpt lat="43.6752" lon="3.86789">
        <ele>56.86</ele>
        <time>2022-05-01T15:55:57Z</time>
      </trkpt>
      <trkpt lat="43.6752" lon="3.86792">
        <ele>57.34</ele>
        <time>2022-05-01T15:55:58Z</time>
      </trkpt>
      <trkpt lat="43.67522" lon="3.86795">
        <ele>57.34</ele>
        <time>2022-05-01T15:55:59Z</time>
      </trkpt>
      <trkpt lat="43.67524" lon="3.86796">
        <ele>56.86</ele>
        <time>2022-05-01T15:56:00Z</time>
      </trkpt>
      <trkpt lat="43.67527" lon="3.86799">
        <ele>56.86</ele>
        <time>2022-05-01T15:56:01Z</time>
      </trkpt>
      <trkpt lat="43.67527" lon="3.86803">
        <ele>56.37</ele>
        <time>2022-05-01T15:56:02Z</time>
      </trkpt>
      <trkpt lat="43.67528" lon="3.86808">
        <ele>56.37</ele>
        <time>2022-05-01T15:56:03Z</time>
      </trkpt>
      <trkpt lat="43.67533" lon="3.86863">
        <ele>55.89</ele>
        <time>2022-05-01T15:56:15Z</time>
      </trkpt>
      <trkpt lat="43.6754" lon="3.86916">
        <ele>56.37</ele>
        <time>2022-05-01T15:56:27Z</time>
      </trkpt>
      <trkpt lat="43.67554" lon="3.86972">
        <ele>57.34</ele>
        <time>2022-05-01T15:56:39Z</time>
      </trkpt>
      <trkpt lat="43.67583" lon="3.87025">
        <ele>56.37</ele>
        <time>2022-05-01T15:56:51Z</time>
      </trkpt>
      <trkpt lat="43.67624" lon="3.87103">
        <ele>55.41</ele>
        <time>2022-05-01T15:57:08Z</time>
      </trkpt>
      <trkpt lat="43.67644" lon="3.87131">
        <ele>53.01</ele>
        <time>2022-05-01T15:57:19Z</time>
      </trkpt>
      <trkpt lat="43.67652" lon="3.87139">
        <ele>53.49</ele>
        <time>2022-05-01T15:57:29Z</time>
      </trkpt>
      <trkpt lat="43.67654" lon="3.87136">
        <ele>54.45</ele>
        <time>2022-05-01T15:57:43Z</time>
      </trkpt>
      <trkpt lat="43.67656" lon="3.87139">
        <ele>55.41</ele>
        <time>2022-05-01T15:57:56Z</time>
      </trkpt>
      <trkpt lat="43.67657" lon="3.87139">
        <ele>57.82</ele>
        <time>2022-05-01T15:58:11Z</time>
      </trkpt>
      <trkpt lat="43.6766" lon="3.87135">
        <ele>55.89</ele>
        <time>2022-05-01T15:58:26Z</time>
      </trkpt>
      <trkpt lat="43.67656" lon="3.8714">
        <ele>57.82</ele>
        <time>2022-05-01T15:58:45Z</time>
      </trkpt>
      <trkpt lat="43.67656" lon="3.87142">
        <ele>57.82</ele>
        <time>2022-05-01T15:59:01Z</time>
      </trkpt>
      <trkpt lat="43.67657" lon="3.87142">
        <ele>58.3</ele>
        <time>2022-05-01T15:59:16Z</time>
      </trkpt>
      <trkpt lat="43.67657" lon="3.87144">
        <ele>57.82</ele>
        <time>2022-05-01T15:59:20Z</time>
      </trkpt>
      <trkpt lat="43.6766" lon="3.87168">
        <ele>57.34</ele>
        <time>2022-05-01T15:59:31Z</time>
      </trkpt>
      <trkpt lat="43.67661" lon="3.8717">
        <ele>57.34</ele>
        <time>2022-05-01T15:59:32Z</time>
      </trkpt>
      <trkpt lat="43.67661" lon="3.87173">
        <ele>56.86</ele>
        <time>2022-05-01T15:59:33Z</time>
      </trkpt>
      <trkpt lat="43.67661" lon="3.87177">
        <ele>56.86</ele>
        <time>2022-05-01T15:59:34Z</time>
      </trkpt>
      <trkpt lat="43.6768" lon="3.8721">
        <ele>56.37</ele>
        <time>2022-05-01T15:59:45Z</time>
      </trkpt>
      <trkpt lat="43.67717" lon="3.87243">
        <ele>55.89</ele>
        <time>2022-05-01T16:00:00Z</time>
      </trkpt>
      <trkpt lat="43.6772" lon="3.87243">
        <ele>55.89</ele>
        <time>2022-05-01T16:00:01Z</time>
      </trkpt>
      <trkpt lat="43.67722" lon="3.87243">
        <ele>55.89</ele>
        <time>2022-05-01T16:00:02Z</time>
      </trkpt>
      <trkpt lat="43.67743" lon="3.87241">
        <ele>58.3</ele>
        <time>2022-05-01T16:00:12Z</time>
      </trkpt>
      <trkpt lat="43.67744" lon="3.87239">
        <ele>58.3</ele>
        <time>2022-05-01T16:00:13Z</time>
      </trkpt>
      <trkpt lat="43.67744" lon="3.87235">
        <ele>58.3</ele>
        <time>2022-05-01T16:00:14Z</time>
      </trkpt>
      <trkpt lat="43.67745" lon="3.87232">
        <ele>58.3</ele>
        <time>2022-05-01T16:00:15Z</time>
      </trkpt>
      <trkpt lat="43.67746" lon="3.8723">
        <ele>58.78</ele>
        <time>2022-05-01T16:00:16Z</time>
      </trkpt>
      <trkpt lat="43.67747" lon="3.87229">
        <ele>59.26</ele>
        <time>2022-05-01T16:00:17Z</time>
      </trkpt>
      <trkpt lat="43.67748" lon="3.87229">
        <ele>59.26</ele>
        <time>2022-05-01T16:00:18Z</time>
      </trkpt>
      <trkpt lat="43.67749" lon="3.87231">
        <ele>59.74</ele>
        <time>2022-05-01T16:00:19Z</time>
      </trkpt>
      <trkpt lat="43.6775" lon="3.87233">
        <ele>60.22</ele>
        <time>2022-05-01T16:00:20Z</time>
      </trkpt>
      <trkpt lat="43.67752" lon="3.87235">
        <ele>60.22</ele>
        <time>2022-05-01T16:00:21Z</time>
      </trkpt>
      <trkpt lat="43.67753" lon="3.87238">
        <ele>60.7</ele>
        <time>2022-05-01T16:00:22Z</time>
      </trkpt>
      <trkpt lat="43.67777" lon="3.87273">
        <ele>62.14</ele>
        <time>2022-05-01T16:00:35Z</time>
      </trkpt>
      <trkpt lat="43.67814" lon="3.87319">
        <ele>63.1</ele>
        <time>2022-05-01T16:00:49Z</time>
      </trkpt>
      <trkpt lat="43.67873" lon="3.87361">
        <ele>63.1</ele>
        <time>2022-05-01T16:01:06Z</time>
      </trkpt>
      <trkpt lat="43.67928" lon="3.87377">
        <ele>65.03</ele>
        <time>2022-05-01T16:01:22Z</time>
      </trkpt>
      <trkpt lat="43.67975" lon="3.87385">
        <ele>71.27</ele>
        <time>2022-05-01T16:01:37Z</time>
      </trkpt>
      <trkpt lat="43.68023" lon="3.87399">
        <ele>74.16</ele>
        <time>2022-05-01T16:01:51Z</time>
      </trkpt>
      <trkpt lat="43.6807" lon="3.8741">
        <ele>77.52</ele>
        <time>2022-05-01T16:02:06Z</time>
      </trkpt>
      <trkpt lat="43.68114" lon="3.87414">
        <ele>80.41</ele>
        <time>2022-05-01T16:02:20Z</time>
      </trkpt>
      <trkpt lat="43.68116" lon="3.87411">
        <ele>80.89</ele>
        <time>2022-05-01T16:02:21Z</time>
      </trkpt>
      <trkpt lat="43.68117" lon="3.87408">
        <ele>80.89</ele>
        <time>2022-05-01T16:02:22Z</time>
      </trkpt>
      <trkpt lat="43.68118" lon="3.87404">
        <ele>81.37</ele>
        <time>2022-05-01T16:02:23Z</time>
      </trkpt>
      <trkpt lat="43.68119" lon="3.874">
        <ele>81.37</ele>
        <time>2022-05-01T16:02:24Z</time>
      </trkpt>
      <trkpt lat="43.6812" lon="3.87396">
        <ele>81.37</ele>
        <time>2022-05-01T16:02:25Z</time>
      </trkpt>
      <trkpt lat="43.68136" lon="3.87344">
        <ele>81.37</ele>
        <time>2022-05-01T16:02:38Z</time>
      </trkpt>
      <trkpt lat="43.6815" lon="3.87294">
        <ele>83.77</ele>
        <time>2022-05-01T16:02:52Z</time>
      </trkpt>
      <trkpt lat="43.68164" lon="3.87256">
        <ele>85.69</ele>
        <time>2022-05-01T16:03:06Z</time>
      </trkpt>
      <trkpt lat="43.68166" lon="3.87256">
        <ele>85.69</ele>
        <time>2022-05-01T16:03:07Z</time>
      </trkpt>
      <trkpt lat="43.68184" lon="3.87279">
        <ele>87.62</ele>
        <time>2022-05-01T16:03:20Z</time>
      </trkpt>
      <trkpt lat="43.68229" lon="3.87332">
        <ele>88.58</ele>
        <time>2022-05-01T16:03:39Z</time>
      </trkpt>
      <trkpt lat="43.68285" lon="3.87374">
        <ele>88.58</ele>
        <time>2022-05-01T16:03:57Z</time>
      </trkpt>
      <trkpt lat="43.68318" lon="3.87385">
        <ele>86.66</ele>
        <time>2022-05-01T16:04:04Z</time>
      </trkpt>
      <trkpt lat="43.68322" lon="3.87385">
        <ele>86.66</ele>
        <time>2022-05-01T16:04:05Z</time>
      </trkpt>
      <trkpt lat="43.68335" lon="3.87382">
        <ele>86.66</ele>
        <time>2022-05-01T16:04:08Z</time>
      </trkpt>
      <trkpt lat="43.68369" lon="3.87368">
        <ele>87.14</ele>
        <time>2022-05-01T16:04:16Z</time>
      </trkpt>
      <trkpt lat="43.68417" lon="3.87324">
        <ele>85.21</ele>
        <time>2022-05-01T16:04:27Z</time>
      </trkpt>
      <trkpt lat="43.6843" lon="3.87311">
        <ele>83.77</ele>
        <time>2022-05-01T16:04:30Z</time>
      </trkpt>
      <trkpt lat="43.68439" lon="3.87302">
        <ele>83.29</ele>
        <time>2022-05-01T16:04:32Z</time>
      </trkpt>
      <trkpt lat="43.6846" lon="3.8728">
        <ele>80.41</ele>
        <time>2022-05-01T16:04:37Z</time>
      </trkpt>
      <trkpt lat="43.68468" lon="3.87271">
        <ele>78.97</ele>
        <time>2022-05-01T16:04:39Z</time>
      </trkpt>
      <trkpt lat="43.68483" lon="3.87257">
        <ele>77.04</ele>
        <time>2022-05-01T16:04:43Z</time>
      </trkpt>
      <trkpt lat="43.68529" lon="3.87211">
        <ele>72.24</ele>
        <time>2022-05-01T16:04:58Z</time>
      </trkpt>
      <trkpt lat="43.68561" lon="3.8718">
        <ele>70.31</ele>
        <time>2022-05-01T16:05:13Z</time>
      </trkpt>
      <trkpt lat="43.68594" lon="3.8714">
        <ele>70.31</ele>
        <time>2022-05-01T16:05:28Z</time>
      </trkpt>
      <trkpt lat="43.68647" lon="3.87124">
        <ele>72.72</ele>
        <time>2022-05-01T16:05:46Z</time>
      </trkpt>
      <trkpt lat="43.68689" lon="3.87123">
        <ele>73.68</ele>
        <time>2022-05-01T16:06:01Z</time>
      </trkpt>
      <trkpt lat="43.68721" lon="3.87133">
        <ele>74.64</ele>
        <time>2022-05-01T16:06:12Z</time>
      </trkpt>
      <trkpt lat="43.68767" lon="3.87163">
        <ele>73.68</ele>
        <time>2022-05-01T16:06:29Z</time>
      </trkpt>
      <trkpt lat="43.68823" lon="3.87197">
        <ele>77.52</ele>
        <time>2022-05-01T16:06:48Z</time>
      </trkpt>
      <trkpt lat="43.68878" lon="3.87238">
        <ele>79.45</ele>
        <time>2022-05-01T16:07:05Z</time>
      </trkpt>
      <trkpt lat="43.68948" lon="3.87288">
        <ele>80.89</ele>
        <time>2022-05-01T16:07:27Z</time>
      </trkpt>
      <trkpt lat="43.69017" lon="3.87339">
        <ele>82.33</ele>
        <time>2022-05-01T16:07:47Z</time>
      </trkpt>
      <trkpt lat="43.69091" lon="3.8739">
        <ele>85.21</ele>
        <time>2022-05-01T16:08:08Z</time>
      </trkpt>
      <trkpt lat="43.69158" lon="3.87413">
        <ele>87.14</ele>
        <time>2022-05-01T16:08:24Z</time>
      </trkpt>
      <trkpt lat="43.69216" lon="3.87452">
        <ele>90.98</ele>
        <time>2022-05-01T16:08:42Z</time>
      </trkpt>
      <trkpt lat="43.69244" lon="3.87479">
        <ele>91.94</ele>
        <time>2022-05-01T16:08:56Z</time>
      </trkpt>
      <trkpt lat="43.69247" lon="3.87483">
        <ele>89.06</ele>
        <time>2022-05-01T16:09:00Z</time>
      </trkpt>
      <trkpt lat="43.69249" lon="3.87481">
        <ele>88.58</ele>
        <time>2022-05-01T16:09:01Z</time>
      </trkpt>
      <trkpt lat="43.69252" lon="3.87479">
        <ele>88.1</ele>
        <time>2022-05-01T16:09:02Z</time>
      </trkpt>
      <trkpt lat="43.69291" lon="3.8741">
        <ele>87.14</ele>
        <time>2022-05-01T16:09:19Z</time>
      </trkpt>
      <trkpt lat="43.69342" lon="3.87318">
        <ele>84.73</ele>
        <time>2022-05-01T16:09:36Z</time>
      </trkpt>
      <trkpt lat="43.69371" lon="3.87308">
        <ele>83.29</ele>
        <time>2022-05-01T16:09:46Z</time>
      </trkpt>
      <trkpt lat="43.69412" lon="3.87361">
        <ele>83.29</ele>
        <time>2022-05-01T16:10:01Z</time>
      </trkpt>
      <trkpt lat="43.69443" lon="3.87416">
        <ele>86.18</ele>
        <time>2022-05-01T16:10:16Z</time>
      </trkpt>
      <trkpt lat="43.69464" lon="3.87435">
        <ele>88.58</ele>
        <time>2022-05-01T16:10:26Z</time>
      </trkpt>
      <trkpt lat="43.69494" lon="3.874">
        <ele>90.98</ele>
        <time>2022-05-01T16:10:41Z</time>
      </trkpt>
      <trkpt lat="43.69533" lon="3.87358">
        <ele>91.94</ele>
        <time>2022-05-01T16:11:01Z</time>
      </trkpt>
      <trkpt lat="43.69562" lon="3.87323">
        <ele>94.35</ele>
        <time>2022-05-01T16:11:16Z</time>
      </trkpt>
      <trkpt lat="43.69567" lon="3.87308">
        <ele>93.39</ele>
        <time>2022-05-01T16:11:30Z</time>
      </trkpt>
      <trkpt lat="43.69566" lon="3.87305">
        <ele>93.39</ele>
        <time>2022-05-01T16:11:47Z</time>
      </trkpt>
      <trkpt lat="43.69561" lon="3.87302">
        <ele>94.35</ele>
        <time>2022-05-01T16:12:09Z</time>
      </trkpt>
      <trkpt lat="43.69562" lon="3.87303">
        <ele>93.87</ele>
        <time>2022-05-01T16:12:23Z</time>
      </trkpt>
      <trkpt lat="43.69563" lon="3.87303">
        <ele>92.42</ele>
        <time>2022-05-01T16:12:39Z</time>
      </trkpt>
      <trkpt lat="43.69566" lon="3.87303">
        <ele>90.98</ele>
        <time>2022-05-01T16:13:04Z</time>
      </trkpt>
      <trkpt lat="43.69565" lon="3.87301">
        <ele>89.06</ele>
        <time>2022-05-01T16:13:21Z</time>
      </trkpt>
      <trkpt lat="43.69565" lon="3.873">
        <ele>85.21</ele>
        <time>2022-05-01T16:13:47Z</time>
      </trkpt>
      <trkpt lat="43.6957" lon="3.873">
        <ele>86.66</ele>
        <time>2022-05-01T16:14:03Z</time>
      </trkpt>
      <trkpt lat="43.69571" lon="3.87304">
        <ele>86.18</ele>
        <time>2022-05-01T16:14:19Z</time>
      </trkpt>
      <trkpt lat="43.69572" lon="3.87299">
        <ele>87.14</ele>
        <time>2022-05-01T16:14:36Z</time>
      </trkpt>
      <trkpt lat="43.6957" lon="3.87298">
        <ele>87.62</ele>
        <time>2022-05-01T16:14:56Z</time>
      </trkpt>
      <trkpt lat="43.69569" lon="3.87305">
        <ele>88.1</ele>
        <time>2022-05-01T16:15:14Z</time>
      </trkpt>
      <trkpt lat="43.69572" lon="3.87303">
        <ele>89.06</ele>
        <time>2022-05-01T16:15:29Z</time>
      </trkpt>
      <trkpt lat="43.69568" lon="3.87303">
        <ele>89.54</ele>
        <time>2022-05-01T16:15:48Z</time>
      </trkpt>
      <trkpt lat="43.69566" lon="3.87303">
        <ele>89.06</ele>
        <time>2022-05-01T16:16:03Z</time>
      </trkpt>
      <trkpt lat="43.69566" lon="3.87302">
        <ele>87.14</ele>
        <time>2022-05-01T16:16:27Z</time>
      </trkpt>
      <trkpt lat="43.69565" lon="3.87306">
        <ele>88.1</ele>
        <time>2022-05-01T16:16:41Z</time>
      </trkpt>
      <trkpt lat="43.69565" lon="3.87307">
        <ele>87.14</ele>
        <time>2022-05-01T16:16:55Z</time>
      </trkpt>
      <trkpt lat="43.69567" lon="3.87307">
        <ele>85.21</ele>
        <time>2022-05-01T16:17:30Z</time>
      </trkpt>
      <trkpt lat="43.69565" lon="3.87302">
        <ele>85.21</ele>
        <time>2022-05-01T16:17:53Z</time>
      </trkpt>
      <trkpt lat="43.69566" lon="3.87303">
        <ele>88.58</ele>
        <time>2022-05-01T16:18:14Z</time>
      </trkpt>
      <trkpt lat="43.69565" lon="3.87302">
        <ele>91.46</ele>
        <time>2022-05-01T16:18:45Z</time>
      </trkpt>
      <trkpt lat="43.69569" lon="3.87302">
        <ele>88.58</ele>
        <time>2022-05-01T16:19:17Z</time>
      </trkpt>
      <trkpt lat="43.69566" lon="3.87301">
        <ele>89.54</ele>
        <time>2022-05-01T16:19:46Z</time>
      </trkpt>
      <trkpt lat="43.69567" lon="3.87301">
        <ele>87.14</ele>
        <time>2022-05-01T16:20:06Z</time>
      </trkpt>
    </trkseg>
  </trk>
</gpx>